[[{"header":{"parameterUnit":"m.s-1","parameterCategory":1,"la1":30.6,"la2":29.2853,"lo1":-89.7004,"lo2":-87.6739,"dy":0.0162,"dx":0.0183,"nx":112,"ny":82,"refTime":"2025-04-12T06:00:00:Z","depth":0,"parameterNumber":2,"parameterNumberName":"U-component_of_WINDS"},"data":[0.0,0.0,0.0,0.0,0.0,0.0,0.0,0.0,0.0,0.0,0.0,0.0,0.0,0.0,0.0,0.0,0.0,0.0,0.0,0.0,0.0,0.0,0.0,0.0,0.0,0.0,0.0,0.0,0.0,0.0,0.0,0.0,0.0,0.0,0.0,0.0,0.0,0.0,0.0,0.0,0.0,0.0,0.0,0.0,0.0,0.0,0.0,0.0,0.0,0.0,0.0,0.0,0.0,0.0,0.0,0.0,0.0,0.0,0.0,0.0,0.0,0.0,0.0,0.0,0.0,0.0,0.0,0.0,0.0,0.0,0.0,0.0,0.0,0.0,0.0,0.0,0.0,0.0,0.0,0.0,0.0,0.0,0.0,0.0,0.0,0.0,0.0,0.0,0.0,0.0,0.0,-2.3266,-2.563,-2.6742,-2.6015,-2.5728,-2.4391,-2.1546,0.0,0.0,0.0,0.0,0.0,0.0,0.0,0.0,0.0,0.0,0.0,0.0,0.0,0.0,0.0,0.0,0.0,0.0,0.0,0.0,0.0,0.0,0.0,0.0,0.0,0.0,0.0,0.0,0.0,0.0,0.0,0.0,0.0,0.0,0.0,0.0,0.0,0.0,0.0,0.0,0.0,0.0,0.0,0.0,0.0,0.0,0.0,0.0,0.0,0.0,0.0,0.0,0.0,0.0,0.0,0.0,0.0,0.0,0.0,0.0,0.0,0.0,0.0,0.0,0.0,0.0,0.0,0.0,0.0,0.0,0.0,0.0,0.0,0.0,0.0,0.0,0.0,0.0,0.0,0.0,0.0,0.0,0.0,0.0,0.0,0.0,0.0,0.0,0.0,0.0,0.0,0.0,0.0,0.0,0.0,0.0,0.0,0.0,0.0,0.0,0.0,0.0,0.0,0.0,-2.0728,-2.5159,-2.7445,-2.8315,-2.7536,-2.6319,-2.4612,-2.2279,0.0,0.0,0.0,0.0,0.0,0.0,0.0,0.0,0.0,0.0,0.0,0.0,0.0,0.0,0.0,0.0,0.0,0.0,0.0,0.0,0.0,0.0,0.0,0.0,0.0,0.0,0.0,0.0,0.0,0.0,0.0,0.0,0.0,0.0,0.0,0.0,0.0,0.0,0.0,0.0,0.0,0.0,0.0,0.0,0.0,0.0,0.0,0.0,0.0,0.0,0.0,0.0,0.0,0.0,0.0,0.0,0.0,0.0,0.0,0.0,0.0,0.0,0.0,0.0,0.0,0.0,0.0,0.0,0.0,0.0,0.0,0.0,0.0,0.0,0.0,0.0,0.0,0.0,0.0,0.0,0.0,0.0,0.0,0.0,0.0,0.0,0.0,0.0,0.0,0.0,0.0,0.0,0.0,0.0,0.0,0.0,0.0,0.0,0.0,0.0,0.0,0.0,0.0,-2.0717,-2.3012,-2.6635,-2.8208,-2.867,-2.7874,-2.681,-2.5253,-2.3038,-2.0382,0.0,0.0,0.0,0.0,0.0,0.0,0.0,0.0,0.0,0.0,0.0,0.0,0.0,0.0,0.0,0.0,0.0,0.0,0.0,0.0,0.0,0.0,0.0,0.0,0.0,0.0,0.0,0.0,0.0,0.0,0.0,0.0,0.0,0.0,0.0,0.0,0.0,0.0,0.0,0.0,0.0,0.0,0.0,0.0,0.0,0.0,0.0,0.0,0.0,0.0,0.0,0.0,0.0,0.0,0.0,0.0,0.0,0.0,0.0,0.0,0.0,0.0,0.0,0.0,0.0,0.0,0.0,0.0,0.0,0.0,0.0,0.0,0.0,0.0,0.0,0.0,0.0,0.0,0.0,0.0,0.0,0.0,0.0,0.0,0.0,0.0,0.0,0.0,0.0,0.0,0.0,0.0,0.0,0.0,0.0,0.0,0.0,0.0,0.0,0.0,0.0,0.0,-2.3885,-2.5578,-2.795,-2.8897,-2.9018,-2.8162,-2.7232,-2.5761,-2.3528,-2.0416,0.0,0.0,0.0,0.0,0.0,0.0,0.0,0.0,0.0,0.0,0.0,0.0,0.0,0.0,0.0,0.0,0.0,0.0,0.0,0.0,0.0,0.0,0.0,0.0,0.0,0.0,0.0,0.0,0.0,0.0,0.0,0.0,0.0,0.0,0.0,0.0,0.0,0.0,0.0,0.0,0.0,0.0,0.0,0.0,0.0,0.0,0.0,0.0,0.0,0.0,0.0,0.0,0.0,0.0,0.0,0.0,0.0,0.0,0.0,0.0,0.0,0.0,0.0,0.0,0.0,0.0,0.0,0.0,0.0,0.0,0.0,0.0,0.0,0.0,0.0,0.0,0.0,0.0,0.0,0.0,0.0,0.0,0.0,0.0,0.0,0.0,0.0,0.0,0.0,0.0,0.0,0.0,0.0,0.0,0.0,0.0,0.0,0.0,0.0,0.0,0.0,0.0,-2.462,-2.7163,-2.9178,-2.9995,-2.9985,-2.899,-2.7554,-2.5761,-2.3528,-1.9925,0.0,0.0,0.0,0.0,0.0,0.0,0.0,0.0,0.0,0.0,0.0,0.0,0.0,0.0,0.0,0.0,0.0,0.0,0.0,0.0,0.0,0.0,0.0,0.0,0.0,0.0,0.0,0.0,0.0,0.0,0.0,0.0,0.0,0.0,0.0,0.0,0.0,0.0,0.0,0.0,0.0,0.0,0.0,0.0,0.0,0.0,0.0,0.0,0.0,0.0,0.0,0.0,0.0,0.0,0.0,0.0,0.0,0.0,0.0,0.0,0.0,0.0,0.0,0.0,0.0,0.0,0.0,0.0,0.0,0.0,0.0,0.0,0.0,0.0,0.0,0.0,0.0,0.0,0.0,0.0,0.0,0.0,0.0,0.0,0.0,0.0,0.0,0.0,0.0,0.0,0.0,0.0,0.0,0.0,0.0,0.0,0.0,0.0,0.0,0.0,0.0,0.0,-2.4996,-2.73,0.0,-3.0519,-3.0409,-2.911,-2.8468,-2.6793,-2.3596,0.0,0.0,0.0,0.0,0.0,0.0,0.0,0.0,0.0,0.0,0.0,0.0,0.0,0.0,0.0,0.0,0.0,0.0,0.0,0.0,0.0,0.0,0.0,0.0,0.0,0.0,0.0,0.0,0.0,0.0,0.0,0.0,0.0,0.0,0.0,0.0,0.0,0.0,0.0,0.0,0.0,0.0,0.0,0.0,0.0,0.0,0.0,0.0,0.0,0.0,0.0,0.0,0.0,0.0,0.0,0.0,0.0,0.0,0.0,0.0,0.0,0.0,0.0,0.0,0.0,0.0,0.0,0.0,0.0,0.0,0.0,0.0,0.0,0.0,0.0,0.0,0.0,0.0,0.0,0.0,0.0,0.0,0.0,0.0,0.0,0.0,0.0,0.0,0.0,0.0,0.0,0.0,0.0,0.0,0.0,0.0,0.0,0.0,0.0,0.0,0.0,0.0,-2.3422,-2.5702,-2.7855,0.0,-3.0769,-3.0446,-2.911,-2.8553,-2.6877,-2.3613,0.0,0.0,0.0,0.0,0.0,0.0,0.0,0.0,0.0,0.0,0.0,0.0,0.0,0.0,0.0,0.0,0.0,0.0,0.0,0.0,0.0,0.0,0.0,0.0,0.0,0.0,0.0,0.0,0.0,0.0,0.0,0.0,0.0,0.0,0.0,0.0,0.0,0.0,0.0,0.0,0.0,0.0,0.0,0.0,0.0,0.0,0.0,0.0,0.0,0.0,0.0,0.0,0.0,0.0,0.0,0.0,0.0,0.0,0.0,0.0,0.0,0.0,0.0,0.0,0.0,0.0,0.0,0.0,0.0,0.0,0.0,0.0,0.0,0.0,0.0,0.0,0.0,0.0,0.0,0.0,0.0,0.0,0.0,0.0,0.0,0.0,0.0,0.0,0.0,0.0,0.0,0.0,0.0,0.0,0.0,0.0,0.0,0.0,0.0,0.0,0.0,0.0,-2.4276,-2.6817,-2.904,-3.0982,-3.0781,-3.0099,-2.9092,-2.7605,-2.5761,0.0,0.0,0.0,0.0,0.0,0.0,0.0,0.0,0.0,0.0,0.0,0.0,0.0,0.0,0.0,0.0,0.0,0.0,0.0,0.0,0.0,0.0,0.0,0.0,0.0,0.0,0.0,0.0,0.0,0.0,0.0,0.0,0.0,0.0,0.0,0.0,0.0,0.0,0.0,0.0,0.0,0.0,0.0,0.0,0.0,0.0,0.0,0.0,0.0,0.0,0.0,0.0,0.0,0.0,0.0,0.0,0.0,0.0,0.0,0.0,0.0,0.0,0.0,0.0,0.0,0.0,0.0,0.0,0.0,0.0,0.0,0.0,0.0,0.0,0.0,0.0,0.0,0.0,0.0,0.0,0.0,0.0,0.0,0.0,0.0,0.0,0.0,0.0,0.0,0.0,0.0,0.0,0.0,0.0,0.0,0.0,0.0,0.0,0.0,0.0,0.0,0.0,0.0,-2.5242,-2.7536,-2.9402,-3.1038,-3.1092,-3.0648,-2.9835,-2.8366,-2.6302,-2.3562,0.0,0.0,0.0,0.0,0.0,0.0,0.0,0.0,0.0,0.0,0.0,0.0,0.0,0.0,0.0,0.0,0.0,0.0,0.0,0.0,0.0,0.0,0.0,0.0,0.0,0.0,0.0,0.0,0.0,0.0,0.0,0.0,0.0,0.0,0.0,0.0,0.0,0.0,0.0,0.0,0.0,0.0,0.0,0.0,0.0,0.0,0.0,0.0,0.0,0.0,0.0,0.0,0.0,0.0,0.0,0.0,0.0,0.0,0.0,0.0,0.0,0.0,0.0,0.0,0.0,0.0,0.0,0.0,0.0,0.0,0.0,0.0,0.0,0.0,0.0,0.0,0.0,0.0,0.0,0.0,0.0,0.0,0.0,0.0,0.0,0.0,0.0,0.0,0.0,0.0,0.0,0.0,0.0,0.0,0.0,0.0,0.0,0.0,0.0,0.0,0.0,0.0,-2.5727,-2.8353,-3.0228,-3.1106,-3.1464,-3.1207,-3.0192,-2.8686,-2.6657,-2.4017,0.0,0.0,0.0,0.0,0.0,0.0,0.0,0.0,0.0,0.0,0.0,0.0,0.0,0.0,0.0,0.0,0.0,0.0,0.0,0.0,0.0,0.0,0.0,0.0,0.0,0.0,0.0,0.0,0.0,0.0,0.0,0.0,0.0,0.0,0.0,0.0,0.0,0.0,0.0,0.0,0.0,0.0,0.0,0.0,0.0,0.0,0.0,0.0,0.0,0.0,0.0,0.0,0.0,0.0,0.0,0.0,0.0,0.0,0.0,0.0,0.0,0.0,0.0,0.0,0.0,0.0,0.0,0.0,0.0,0.0,0.0,0.0,0.0,0.0,0.0,0.0,0.0,0.0,0.0,0.0,0.0,0.0,0.0,0.0,0.0,0.0,0.0,0.0,0.0,0.0,0.0,0.0,0.0,0.0,0.0,0.0,0.0,0.0,0.0,0.0,0.0,0.0,-2.6013,-2.9196,-3.1241,-3.1376,-3.1955,-3.1769,-3.0429,-2.877,-2.6877,-2.4745,0.0,0.0,0.0,0.0,0.0,0.0,0.0,0.0,0.0,0.0,0.0,0.0,0.0,0.0,0.0,0.0,0.0,0.0,0.0,0.0,0.0,0.0,0.0,0.0,0.0,0.0,0.0,0.0,0.0,0.0,0.0,0.0,0.0,0.0,0.0,0.0,0.0,0.0,0.0,0.0,0.0,0.0,0.0,0.0,0.0,0.0,0.0,0.0,0.0,0.0,0.0,0.0,0.0,0.0,0.0,0.0,0.0,0.0,0.0,0.0,-2.4289,0.0,0.0,0.0,0.0,0.0,0.0,0.0,0.0,0.0,0.0,0.0,0.0,0.0,0.0,0.0,0.0,0.0,0.0,0.0,0.0,0.0,0.0,0.0,0.0,0.0,0.0,0.0,0.0,0.0,0.0,0.0,0.0,0.0,0.0,0.0,0.0,0.0,0.0,0.0,0.0,0.0,-2.7011,-2.9664,-3.163,-3.2814,-3.2544,-3.2175,-3.187,-2.9364,-2.7097,-2.5473,-2.2443,0.0,0.0,0.0,0.0,0.0,0.0,0.0,0.0,0.0,0.0,0.0,0.0,0.0,0.0,0.0,0.0,0.0,0.0,0.0,0.0,0.0,0.0,0.0,0.0,0.0,0.0,0.0,0.0,0.0,0.0,0.0,0.0,0.0,0.0,0.0,0.0,0.0,0.0,0.0,0.0,0.0,0.0,0.0,0.0,0.0,0.0,0.0,0.0,0.0,0.0,0.0,0.0,0.0,0.0,0.0,0.0,0.0,0.0,0.0,0.0,-2.6319,0.0,0.0,0.0,0.0,0.0,0.0,0.0,0.0,0.0,0.0,0.0,0.0,0.0,0.0,0.0,0.0,0.0,0.0,0.0,0.0,0.0,0.0,0.0,0.0,0.0,0.0,0.0,0.0,0.0,0.0,0.0,0.0,0.0,0.0,0.0,0.0,0.0,0.0,0.0,0.0,-2.7469,-3.0393,-3.256,-3.3322,-3.3051,-3.2679,-3.2327,-3.0209,-2.8263,-2.6742,-2.3883,0.0,0.0,0.0,0.0,0.0,0.0,0.0,0.0,0.0,0.0,0.0,0.0,0.0,0.0,0.0,0.0,0.0,0.0,0.0,0.0,0.0,0.0,0.0,0.0,0.0,0.0,0.0,0.0,0.0,0.0,0.0,0.0,0.0,0.0,0.0,0.0,0.0,0.0,0.0,0.0,0.0,0.0,0.0,0.0,0.0,0.0,0.0,0.0,0.0,0.0,0.0,0.0,0.0,-3.2425,-3.2903,-3.2188,-3.2953,-3.3292,-3.3173,-3.1345,-3.0262,-2.9653,-2.813,0.0,0.0,0.0,0.0,0.0,0.0,0.0,0.0,0.0,0.0,0.0,0.0,0.0,0.0,0.0,0.0,0.0,0.0,0.0,0.0,0.0,0.0,0.0,0.0,-2.889,-2.8163,0.0,0.0,0.0,0.0,0.0,0.0,0.0,0.0,0.0,0.0,0.0,0.0,-2.7976,-3.1238,-3.3508,-3.3761,-3.3677,-3.3288,-3.2564,-3.114,-2.9651,-2.8111,-2.5473,-2.3323,0.0,0.0,0.0,0.0,0.0,0.0,0.0,0.0,0.0,0.0,0.0,0.0,0.0,0.0,0.0,0.0,0.0,0.0,0.0,0.0,0.0,0.0,0.0,0.0,0.0,0.0,0.0,0.0,0.0,0.0,0.0,0.0,-2.0323,-2.1799,0.0,0.0,0.0,0.0,0.0,0.0,0.0,0.0,0.0,0.0,0.0,0.0,0.0,-3.0006,-3.0734,-3.2848,-3.3592,-3.3,-3.5825,-3.6772,-3.6084,-3.6823,-3.7161,-3.7161,-3.6857,0.0,-3.2713,-3.1224,0.0,0.0,0.0,0.0,0.0,0.0,0.0,0.0,0.0,0.0,0.0,0.0,0.0,0.0,0.0,0.0,0.0,0.0,0.0,0.0,0.0,0.0,-3.0514,-3.07,-3.0818,-3.0548,0.0,-2.7012,-2.5033,-2.4085,-2.233,0.0,0.0,0.0,0.0,0.0,0.0,0.0,-2.943,-3.1918,-3.3897,-3.516,-3.4742,-3.4049,-3.3322,-3.1901,-3.0412,-2.8942,-2.7215,-2.5608,-2.4135,-2.1935,0.0,0.0,0.0,0.0,0.0,0.0,0.0,0.0,0.0,0.0,0.0,0.0,0.0,0.0,0.0,0.0,0.0,0.0,0.0,0.0,0.0,0.0,0.0,0.0,0.0,0.0,0.0,0.0,0.0,-2.0689,-2.2425,-2.3451,-2.3642,-2.363,0.0,0.0,0.0,0.0,0.0,0.0,0.0,0.0,0.0,-3.1427,-3.2574,-3.3757,-3.4962,-3.6761,-3.7686,-3.7804,-3.9546,-4.0189,-3.9884,-4.0223,-4.0375,-4.0375,-4.0375,-3.9614,-3.8159,-3.4979,-3.3,-3.1816,0.0,0.0,0.0,0.0,-3.0412,-3.0565,-3.2273,-3.2577,0.0,-3.163,0.0,0.0,0.0,0.0,0.0,0.0,0.0,0.0,0.0,0.0,-3.3795,-3.4257,-3.4658,-3.4759,-3.4015,-3.2138,-2.9753,0.0,-2.593,-2.4882,-2.2654,0.0,0.0,0.0,0.0,-2.8772,-3.0497,-3.2645,-3.4421,-3.5481,-3.4945,-3.4201,-3.3457,-3.2425,-3.1193,-2.9702,-2.8604,-2.7317,-2.5811,-2.4,-2.2003,0.0,0.0,0.0,0.0,0.0,0.0,0.0,0.0,0.0,0.0,0.0,0.0,0.0,0.0,0.0,0.0,0.0,0.0,0.0,0.0,0.0,0.0,0.0,0.0,0.0,0.0,0.0,0.0,-2.311,-2.4441,-2.4998,-2.6065,-2.6387,0.0,0.0,0.0,0.0,0.0,0.0,-3.119,-3.2649,-3.3884,-3.481,-3.6265,-3.7662,-3.9005,-4.0104,-4.0933,-4.1491,-4.2033,-4.2286,-4.2286,-4.2286,-4.2286,-4.2286,-4.2286,-4.2286,-4.1999,-3.8091,-3.5825,-3.4726,-3.3592,-3.2797,-3.2459,-3.3558,-3.3744,-3.3766,-3.6017,-3.64,-3.5791,-3.5081,-3.4455,-3.3525,-3.1142,0.0,0.0,0.0,0.0,-3.2256,-3.3207,-3.4675,-3.6113,-3.6874,-3.7499,-3.7753,-3.7218,-3.618,-3.415,0.0,-2.9262,-2.84,-2.5592,0.0,0.0,0.0,0.0,-3.0717,-3.1647,-3.3355,-3.4776,-3.5515,-3.5115,-3.4404,-3.3491,-3.2899,-3.1935,-3.048,-2.9685,-2.8688,-2.7351,-2.5862,-2.4017,-2.1817,0.0,0.0,0.0,0.0,0.0,0.0,0.0,0.0,0.0,0.0,0.0,0.0,0.0,0.0,0.0,0.0,0.0,0.0,0.0,0.0,0.0,0.0,0.0,0.0,0.0,0.0,0.0,0.0,0.0,-2.6573,-2.8535,0.0,0.0,0.0,0.0,-3.092,-3.1701,-3.2767,-3.4201,-3.5746,-3.7235,-3.8667,-4.0155,-4.1288,-4.2066,-4.2134,-4.2202,-4.2236,-4.2269,-4.2286,-4.2286,-4.2286,-4.2286,-4.2286,-4.2286,-4.2286,-4.2117,-3.9783,-3.8785,-3.8497,-3.6276,-3.5414,-3.538,-3.5464,-3.5943,-3.6609,-3.6745,-3.6778,-3.6965,-3.8278,-3.7263,-3.5329,-3.4472,-3.3258,0.0,0.0,-3.3744,-3.4675,-3.6186,-3.666,-3.6948,-3.7669,-3.7872,-3.7889,-3.7855,-3.7787,-3.6823,0.0,-3.1461,-2.9989,-2.9803,0.0,-2.9044,-2.9668,-3.0548,-3.1664,-3.3102,-3.3998,-3.4776,-3.5515,-3.5566,-3.4957,-3.3525,-3.3372,-3.2713,-3.1241,-3.0446,-2.9702,-2.8925,-2.7419,-2.5541,-2.3325,-2.18,0.0,0.0,0.0,0.0,0.0,0.0,0.0,0.0,0.0,0.0,0.0,0.0,0.0,0.0,0.0,0.0,0.0,0.0,0.0,0.0,0.0,0.0,0.0,0.0,0.0,0.0,0.0,0.0,-3.0194,-3.185,0.0,-3.1492,-3.2324,-3.3237,-3.3981,-3.5622,-3.7066,-3.8065,-3.9537,-4.0561,-4.1102,-4.1627,-4.2506,-4.3785,-4.3785,-4.4276,-4.5196,-4.5196,-4.5196,-4.5196,-4.5196,-4.5196,-4.5196,-4.5196,-4.4925,-4.4384,-4.3115,-4.1999,-4.1035,-4.0223,-3.9918,-3.9918,-3.9918,-3.9783,-3.9631,-3.9631,-3.9309,-3.8928,-3.8971,-3.8125,-3.7019,-3.6772,-3.6315,-3.596,-3.6231,-3.6823,-3.7516,-3.8058,-3.8572,-3.8996,-3.9266,-3.9334,-3.9334,-3.9334,-3.8937,-3.8294,-3.7212,-3.5588,-3.3795,-3.185,-3.207,-3.2138,-3.097,-3.2239,-3.3508,-3.4032,-3.4759,-3.5318,-3.5566,-3.56,-3.4991,-3.3541,-3.3406,-3.278,-3.1292,-3.0514,-2.977,-2.9027,-2.7977,-2.637,-2.4152,-2.3137,-2.0991,0.0,0.0,0.0,0.0,0.0,0.0,0.0,0.0,0.0,0.0,0.0,0.0,0.0,0.0,0.0,0.0,0.0,0.0,0.0,0.0,0.0,0.0,0.0,0.0,0.0,0.0,-3.1664,-3.2903,-3.4573,-3.5351,-3.4624,-3.5656,-3.6705,-3.7425,-3.9123,-4.0324,-4.0823,-4.2252,-4.3091,-4.3091,-4.3555,-4.4327,-4.5343,-4.5359,-4.5821,-4.6786,-4.6786,-4.6786,-4.6786,-4.6786,-4.6786,-4.6786,-4.6786,-4.6515,-4.6024,-4.5534,-4.4722,-4.3707,-4.2692,-4.2286,-4.2286,-4.2286,-4.1982,-4.1576,-4.1576,-4.1085,-4.0375,-3.9901,-3.9242,-3.8633,-3.8633,-3.8633,-3.8633,-3.8633,-3.8988,-3.9385,-3.9385,-3.974,-4.0096,-4.0096,-4.0096,-4.0096,-4.0096,-3.9723,-3.9385,-3.9385,-3.8176,-3.6535,-3.4544,-3.4996,-3.5148,-3.3677,-3.4709,-3.5554,-3.5323,-3.5707,-3.591,-3.5616,-3.56,-3.4991,-3.3541,-3.3169,-3.2391,-3.092,-3.0142,-2.9279,-2.8282,-2.7723,-2.6387,-2.4169,-2.2885,-2.1143,-1.8888,0.0,0.0,0.0,0.0,0.0,0.0,0.0,0.0,0.0,0.0,0.0,0.0,0.0,0.0,0.0,0.0,0.0,0.0,0.0,0.0,0.0,0.0,0.0,-3.1638,-3.2726,-3.3795,-3.4573,-3.6637,-3.7736,-3.7049,-3.892,-4.0451,-4.1187,-4.1931,-4.2354,-4.2354,-4.3836,-4.4682,-4.4682,-4.6041,-4.6802,-4.6819,-4.6819,-4.6836,-4.6853,-4.6853,-4.6853,-4.6853,-4.6853,-4.6853,-4.6853,-4.6853,-4.6853,-4.6819,-4.6819,-4.6802,-4.6498,-4.3555,-4.2405,-4.2388,-4.2371,-4.2354,-4.232,-4.2303,-4.183,-4.1238,-4.1238,-4.0747,-4.0163,-4.0146,-4.013,-4.013,-4.0113,-4.0096,-4.0096,-4.0096,-4.0096,-4.0096,-4.0096,-4.0096,-4.0096,-4.0096,-4.0096,-4.0096,-4.0096,-3.8937,-3.7973,-3.7939,-3.7939,-3.7939,-3.7905,-3.7905,0.0,-3.6897,-3.6795,-3.6485,-3.5684,-3.56,-3.4991,-3.3541,-3.275,-3.1701,-3.0192,-2.9397,-2.8333,-2.6793,-2.6708,-2.5659,-2.3477,-2.1214,-1.9693,-1.8927,0.0,0.0,0.0,0.0,0.0,0.0,0.0,0.0,0.0,0.0,0.0,0.0,0.0,0.0,0.0,0.0,0.0,0.0,0.0,0.0,0.0,0.0,-3.3577,-3.3367,-3.4815,-3.6541,-3.8352,-3.958,-4.0426,-4.0773,-4.1339,-4.1779,-4.1982,-4.3227,-4.3972,-4.3972,-4.5365,-4.6194,-4.6194,-4.6583,-4.7056,-4.7597,-4.7614,-4.7868,-4.8392,-4.8392,-4.8392,-4.8392,-4.8392,-4.8392,-4.8392,-4.8392,-4.8105,-4.7614,-4.7614,-4.7293,-4.665,-4.5297,-4.4773,-4.4705,-4.4147,-4.3589,-4.3031,-4.2489,-4.2168,-4.1999,-4.1999,-4.1847,-4.1593,-4.1052,-4.0899,-4.0781,-4.0265,-4.0096,-4.0096,-4.0096,-4.0096,-4.0096,-4.0096,-4.0096,-4.0096,-4.0096,-4.0096,-4.0096,-4.0096,-3.9774,-3.9326,-3.8785,-3.87,-3.8514,-3.799,-3.7905,0.0,-3.6897,-3.6795,-3.6485,-3.5684,-3.56,-3.4991,-3.3541,-3.322,-3.2239,-3.0243,-2.9397,-2.8553,-2.7536,-2.6979,-2.5912,-2.422,-2.253,-2.1028,0.0,0.0,0.0,0.0,0.0,0.0,0.0,0.0,0.0,0.0,0.0,0.0,0.0,0.0,0.0,0.0,0.0,0.0,0.0,0.0,0.0,0.0,-3.4963,-3.6721,-3.6637,-3.7534,-3.8768,-4.0358,-4.1204,-4.1948,-4.2692,-4.3064,-4.3386,-4.369,-4.4823,-4.5529,-4.5529,-4.6616,-4.7259,-4.7259,-4.7564,-4.7936,-4.8376,-4.8376,-4.8595,-4.9001,-4.9001,-4.9001,-4.9001,-4.9001,-4.9001,-4.9001,-4.9001,-4.8765,-4.8376,-4.8376,-4.8122,0.0,0.0,0.0,0.0,0.0,-4.4282,-4.3842,-4.3403,-4.3031,-4.276,-4.276,-4.254,-4.2219,-4.1779,-4.166,-4.1508,-4.0764,-4.0544,-4.0476,-4.018,-4.0096,-4.0096,-4.0096,-4.0096,-4.0096,-4.0096,-4.0096,-4.0096,-4.0096,-4.0096,0.0,-3.9537,-3.9469,-3.9334,-3.8886,-3.8819,-3.8548,-3.7828,-3.7449,-3.6958,-3.6197,-3.5785,-3.5126,-3.3964,-3.3288,0.0,0.0,0.0,-2.801,-2.6911,-2.6167,0.0,0.0,0.0,0.0,0.0,0.0,0.0,0.0,-1.949,-1.912,0.0,0.0,0.0,0.0,0.0,0.0,0.0,0.0,0.0,0.0,0.0,0.0,0.0,0.0,0.0,0.0,-3.7864,-4.0001,-4.0474,-4.0502,-4.0704,-4.1373,-4.21,-4.2844,-4.3578,-4.4367,-4.5111,-4.5771,-4.6515,-4.6921,-4.6921,0.0,0.0,0.0,0.0,-4.9001,-4.9001,-4.9001,-4.9001,-4.9001,-4.9001,-4.9001,-4.9001,-4.9001,-4.9001,-4.9001,-4.9001,-4.9001,-4.9001,-4.9001,-4.9001,-4.8866,-4.7462,-4.6464,-4.5737,-4.4993,-4.4733,-4.4716,-4.4632,0.0,0.0,-4.3527,-4.3098,-4.2523,-4.2439,-4.2422,-4.2269,-4.1525,-4.1271,-4.1052,-4.0375,-4.0163,-4.0096,-4.0096,-4.0096,-4.0096,-4.0096,-4.0096,-4.0096,-4.0096,-4.0096,-4.0096,-4.0096,-4.0096,-4.0096,-4.0096,-4.0096,-3.9842,-3.9089,-3.843,-3.7702,-3.6897,0.0,0.0,-3.4556,-3.3309,-3.2158,-3.1258,-2.9161,-2.735,-2.6048,-2.5354,-2.4965,-2.488,-2.488,-2.4829,-2.4745,-2.4745,-2.5134,-2.5761,-2.2262,-2.1628,0.0,0.0,0.0,0.0,0.0,0.0,0.0,0.0,0.0,0.0,0.0,0.0,0.0,0.0,0.0,-3.8187,-3.9757,-4.0989,-4.1929,-4.2468,-4.2801,-4.2953,-4.3656,-4.4434,-4.5179,-4.5923,-4.643,-4.6583,-4.7276,-4.7699,-4.7699,-4.8392,-4.8798,-4.8798,-4.8934,-4.9001,-4.9001,-4.9001,-4.9001,-4.9001,0.0,0.0,-4.9001,-4.9001,-4.9001,-4.9001,-4.9001,-4.9001,-4.9001,-4.9001,-4.9001,-4.8917,-4.8037,-4.7242,-4.6498,-4.5754,-4.5483,-4.5399,-4.4818,-4.4513,-4.4378,-4.4378,-4.4276,-4.4012,-4.3386,-4.32,0.0,-4.2286,-4.166,-4.117,-4.1018,-4.057,-4.0096,-4.0096,-4.0096,-4.0096,-4.0096,-4.0096,-4.0096,-4.0096,-4.0096,-4.0096,-4.0096,-4.0096,-4.0096,-4.0096,-4.0096,-3.9842,-3.9089,-3.887,-3.8278,-3.6948,-3.666,-3.6017,-3.4607,-3.4235,-3.3237,-3.1309,-2.9668,-2.8654,-2.835,-2.8214,-2.7825,-2.7164,-2.7148,-2.6877,-2.6268,-2.6268,-2.6657,-2.7334,-2.5406,-2.5036,0.0,0.0,0.0,0.0,0.0,0.0,0.0,0.0,0.0,0.0,0.0,-3.3281,0.0,0.0,-3.8886,-4.0088,-4.1696,-4.2955,-4.3484,-4.4135,-4.4418,-4.4045,-4.4671,-4.5432,-4.6177,-4.6921,-4.7361,-4.7361,-4.8037,-4.846,-4.846,-4.8798,-4.9001,-4.9001,-4.9357,-4.9543,-4.9543,-4.9932,-5.0118,-5.0118,-5.0118,-5.0118,-5.0101,-4.9729,-4.9543,-4.9526,-4.9171,-4.9001,-4.9001,-4.9001,-4.9001,-4.8968,-4.8595,-4.8003,-4.7259,-4.6515,-4.6024,-4.5652,-4.528,-4.4891,-4.4615,-4.4615,-4.4615,-4.453,-4.4113,-4.3995,-4.3842,-4.3064,-4.232,-4.166,-4.1305,-4.0646,-4.0096,-4.0096,-4.0096,-4.0096,-4.0096,-4.0096,-4.0096,-4.0096,-4.0096,-4.0096,-4.0096,-4.0096,-4.0096,-4.0096,-4.0096,-3.9977,-3.9605,-3.9249,-3.8582,-3.7466,-3.7032,-3.6338,-3.5148,-3.4709,-3.3694,-3.187,-3.1058,-3.033,-2.9583,-2.955,-2.9194,-2.8416,-2.8399,-2.8213,-2.7859,-2.7859,-2.823,-2.8922,-2.8213,-2.7858,0.0,0.0,0.0,0.0,0.0,0.0,0.0,0.0,-3.188,-3.4449,-3.5642,-3.6787,-3.871,-4.0619,-4.1932,-4.2065,-4.3506,-4.4725,-4.5015,-4.5643,-4.5863,-4.5349,-4.5783,-4.6363,-4.6955,-4.7682,-4.8091,-4.8091,-4.8663,-4.9001,-4.9001,-4.9001,-4.9069,-4.9204,-4.9779,-5.0152,-5.0304,-5.0913,-5.1185,-5.1185,-5.1185,-5.1185,-5.1168,-5.0591,-5.0236,-5.005,-4.9323,-4.9001,-4.9001,-4.9001,-4.9001,-4.9001,-4.9001,-4.8646,-4.8007,-4.7293,-4.6633,-4.6092,-4.5805,-4.5314,-4.4801,-4.4649,-4.4615,-4.4615,-4.4615,-4.4615,-4.4479,-4.3826,-4.3098,-4.2337,-4.161,-4.0865,-4.0282,-4.013,-4.0096,-4.0096,-4.0096,-4.0096,-4.0096,-4.0096,-4.0096,-4.0096,-4.0096,-4.0096,-4.0096,-4.0096,-4.0096,-4.0096,-4.0096,-3.9588,-3.887,-3.799,-3.7364,-3.662,-3.5667,-3.4928,-3.3981,-3.2801,-3.2598,-3.1968,-3.0782,-3.0751,-3.0463,-2.9873,-2.9721,-2.9704,-2.9856,-2.9704,-3.0025,-3.0751,-3.0751,-3.0277,-2.862,-2.8601,0.0,-3.0632,-3.0522,-3.1201,0.0,0.0,-3.5371,-3.856,-3.9863,-4.093,-4.2584,-4.291,-4.3518,-4.5333,-4.5142,-4.5206,-4.6464,-4.7057,-4.7459,-4.7678,-4.7687,-4.7669,-4.7753,-4.8443,-4.8883,-4.8883,-4.8951,-4.9001,-4.9001,-4.9001,-4.9306,-4.9949,-5.005,-5.0405,-5.1082,-5.1166,-5.1185,-5.1185,-5.1185,-5.1185,-5.1185,-5.11,-5.0727,-5.005,-4.9323,-4.9001,-4.9001,-4.9001,-4.9001,-4.9001,-4.9001,-4.8951,-4.8798,-4.8054,-4.7703,-4.7479,-4.616,-4.5652,-4.5466,-4.479,-4.4615,-4.4615,-4.4615,-4.4615,-4.4581,-4.4496,-4.3893,-4.3115,-4.2371,-4.1627,-4.0916,-4.0265,-4.0096,-4.0096,-4.0096,-4.0096,-4.0096,-4.0096,-4.0096,-4.0096,-4.0096,-4.0096,-4.0096,-4.0096,-4.0096,-4.0096,-4.0096,-4.0028,-3.9453,-3.8058,-3.7838,-3.7195,-3.5718,-3.4928,-3.4421,-3.4252,-3.3643,-3.3203,-3.3051,-3.3034,-3.3,-3.2916,-3.2276,-3.2259,-3.2916,-3.2259,-3.2327,-3.3034,-3.3034,-3.2273,-3.1757,0.0,0.0,0.0,-3.3972,-3.511,-3.7624,-3.8028,-3.8505,-4.0818,-4.1937,-4.2768,-4.3689,-4.4702,-4.5662,0.0,-4.672,-4.7212,-4.8101,-4.8609,-4.868,-4.8158,-4.8802,-4.9105,-4.8575,-4.8877,-4.9077,-4.9001,-4.9517,-4.9738,-4.9644,-5.005,-5.0422,-5.0727,-5.115,-5.1522,-5.1843,-5.2317,-5.2553,-5.2553,-5.2553,-5.2553,-5.2536,-5.2063,-5.12,-5.0067,-4.9763,-4.9407,-4.9001,-4.9001,-4.9001,-4.9001,-4.9001,-4.9001,-4.8968,-4.8663,-4.8291,-4.7804,-4.7179,-4.643,-4.5652,-4.5331,-4.4942,-4.4615,-4.4615,-4.4615,-4.4615,-4.4615,-4.4012,-4.325,-4.2489,-4.1745,-4.1018,-4.0282,-4.0096,-4.0096,-4.0096,-4.0096,-4.0096,-4.0096,-4.0096,-4.0096,-4.0096,-4.0096,-4.0096,-4.0096,-4.0096,-4.0096,-4.0096,-4.0096,-3.9537,-3.8075,-3.7516,-3.6806,-3.5684,-3.5312,-3.5148,-3.5148,-3.4839,-3.4506,-3.4066,-3.4032,-3.3846,-3.3406,-3.3102,-3.3085,-3.3406,-3.3085,-3.3102,-3.3406,-3.3406,-3.3068,-3.3642,0.0,0.0,-3.5628,-3.711,-3.8429,-3.946,-4.0139,-4.102,-4.2635,-4.3589,-4.4326,-4.4835,-4.6206,0.0,-4.7409,-4.8088,-4.8823,-4.9589,-4.9902,-4.9704,-4.8756,-4.9495,-4.9856,-4.9313,-4.9389,-4.9522,-4.9593,-5.026,-5.0591,-5.0483,-5.0977,-5.1351,-5.1505,-5.2079,-5.2451,-5.2638,-5.3213,-5.3501,-5.3501,-5.3501,-5.3501,-5.3467,-5.2672,-5.1606,-5.0388,-5.0185,-4.9678,-4.9001,-4.9001,-4.9001,-4.9001,-4.9001,-4.9001,-4.9001,-4.9001,-4.8663,-4.8159,-4.7956,-4.7179,-4.6244,-4.5838,-4.5331,-4.4886,-4.4666,-4.4615,-4.4615,-4.4615,-4.4181,-4.3572,-4.2794,-4.2066,-4.1322,-4.0561,-4.0248,-4.0096,-4.0096,-4.0096,-4.0096,-4.0096,-4.0096,-4.0096,-4.0096,-4.0096,-4.0096,-4.0096,-4.0096,-4.0096,-4.0096,-3.9926,-3.9402,-3.8328,-3.7347,-3.6575,-3.5994,-3.5718,-3.56,-3.56,-3.56,-3.5346,-3.4827,-3.4793,-3.4556,-3.4032,-3.3812,-3.3812,-3.4015,-3.3812,-3.3812,-3.4015,-3.4015,-3.4015,0.0,0.0,-3.6578,-3.8193,-3.9203,-4.023,-4.1827,-4.2213,-4.269,-4.4305,-4.5278,-4.6067,-4.6855,-4.7314,-4.797,-4.9131,-4.9113,-4.9442,-5.0752,-5.0777,-5.0522,-5.0079,-4.9734,-4.9621,0.0,-5.0115,-5.0522,-5.1095,-5.1153,-5.1249,-5.1437,-5.1473,-5.1732,-5.2249,-5.2481,-5.2871,-5.3467,-5.3501,-5.3501,-5.3501,-5.3501,-5.3501,-5.3467,-5.2672,-5.1894,-5.115,-5.0405,-4.9678,-4.9001,-4.9001,-4.9001,-4.9001,-4.9001,-4.9001,-4.9001,-4.9001,-4.8984,-4.8866,-4.8142,-4.7855,-4.7584,-4.6177,-4.5686,-4.5534,-4.4835,-4.4615,-4.4615,-4.4615,-4.4581,-4.4395,-4.3589,-4.2828,-4.2066,-4.1339,-4.0612,-4.0096,-4.0096,-4.0096,-4.0096,-4.0096,-4.0096,-4.0096,-4.0096,-4.0096,-4.0096,-4.0096,-4.0096,-4.0096,-4.0096,-3.9486,-3.9005,-3.8954,-3.7675,-3.6795,-3.6778,-3.6045,-3.56,-3.56,-3.56,-3.5583,-3.5566,-3.5566,-3.5549,-3.5532,-3.4827,-3.4827,-3.5532,-3.481,-3.4827,-3.5532,-3.5532,-3.5532,0.0,0.0,-3.8285,-3.9884,-4.091,-4.1772,-4.2837,-4.3094,-4.324,-4.3791,-4.4544,-4.5204,-4.5461,-4.6468,-4.7784,-4.9293,-4.9849,-5.0492,-5.1764,-5.2105,-5.1511,-4.9613,-5.0121,0.0,0.0,0.0,0.0,-5.1095,-5.1826,-5.2224,-5.2175,-5.2806,-5.3234,-5.3425,-5.3359,-5.3429,-5.3634,-5.3551,-5.3501,-5.3501,-5.3501,-5.3501,-5.3501,-5.323,-5.2672,-5.1894,-5.115,-5.0405,-4.9678,-4.9204,-4.9001,-4.9001,-4.9001,-4.9001,-4.9001,-4.9001,-4.9001,-4.8968,-4.8731,-4.8325,-4.772,-4.6752,-4.6109,-4.5568,-4.4835,-4.4615,-4.4615,-4.4615,-4.4615,-4.4401,-4.3623,-4.3234,-4.2726,-4.1491,-4.1018,-4.0696,-4.0214,-4.0096,-4.0096,-4.0096,-4.0096,-4.0096,-4.0096,-4.0096,-4.0096,-4.0096,-4.0096,-4.0096,-4.0096,-3.9893,-3.9529,-3.9039,-3.8548,-3.8058,-3.7567,-3.6823,-3.64,-3.64,-3.591,-3.56,-3.56,-3.56,-3.56,-3.56,-3.5368,-3.5346,-3.56,-3.5346,-3.5346,-3.56,-3.56,-3.56,0.0,-3.856,-3.9955,-4.157,-4.2359,-4.2855,-4.3386,-4.3515,-4.3588,-4.3864,-4.4342,-4.4783,-4.5094,-4.5975,-4.7315,-4.928,-4.9955,-5.0783,-5.2444,-5.2656,-5.1988,-5.028,-5.0655,0.0,0.0,0.0,0.0,-5.1826,-5.2839,-5.3389,-5.3315,-5.3996,-5.4348,-5.4333,-5.4028,-5.3882,-5.3816,-5.3634,-5.3551,-5.3501,-5.3501,-5.3501,-5.3501,-5.3501,-5.3061,-5.2283,-5.1809,-5.1031,-5.005,-4.9593,-4.9238,-4.9001,-4.9001,-4.9001,-4.9001,-4.9001,-4.9001,-4.9001,-4.9001,-4.8697,-4.8139,-4.7124,-4.6481,-4.5906,-4.4919,-4.4615,-4.4615,-4.4615,-4.4615,-4.4496,-4.3961,-4.3639,-4.3088,-4.188,-4.139,-4.1001,-4.0265,-4.0096,-4.0096,-4.0096,-4.0096,-4.0096,-4.0096,-4.0096,-4.0096,-4.0096,-4.0096,-4.0096,-4.0096,-4.0096,-3.9926,-3.9453,-3.9157,-3.8802,-3.8328,-3.7618,-3.7178,-3.7178,-3.6468,-3.6028,-3.6028,-3.5752,-3.56,-3.56,-3.56,-3.56,-3.56,-3.56,-3.56,-3.56,-3.56,-3.56,-3.9313,-4.0579,-4.1589,-4.3112,-4.3515,-4.3515,-4.3515,-4.3515,-4.3699,-4.4433,-4.458,-4.48,0.0,0.0,-4.6581,-4.9078,-4.95,-5.0362,-5.2837,-5.2546,-5.205,0.0,0.0,0.0,0.0,0.0,0.0,-5.3333,0.0,-5.4622,-5.482,-5.5056,-5.5099,-5.4935,-5.4474,-5.4158,-5.4013,-5.3816,-5.3651,-5.3534,-5.3534,-5.3534,-5.3534,-5.3501,-5.3078,-5.235,-5.2317,-5.1471,-5.0135,-5.0101,-4.9661,-4.9001,-4.9001,-4.9001,-4.9001,-4.9001,-4.9001,-4.9001,-4.9001,-4.9001,-4.8765,-4.7276,-4.6786,-4.6515,-4.5055,-4.4615,-4.4615,-4.4615,-4.4615,-4.4615,-4.4615,-4.4028,-4.3284,-4.2523,-4.1796,-4.1052,-4.0333,-4.013,-4.0096,-4.0096,-4.0096,-4.0096,-4.0096,-4.0096,-4.0096,-4.0096,-4.0096,-4.0096,-4.0096,-4.0096,-4.0096,-4.0096,-3.9462,-3.9056,-3.9056,-3.8379,-3.7973,-3.7973,-3.7246,-3.6863,-3.6863,-3.6096,-3.565,-3.565,-3.5616,-3.56,-3.56,-3.56,-3.56,-3.56,-3.56,-3.56,-4.0304,-4.1827,-4.2983,-4.3387,-4.3515,-4.3515,-4.3515,-4.3515,-4.3387,-4.2983,-4.291,-4.28,0.0,0.0,0.0,-4.7352,-4.8765,0.0,-5.2876,-5.3023,0.0,0.0,0.0,-5.2913,-5.3702,-5.3794,0.0,0.0,-5.4778,-5.4923,-5.5573,-5.5866,-5.5755,-5.5296,-5.5026,-5.4645,-5.4158,-5.4013,-5.3932,-5.3866,-5.3866,-5.3866,-5.3866,-5.3734,-5.3549,-5.3311,-5.2603,-5.1775,-5.0879,-5.0321,-4.9661,-4.9001,-4.9001,-4.9001,-4.9001,-4.9001,-4.9001,-4.9001,-4.9001,-4.9001,-4.8765,-4.7276,-4.6786,-4.6515,-4.5055,-4.4615,-4.4615,-4.4615,-4.4615,-4.4615,-4.4615,-4.4462,-4.4096,-4.3318,-4.2557,-4.1813,-4.1068,-4.0476,-4.0096,-4.0096,-4.0096,-4.0096,-4.0096,-4.0096,-4.0096,-4.0096,-4.0096,-4.0096,-4.0096,-4.0096,-4.0096,-4.0096,-3.9943,-3.9825,-3.9825,-3.914,-3.8717,-3.8717,-3.8024,-3.7618,-3.7618,-3.6891,-3.6485,-3.6485,-3.591,-3.56,-3.56,-3.56,-3.56,-3.56,-3.56,-3.56,-4.1295,-4.28,-4.403,-4.403,-4.403,-4.392,-4.3588,-4.3222,-4.2635,-4.1479,-4.1534,0.0,0.0,0.0,0.0,0.0,0.0,0.0,-5.2325,-5.328,-5.3739,0.0,-5.4051,0.0,-5.4876,-5.4932,-5.5262,0.0,-5.5797,-5.5817,-5.6277,-5.653,-5.6394,-5.5801,-5.5698,-5.5437,-5.4991,-5.4918,-5.472,-5.4397,-5.4397,-5.4254,-5.3997,-5.3882,-5.3849,-5.3782,0.0,-5.2394,-5.128,-5.0888,-5.0028,-4.9001,-4.9001,-4.9001,-4.9001,-4.9001,-4.9001,-4.9001,-4.9001,-4.9001,-4.8815,-4.7665,-4.7056,-4.6583,-4.5415,-4.4869,-4.4615,-4.4615,-4.4615,-4.4615,-4.4615,-4.4615,-4.4412,-4.3578,-4.3098,-4.2489,-4.1441,-4.0865,-4.0476,-4.0163,-4.0096,-4.0096,-4.0096,-4.0096,-4.0096,-4.0096,-4.0096,-4.0096,-4.0096,-4.0096,-4.0096,-4.0096,-4.0096,-4.0096,-4.0096,-3.9723,-3.9486,-3.9486,-3.8785,-3.8379,-3.8379,-3.7371,-3.6795,-3.6795,-3.6349,-3.6129,-3.6129,-3.6129,-3.6129,-3.6129,-3.5752,-3.56,-4.2378,-4.3644,-4.4691,-4.4691,-4.4691,-4.447,-4.3534,-4.2708,-4.168,-4.0065,0.0,0.0,-3.8799,0.0,-4.258,-4.4397,0.0,-4.904,-5.1628,-5.328,-5.4326,-5.4528,-5.5262,-5.5794,-5.5904,-5.5904,-5.6198,-5.6914,-5.6969,-5.6969,-5.6969,-5.7115,-5.6964,-5.6438,-5.633,-5.6231,-5.6029,-5.6029,-5.568,-5.4983,-5.4983,-5.4662,-5.4063,-5.4045,-5.4013,-5.4013,-5.3878,0.0,-5.1505,-5.1403,-5.0459,-4.9063,-4.9063,-4.9063,-4.9032,-4.9063,-4.9063,-4.9032,-4.9063,-4.9063,-4.8944,-4.8156,-4.7411,-4.665,-4.5923,-4.5179,-4.4615,-4.4615,-4.4615,-4.4598,-4.4626,-4.4643,-4.4456,-4.3752,-4.3504,-4.3064,-4.1779,-4.1339,-4.0984,-4.0248,-4.0096,-4.0096,-4.0096,-4.0096,-4.0096,-4.0096,-4.0096,-4.0096,-4.0096,-4.0096,-4.0096,-4.0096,-4.0096,-4.0096,-4.0096,-4.0096,-4.0096,-4.0096,-3.9503,-3.914,-3.914,-3.7828,-3.71,-3.71,-3.6998,-3.6948,-3.6948,-3.6948,-3.6897,-3.6778,-3.6079,-3.5701,-4.3865,-4.4507,-4.4691,-4.4691,-4.4691,-4.4323,-4.2837,-4.1901,0.0,0.0,0.0,-3.8043,-3.7768,-3.9145,0.0,-4.4232,0.0,0.0,0.0,0.0,-5.3904,0.0,0.0,0.0,0.0,0.0,0.0,0.0,0.0,-5.7795,-5.7795,-5.7812,-5.7589,-5.6989,-5.6528,-5.6276,-5.6248,-5.6248,-5.5925,-5.5296,-5.5296,-5.5,-5.4416,-5.4239,-5.4175,-5.4108,-5.3234,0.0,-5.1612,-5.089,-5.0124,-4.9428,-4.9428,-4.9307,-4.9168,-4.9367,-4.9307,-4.9199,-4.9367,-4.9428,-4.9248,-4.8246,-4.7411,-4.665,-4.5923,-4.5179,-4.4615,-4.4615,-4.4615,-4.4643,-4.4737,-4.4765,-4.4714,-4.4578,-4.4085,-4.3522,-4.3098,-4.2066,-4.0984,-4.0248,-4.0096,-4.0096,-4.0096,-4.0096,-4.0096,-4.0096,-4.0096,-4.0096,-4.0096,-4.0096,-4.0096,-4.0096,-4.0096,-4.0096,-4.0096,-4.0096,-4.0096,-4.0096,-3.9977,-3.991,-3.991,-3.9097,-3.8616,-3.8616,-3.8024,-3.7719,-3.7719,-3.7719,-3.7398,-3.6795,-3.666,-3.6231,-4.4378,-4.5021,-4.5333,-4.5333,-4.5333,-4.469,-4.2231,0.0,0.0,0.0,0.0,-3.6611,-3.5748,0.0,0.0,0.0,0.0,0.0,0.0,0.0,0.0,0.0,0.0,0.0,0.0,0.0,0.0,0.0,0.0,-5.7997,-5.7997,-5.7684,-5.7546,-5.7589,-5.7015,-5.6861,-5.7184,-5.7184,-5.6887,-5.6267,-5.6267,-5.5981,-5.5414,-5.5013,-5.4799,-5.4765,-5.3527,0.0,-5.1799,-5.1001,-5.0218,-4.9518,-4.9518,-4.9458,-4.935,-4.9441,-4.9458,-4.935,-4.9458,-4.9518,-4.9436,-4.8899,-4.7908,-4.6835,-4.6409,-4.5483,-4.4598,-4.4682,-4.4709,-4.472,-4.4886,-4.4896,-4.4886,-4.4803,-4.416,-4.3417,-4.2912,-4.2018,-4.1087,-4.0366,-4.0213,-4.0213,-4.0213,-4.0163,-4.0096,-4.0096,-4.0096,-4.0096,-4.0096,-4.0096,-4.0096,-4.0096,-4.0096,-4.0096,-4.0096,-4.0096,-4.0096,-4.0096,-4.0096,-4.0096,-4.0096,-3.9402,-3.8988,-3.8988,-3.865,-3.8464,-3.8464,-3.8464,-3.8294,-3.7946,-3.7533,-3.7178,-4.469,-4.5424,-4.5902,-4.5902,-4.5902,-4.5002,-4.1625,-4.0212,0.0,0.0,0.0,0.0,-3.4266,0.0,0.0,0.0,0.0,0.0,0.0,0.0,0.0,0.0,0.0,0.0,0.0,0.0,0.0,0.0,0.0,0.0,-5.7997,-5.7546,-5.7498,-5.7997,-5.7546,-5.7522,-5.7997,-5.7997,-5.7703,-5.7116,-5.7116,-5.6817,-5.6276,-5.5801,-5.5501,-5.5278,-5.4015,0.0,0.0,-5.1308,-5.0576,-4.9936,-4.9936,-4.9919,-4.989,-4.9936,-4.9919,-4.989,-4.9936,-4.9936,-4.989,-4.959,-4.8367,-4.7031,-4.6932,-4.5869,-4.4709,-4.4803,-4.4831,-4.4886,-4.5005,-4.5032,-4.5005,-4.4913,-4.4317,-4.3535,-4.2799,-4.2132,-4.1461,-4.0712,-4.0457,-4.0337,-4.0337,-4.0238,-4.0138,-4.0138,-4.0138,-4.0096,-4.0096,-4.0096,-4.0096,-4.0096,-4.0096,-4.0096,-4.0096,-4.0096,-4.0096,-4.0096,-4.0096,-4.0096,-4.0096,-3.9529,-3.9225,-3.9225,-3.9225,-3.9225,-3.9225,-3.9225,-3.914,-3.8988,-3.8413,-3.7973,-4.5369,-4.5847,-4.5902,-4.5902,-4.5902,-4.4874,-4.091,0.0,0.0,0.0,-3.4472,-3.4211,-3.4784,0.0,0.0,0.0,0.0,0.0,0.0,0.0,0.0,0.0,0.0,0.0,0.0,0.0,0.0,0.0,0.0,0.0,-5.7997,-5.795,-5.7932,-5.7997,-5.795,-5.7932,-5.7997,-5.7997,-5.7703,-5.7116,-5.7116,-5.6817,-5.6303,-5.6248,-5.5819,-5.508,-5.4099,0.0,0.0,-5.1625,-5.1314,-5.1398,-5.1398,-5.1286,-5.1173,-5.1355,-5.1286,-5.1155,-5.1355,-5.1398,-5.1197,-4.9845,-4.8398,-4.7187,-4.7158,-4.6146,-4.4968,-4.4978,-4.4978,-4.5005,-4.5167,-4.5177,-4.5177,-4.5167,-4.4991,-4.4643,-4.3909,-4.3141,-4.2356,-4.1613,-4.0946,-4.0485,-4.0485,-4.0362,-4.028,-4.028,-4.0188,-4.0096,-4.0096,-4.0096,-4.0096,-4.0096,-4.0096,-4.0096,-4.0096,-4.0096,-4.0096,-4.0096,-4.0096,-4.0096,-4.0096,-4.0028,-3.9994,-3.9994,-3.9994,-3.9994,-3.9994,-3.9994,-3.9656,-3.8988,-3.892,-3.8176,-4.4745,-4.5186,-4.5186,-4.5186,-4.5186,-4.4121,-4.0084,0.0,0.0,-3.489,-3.4027,-3.3899,-3.4229,-3.4949,0.0,0.0,0.0,0.0,0.0,0.0,0.0,0.0,0.0,0.0,0.0,0.0,0.0,0.0,0.0,0.0,-5.7997,-5.7997,-5.7997,-5.7997,-5.7997,-5.7997,-5.7997,-5.7997,-5.7886,-5.7637,-5.7637,-5.7522,-5.7327,-5.6938,-5.6333,-5.5515,-5.4346,0.0,0.0,-5.1828,-5.1533,-5.1601,-5.1601,-5.1551,-5.149,-5.1576,-5.1551,-5.149,-5.1576,-5.1601,-5.1376,-4.9987,-4.8995,-4.8172,-4.6904,-4.5815,-4.5005,-4.5113,-4.5113,-4.5167,-4.5274,-4.5274,-4.5203,-4.5203,-4.5113,-4.4817,-4.4065,-4.3348,-4.2612,-4.1858,-4.1121,-4.0624,-4.0624,-4.051,-4.0412,-4.0412,-4.0387,-4.032,-4.032,-4.032,-4.032,-4.032,-4.0213,-4.0096,-4.0096,-4.0096,-4.0096,-4.0096,-4.0096,-4.0096,-4.0096,-4.0096,-4.0096,-4.0096,-4.0096,-4.0096,-4.0096,-4.0096,-3.996,-3.9673,-3.9673,-3.9351,-4.392,-4.4525,-4.4691,-4.4691,-4.4525,-4.3351,0.0,0.0,-3.7477,-3.4431,-3.3807,-3.3807,-3.3807,-3.4454,-3.5738,0.0,0.0,0.0,0.0,0.0,0.0,0.0,0.0,0.0,0.0,0.0,0.0,0.0,0.0,0.0,0.0,-5.7997,-5.7997,-5.7997,-5.7997,-5.7997,-5.7997,-5.7997,-5.7997,-5.7997,-5.7997,-5.7997,-5.7997,-5.7309,-5.6576,-5.5758,-5.4555,0.0,0.0,-5.2294,-5.206,-5.206,-5.206,-5.206,-5.206,-5.206,-5.206,-5.206,-5.206,-5.194,-5.1503,-5.0151,-4.9423,-4.8734,-4.6881,-4.5882,-4.5398,-4.5641,-4.5589,-4.552,-4.5598,-4.5459,-4.5274,-4.5274,-4.5194,-4.4976,-4.4462,-4.3632,-4.2849,-4.2316,-4.1439,-4.0769,-4.0769,-4.0631,-4.0558,-4.0558,-4.0534,-4.051,-4.051,-4.051,-4.0468,-4.0436,-4.0288,-4.0163,-4.0163,-4.0138,-4.0096,-4.0096,-4.0096,-4.0096,-4.0096,-4.0096,-4.0096,-4.0096,-4.0096,-4.0096,-4.0096,-4.0096,-4.0096,-4.0096,-4.0096,-3.9994,-4.3075,-4.4085,-4.4691,-4.4691,-4.4103,-4.2671,0.0,-3.8065,-3.6813,-3.4302,-3.3807,-3.3807,-3.3807,-3.4454,-3.5555,0.0,0.0,0.0,0.0,0.0,0.0,0.0,0.0,0.0,0.0,0.0,0.0,0.0,0.0,0.0,0.0,-5.7997,-5.7997,-5.7997,-5.7997,-5.7997,-5.7997,-5.7997,-5.7997,-5.7997,-5.7997,-5.7997,-5.796,-5.7189,-5.6363,0.0,0.0,0.0,0.0,-5.3203,-5.3185,-5.3185,-5.3185,-5.3185,-5.3185,-5.3185,-5.3185,-5.3185,-5.3185,-5.2653,-5.1765,-5.0428,-4.9477,-4.8573,-4.7295,-4.6554,-4.6266,-4.6747,-4.6554,-4.6186,-4.6186,-4.5803,-4.5397,-4.5397,-4.5397,-4.5397,-4.5397,-4.4234,-4.3189,-4.3189,-4.1947,-4.0912,-4.0912,-4.0793,-4.0697,-4.0697,-4.0583,-4.051,-4.051,-4.051,-4.0461,-4.033,-4.0305,-4.0305,-4.0305,-4.0188,-4.0096,-4.0096,-4.0096,-4.0096,-4.0096,-4.0096,-4.0096,-4.0096,-4.0096,-4.0096,-4.0096,-4.0096,-4.0096,-4.0096,-4.0096,-3.9723,-3.9982,-4.0832,-4.1295,-4.0744,-4.0818,-4.0341,-3.7661,-3.729,-3.6795,-3.4302,-3.3807,-3.3807,-3.3807,-3.4009,-3.5275,-3.8612,0.0,0.0,0.0,0.0,0.0,0.0,0.0,0.0,0.0,0.0,0.0,0.0,0.0,0.0,0.0,-5.7997,-5.7997,-5.7997,-5.7997,-5.7997,-5.7997,-5.7997,-5.7997,-5.7997,-5.7997,-5.7703,-5.7171,-5.6932,-5.6069,0.0,0.0,0.0,0.0,-5.3185,-5.3185,-5.3185,-5.3185,-5.3185,-5.3185,-5.3185,-5.3185,-5.3112,-5.2564,-5.2197,-5.1694,-4.9792,-4.9273,-4.9111,-4.7781,-4.7049,-4.6701,-4.6863,-4.6794,-4.6678,-4.6678,-4.6315,-4.5955,-4.5955,-4.5667,-4.5397,-4.5397,-4.4234,-4.3189,-4.3189,-4.1947,-4.0912,-4.0912,-4.0847,-4.084,-4.084,-4.0799,-4.0776,-4.0776,-4.0776,-4.0752,-4.0704,-4.0624,-4.0478,-4.0188,-4.0121,-4.0096,-4.0096,-4.0096,-4.0096,-4.0096,-4.0096,-4.0096,-4.0096,-4.0096,-4.0096,-4.0096,-4.0096,-4.0096,-4.0096,-4.0096,-3.9411,0.0,-3.8655,-3.9359,-3.8848,-3.8885,-3.8521,-3.675,-3.6446,-3.6028,-3.4174,-3.3807,-3.3807,-3.3807,-3.4045,-3.5202,-3.8065,0.0,0.0,0.0,0.0,0.0,0.0,0.0,0.0,0.0,0.0,0.0,0.0,0.0,0.0,-5.7997,-5.7997,-5.7997,-5.7997,-5.7997,-5.7997,-5.7997,-5.7997,-5.785,-5.7556,-5.7556,-5.7134,-5.6345,-5.6033,-5.5354,0.0,0.0,0.0,0.0,-5.3185,-5.3185,-5.3185,-5.3185,-5.3185,-5.3185,-5.3185,-5.3023,-5.2674,-5.216,-5.1591,-5.0872,-4.9544,-4.9117,-4.8946,-4.8121,-4.7671,-4.7378,-4.7204,-4.716,-4.716,-4.716,-4.6817,-4.6459,-4.6459,-4.6217,-4.5875,-4.5578,-4.4554,-4.3617,-4.3296,-4.2085,-4.1117,-4.1117,-4.1012,-4.0912,-4.0912,-4.0912,-4.0912,-4.0912,-4.0912,-4.0888,-4.084,-4.0745,-4.0576,-4.0288,-4.0246,-4.0246,-4.0246,-4.0246,-4.0246,-4.0246,-4.0213,-4.0188,-4.0188,-4.0138,-4.0096,-4.0096,-4.0096,-4.0096,-4.0096,-3.9808,-3.9326,0.0,-3.6983,-3.828,-3.8295,-3.7772,-3.7063,-3.6384,-3.5593,0.0,-3.3972,-3.3807,-3.3844,-3.3954,-3.4491,-3.5298,-3.645,0.0,0.0,0.0,0.0,0.0,0.0,0.0,0.0,0.0,0.0,0.0,0.0,0.0,0.0,-5.7923,-5.7905,-5.7886,-5.7831,-5.7831,-5.7886,-5.7997,-5.7941,-5.7538,-5.6804,-5.6748,-5.629,-5.5504,-5.473,-5.4363,0.0,0.0,0.0,0.0,-5.3185,-5.3185,-5.3185,-5.3185,-5.3167,-5.3115,-5.3115,-5.2619,-5.1903,-5.1848,-5.0859,-4.9592,-4.9537,-4.8948,-4.8306,-4.8306,-4.8306,-4.821,-4.7775,-4.7653,-4.7653,-4.7653,-4.7291,-4.6954,-4.6954,-4.6931,-4.6712,-4.594,-4.5124,-4.4285,-4.3529,-4.2391,-4.1539,-4.1512,-4.1186,-4.0918,-4.0894,-4.0912,-4.0912,-4.0912,-4.0912,-4.0864,-4.0721,-4.0721,-4.0673,-4.0534,-4.051,-4.051,-4.051,-4.051,-4.051,-4.0485,-4.0379,-4.0305,-4.0305,-4.0163,-4.0096,-4.0096,-4.0096,-4.0096,-4.0079,-3.9394,-3.9436,-2.9832,0.0,-3.3239,-3.3419,-3.4085,-3.471,0.0,-3.4788,0.0,0.0,0.0,0.0,0.0,0.0,0.0,0.0,0.0,0.0,0.0,0.0,0.0,0.0,0.0,0.0,0.0,0.0,0.0,0.0,0.0,-5.7721,-5.7116,-5.7079,-5.6804,-5.618,-5.6143,-5.6748,-5.7997,-5.7391,-5.6987,-5.6804,-5.618,-5.5464,-5.4675,-5.4491,-5.4069,0.0,0.0,0.0,-5.3185,-5.3185,-5.3185,-5.3185,-5.3185,-5.2821,-5.227,-5.227,-5.1775,-5.0986,-5.0381,-4.9922,-4.95,-4.882,-4.8471,-4.8306,-4.8306,-4.8306,-4.8287,-4.8172,-4.8132,-4.8132,-4.8132,-4.7795,-4.7442,-4.7442,-4.716,-4.6855,-4.6676,-4.5499,-4.4446,-4.425,-4.3041,-4.1927,-4.1561,-4.1423,-4.126,-4.0942,-4.0912,-4.0912,-4.0912,-4.0912,-4.0888,-4.0864,-4.0847,-4.084,-4.0799,-4.0631,-4.051,-4.051,-4.051,-4.0461,-4.0337,-4.033,-4.0238,-4.0163,-4.0113,-4.0096,-4.0096,-4.0096,-4.0096,-4.0096,-3.9926,-3.9639,-2.6882,-2.9533,-3.2169,-3.2341,-3.3178,-3.407,-3.4484,0.0,0.0,0.0,0.0,0.0,0.0,0.0,0.0,0.0,0.0,0.0,0.0,0.0,0.0,0.0,0.0,0.0,0.0,0.0,0.0,0.0,0.0,-5.7097,-5.629,-5.6253,-5.6051,-5.5592,-5.5614,-5.6014,-5.6877,-5.6473,-5.6069,-5.5702,-5.5262,-5.4638,-5.3849,-5.3849,-5.361,0.0,0.0,0.0,-5.3185,-5.3185,-5.3185,-5.317,-5.2803,-5.238,-5.1958,-5.1591,-5.093,-5.0178,-4.9757,-4.9353,-4.893,-4.8453,-4.8306,-4.8306,-4.8306,-4.8306,-4.8306,-4.8306,-4.8306,-4.8306,-4.8306,-4.8113,-4.7917,-4.7917,-4.7733,-4.7437,-4.7054,-4.6026,-4.5014,-4.467,-4.3464,-4.2378,-4.1906,-4.1648,-4.1356,-4.0965,-4.0912,-4.0912,-4.0912,-4.0912,-4.0965,-4.1163,-4.1186,-4.126,-4.1485,-4.1169,-4.0884,-4.0704,-4.068,-4.0655,-4.0583,-4.0527,-4.0412,-4.0271,-4.0271,-4.0271,-4.0271,-4.0271,-4.0271,-4.0271,-4.0271,-4.0042,-2.5744,-2.933,-3.2878,-3.2649,-3.3329,-3.4239,0.0,0.0,0.0,0.0,0.0,0.0,0.0,0.0,0.0,0.0,0.0,0.0,0.0,0.0,0.0,0.0,0.0,0.0,0.0,0.0,0.0,0.0,0.0,-5.6271,-5.5445,-5.5409,-5.5354,-5.5225,-5.5225,-5.5225,-5.5225,-5.5354,-5.506,-5.4399,-5.4289,-5.3867,-5.3185,-5.3185,-5.3185,-5.3185,0.0,0.0,-5.3185,-5.3185,-5.3133,-5.2968,-5.227,-5.1848,-5.1536,-5.0875,-5.0086,-4.9408,-4.9408,-4.8912,-4.8306,-4.8306,-4.8306,-4.8306,-4.8306,-4.8306,-4.8306,-4.8306,-4.8306,-4.8306,-4.8306,-4.8306,-4.8306,-4.8306,-4.8306,-4.8122,-4.7424,-4.6636,-4.5847,-4.5057,-4.3962,-4.3008,-4.2416,-4.1969,-4.1561,-4.1163,-4.1088,-4.1088,-4.1088,-4.1088,-4.1232,-4.1561,-4.1604,-4.1756,-4.2157,-4.1778,-4.1356,-4.0995,-4.0918,-4.0888,-4.0864,-4.0745,-4.0624,-4.051,-4.051,-4.051,-4.051,-4.051,-4.051,-4.051,-4.051,-4.0436,-2.7882,-3.078,-3.2695,-3.0781,-3.2249,-3.4179,0.0,0.0,0.0,0.0,0.0,0.0,0.0,0.0,0.0,0.0,0.0,0.0,0.0,0.0,0.0,0.0,0.0,0.0,0.0,0.0,0.0,0.0,0.0,-5.5427,-5.4638,-5.4583,-5.4271,-5.3592,-5.3573,-5.3573,-5.3573,-5.4234,-5.4528,-5.4399,-5.372,-5.3314,-5.3185,-5.3185,-5.3185,-5.3185,0.0,-5.3185,-5.3185,-5.3185,-5.2803,-5.216,-5.205,-5.1171,-4.9959,-4.9831,-4.9242,-4.8508,-4.8508,-4.8416,-4.8306,-4.8306,-4.8306,-4.8306,-4.8306,-4.8306,-4.8306,-4.8306,-4.8306,-4.8306,-4.8306,-4.8306,-4.8306,-4.8306,-4.8306,-4.8269,-4.8141,-4.748,-4.6672,-4.5865,-4.5022,-4.4072,-4.2972,-4.2731,-4.2536,-4.2071,-4.2008,-4.2008,-4.2008,-4.2008,-4.2011,-4.2074,-4.2095,-4.2115,-4.2198,-4.1778,-4.1472,-4.1401,-4.1088,-4.0864,-4.0745,-4.0607,-4.0534,-4.051,-4.051,-4.051,-4.051,-4.051,-4.051,-4.051,-4.051,-4.0485,-2.6701,-2.9471,-3.1854,-3.1242,-3.3668,-3.617,0.0,0.0,0.0,0.0,0.0,0.0,0.0,0.0,0.0,0.0,0.0,0.0,0.0,0.0,0.0,0.0,0.0,0.0,0.0,0.0,0.0,0.0,0.0,0.0,-5.3794,-5.3757,-5.3592,-5.3203,-5.3185,-5.3185,-5.3185,-5.3573,-5.3757,-5.3757,-5.339,-5.3185,-5.3185,-5.3185,-5.3185,-5.3185,0.0,-5.2968,-5.2546,-5.2546,-5.2087,-5.1316,-5.0877,-5.0253,-4.9537,-4.9058,-4.8636,-4.8306,-4.8306,-4.8306,-4.8306,-4.8306,-4.8306,-4.8306,-4.8306,-4.8306,-4.8306,-4.8306,-4.8306,-4.8306,-4.8306,-4.8306,-4.8306,-4.8306,-4.8306,-4.8306,-4.8306,-4.7663,-4.6984,-4.6617,-4.5535,-4.4455,-4.3683,-4.3191,-4.2731,-4.2277,-4.2198,-4.2198,-4.2198,-4.2198,-4.2297,-4.2537,-4.2595,-4.2673,-4.2884,-4.2518,-4.1966,-4.1232,-4.0995,-4.0965,-4.114,-4.1076,-4.1151,-4.1405,-4.1428,-4.1428,-4.1405,-4.1174,-4.1053,-4.103,-4.083,-4.068,-2.6692,-2.9176,-3.1842,-3.2628,0.0,0.0,0.0,0.0,0.0,0.0,0.0,0.0,0.0,0.0,0.0,0.0,0.0,0.0,0.0,0.0,0.0,0.0,0.0,0.0,0.0,0.0,0.0,0.0,0.0,0.0,-5.3222,-5.3185,-5.3185,-5.3185,-5.3185,-5.3185,-5.3185,-5.3185,-5.3185,-5.3185,-5.3185,-5.3185,-5.3185,-5.3185,-5.3185,-5.3185,-5.3004,-5.2564,-5.1977,-5.1793,-5.1242,-5.0453,-4.9849,-4.9482,-4.9225,-4.8545,-4.8306,-4.8306,-4.8306,-4.8306,-4.8306,-4.8306,-4.8306,-4.8306,-4.8306,-4.8306,-4.8306,-4.8306,-4.8306,-4.8306,-4.8306,-4.8306,-4.8306,-4.8306,-4.8306,-4.8306,-4.8306,-4.781,-4.7333,-4.7131,-4.5938,-4.4803,-4.4324,-4.3577,-4.292,-4.2577,-4.25,-4.25,-4.25,-4.25,-4.2635,-4.2995,-4.3032,-4.3142,-4.3339,-4.3087,-4.2398,-4.1277,-4.1209,-4.1328,-4.1648,-4.167,-4.1821,-4.2177,-4.2198,-4.2198,-4.2198,-4.1735,-4.1494,-4.1494,-4.1088,-4.084,-3.0794,-3.2391,-3.3771,-3.4434,0.0,0.0,0.0,0.0,0.0,0.0,0.0,0.0,0.0,0.0,0.0,0.0,0.0,0.0,0.0,0.0,0.0,0.0,0.0,0.0,0.0,0.0,0.0,0.0,0.0,0.0,-5.3185,-5.3185,-5.3185,-5.3185,-5.3185,-5.3185,-5.3185,-5.3185,-5.3185,-5.3185,-5.3185,-5.3185,-5.3185,-5.3185,-5.3185,-5.317,-5.2417,-5.205,-5.194,-5.1187,-5.0398,-4.9684,-4.9629,-4.9095,-4.8398,-4.8324,-4.8306,-4.8306,-4.8306,-4.8306,-4.8306,-4.8306,-4.8306,-4.8306,-4.8306,-4.8306,-4.8306,-4.8306,-4.8306,-4.8306,-4.8306,-4.8306,-4.8306,-4.8306,-4.8306,-4.8306,-4.8306,-4.8251,-4.7975,-4.7241,-4.6416,-4.5572,-4.4801,-4.3995,-4.3444,-4.341,-4.341,-4.341,-4.341,-4.341,-4.3427,-4.3444,-4.3463,-4.3322,-4.2957,-4.2919,-4.2673,-4.2136,-4.2113,-4.2115,-4.2136,-4.2136,-4.2157,-4.2198,-4.2198,-4.2198,-4.2198,-4.1735,-4.1494,-4.1494,-4.1088,-4.0894,-2.9781,-3.1045,-3.2527,-3.4497,0.0,0.0,0.0,0.0,0.0,0.0,0.0,0.0,0.0,0.0,0.0,0.0,0.0,0.0,0.0,0.0,0.0,0.0,0.0,0.0,0.0,0.0,0.0,0.0,0.0,0.0,-5.3185,-5.3185,-5.3185,-5.3185,-5.2711,-5.2454,-5.2454,-5.1958,-5.172,-5.172,-5.2729,-5.2949,-5.2454,-5.2454,-5.2179,-5.1701,-5.1389,-5.0967,-5.0492,-5.0198,-4.9554,-4.8783,-4.8783,-4.86,-4.8306,-4.8306,-4.8306,-4.8306,-4.8306,-4.8306,-4.8306,-4.8306,-4.8306,-4.8306,-4.8306,-4.8306,-4.8306,-4.8306,-4.8306,-4.8306,-4.8306,-4.8306,-4.8306,-4.8306,-4.8306,-4.8306,-4.8306,-4.8306,-4.8067,-4.7259,-4.6452,-4.5645,-4.4838,-4.403,-4.3515,-4.3515,-4.3515,-4.3515,-4.3515,-4.3515,-4.3515,-4.3515,-4.3515,-4.3427,-4.3286,-4.3268,-4.3196,-4.3032,-4.25,-4.2338,-4.2634,-4.2634,-4.2751,-4.2995,-4.3014,-4.3014,-4.3014,-4.2577,-4.2378,-4.2358,-4.1924,-4.1709,-2.9417,-3.0682,-3.2346,0.0,0.0,0.0,0.0,0.0,0.0,0.0,0.0,0.0,0.0,0.0,0.0,0.0,0.0,0.0,0.0,0.0,0.0,0.0,0.0,0.0,0.0,0.0,0.0,0.0,0.0,0.0,0.0,-5.2433,-5.2433,-5.2433,-5.1903,-5.161,-5.161,-5.1077,-5.0802,-5.082,-5.1922,-5.216,-5.161,-5.161,-5.1316,-5.0784,-5.0527,-5.0105,-4.9574,-4.9317,-4.8838,-4.8306,-4.8306,-4.8306,-4.8306,-4.8306,-4.8306,-4.8306,-4.8306,-4.8306,-4.8306,-4.8306,-4.8306,-4.8306,-4.8306,-4.8306,-4.8306,-4.8306,-4.8306,-4.8306,-4.8306,-4.8306,-4.8306,-4.8306,-4.8306,-4.8306,-4.8306,-4.8104,-4.7755,-4.7204,-4.625,-4.5351,-4.4783,-4.403,-4.3515,-4.3515,-4.3515,-4.3515,-4.3515,-4.3515,-4.3515,-4.3515,-4.3515,-4.3515,-4.3515,-4.3515,-4.3515,-4.3515,-4.294,-4.2751,-4.3069,-4.3105,-4.3232,-4.3479,-4.3515,-4.3515,-4.3515,-4.3105,-4.2901,-4.2882,-4.2418,-4.2198,-3.0573,-3.2107,0.0,0.0,0.0,0.0,0.0,0.0,0.0,0.0,0.0,0.0,0.0,0.0,0.0,0.0,0.0,0.0,0.0,0.0,0.0,0.0,0.0,0.0,0.0,0.0,0.0,0.0,0.0,0.0,0.0,-5.0802,-5.0802,-5.0802,-5.0802,-5.0802,-5.0802,-5.0784,-5.0784,-5.0784,-5.0784,-5.0784,-5.0802,-5.0802,-5.0784,-5.0729,-4.9941,-4.9592,-4.9519,-4.8655,-4.8306,-4.8306,-4.8306,-4.8306,-4.8306,-4.8306,-4.8306,-4.8306,-4.8306,-4.8306,-4.8306,-4.8306,-4.8306,-4.8306,-4.8306,-4.8306,-4.8306,-4.8306,-4.8306,-4.8306,-4.8306,-4.8306,-4.8306,-4.8306,-4.8306,-4.8306,-4.8306,-4.7663,-4.7094,-4.7076,-4.5792,-4.4691,-4.4691,-4.403,-4.3515,-4.3515,-4.3515,-4.3515,-4.3515,-4.3515,-4.3515,-4.3515,-4.3515,-4.3515,-4.3515,-4.3515,-4.3515,-4.3515,-4.3515,-4.3515,-4.3515,-4.3515,-4.3515,-4.3515,-4.3515,-4.3515,-4.3515,-4.3087,-4.2919,-4.2882,-4.2438,-4.2198,-2.9762,0.0,0.0,0.0,0.0,0.0,0.0,0.0,0.0,0.0,0.0,0.0,0.0,0.0,0.0,0.0,0.0,0.0,0.0,0.0,0.0,0.0,0.0,0.0,0.0,0.0,0.0,0.0,0.0,0.0,0.0,-5.0802,-5.0802,-5.0802,-5.0251,-4.9978,-4.9978,-4.9352,-4.904,-4.904,-4.904,-4.937,-4.9978,-4.9978,-4.9609,-4.904,-4.8783,-4.8691,-4.8673,-4.8416,-4.8306,-4.8306,-4.8306,-4.8306,-4.8306,-4.8306,-4.8306,-4.8306,-4.8306,-4.8306,-4.8306,-4.8306,-4.8306,-4.8306,-4.8306,-4.8306,-4.8306,-4.8306,-4.8306,-4.8306,-4.8306,-4.8306,-4.8306,-4.8306,-4.8306,-4.8141,-4.7571,-4.7278,-4.6764,-4.5627,-4.5021,-4.4525,-4.3956,-4.3644,-4.3515,-4.3515,-4.3515,-4.3515,-4.3515,-4.3515,-4.3515,-4.3515,-4.3515,-4.3515,-4.3515,-4.3515,-4.3515,-4.3515,-4.3515,-4.3515,-4.3515,-4.3515,-4.3515,-4.3515,-4.3515,-4.3515,-4.3515,-4.3375,-4.3322,-4.3322,-4.3178,-4.3105,-3.0788,0.0,0.0,0.0,0.0,0.0,0.0,0.0,0.0,0.0,0.0,0.0,0.0,0.0,0.0,0.0,0.0,0.0,0.0,0.0,0.0,0.0,0.0,0.0,0.0,0.0,0.0,0.0,0.0,0.0,0.0,-4.9811,-4.9811,-4.9811,-4.9334,-4.9077,-4.9077,-4.8563,-4.8306,-4.8306,-4.8306,-4.8581,-4.9077,-4.9077,-4.8802,-4.8306,-4.8306,-4.8306,-4.8306,-4.8306,-4.8306,-4.8306,-4.8306,-4.8306,-4.8306,-4.8306,-4.8306,-4.8306,-4.8306,-4.8306,-4.8306,-4.8306,-4.8306,-4.8306,-4.8306,-4.8306,-4.8306,-4.8306,-4.8306,-4.8306,-4.8306,-4.8306,-4.8306,-4.8306,-4.8306,-4.8067,-4.7278,-4.6856,-4.6232,-4.4948,-4.4452,-4.4066,-4.3588,-4.3515,-4.3515,-4.3515,-4.3515,-4.3515,-4.3515,-4.3515,-4.3515,-4.3515,-4.3515,-4.3515,-4.3515,-4.3515,-4.3515,-4.3515,-4.3515,-4.3515,-4.3515,-4.3515,-4.3515,-4.3515,-4.3515,-4.3515,-4.3515,-4.3515,-4.3515,-4.3515,-4.3515,-4.3515,0.0,0.0,0.0,0.0,0.0,0.0,0.0,0.0,0.0,0.0,0.0,0.0,0.0,0.0,0.0,0.0,0.0,0.0,0.0,0.0,0.0,0.0,0.0,0.0,0.0,0.0,0.0,0.0,0.0,0.0,0.0,-4.8306,-4.8306,-4.8306,-4.8306,-4.8306,-4.8306,-4.8306,-4.8306,-4.8306,-4.8233,-4.8196,-4.8196,-4.8269,-4.8306,-4.8306,-4.8306,-4.8306,-4.8306,-4.8306,-4.8306,-4.8306,-4.8306,-4.8306,-4.8306,-4.8306,-4.8306,-4.8306,-4.8306,-4.8306,-4.8306,-4.8306,-4.8306,-4.8306,-4.8306,-4.8306,-4.8306,-4.8306,-4.8306,-4.8306,-4.8306,-4.8251,-4.8196,-4.8196,-4.8196,-4.7957,-4.7149,-4.6361,-4.5553,-4.4764,-4.3993,-4.3515,-4.3515,-4.3515,-4.3515,-4.3515,-4.3515,-4.3515,-4.3515,-4.3515,-4.3515,-4.3515,-4.3515,-4.3515,-4.3515,-4.3515,-4.3515,-4.3515,-4.3515,-4.3515,-4.3515,-4.3515,-4.3515,-4.3515,-4.3515,-4.3515,-4.3515,-4.3515,-4.3515,-4.3515,-4.3515,-4.3515,0.0,0.0,0.0,0.0,0.0,0.0,0.0,0.0,0.0,0.0,0.0,0.0,0.0,0.0,0.0,0.0,0.0,0.0,0.0,0.0,0.0,0.0,0.0,0.0,0.0,0.0,0.0,0.0,0.0,0.0,-4.8306,-4.8306,-4.8306,-4.8306,-4.8306,-4.8306,-4.8306,-4.8306,-4.8306,0.0,-4.7663,-4.7351,-4.7369,-4.8012,-4.8306,-4.8306,-4.8306,-4.8306,-4.8306,-4.8306,-4.8306,-4.8306,-4.8306,-4.8306,-4.8306,-4.8306,-4.8306,-4.8306,-4.8306,-4.8306,-4.8306,-4.8306,-4.8306,-4.8306,-4.8306,-4.8306,-4.8306,-4.8306,-4.8306,-4.8306,-4.8306,-4.7828,-4.7351,-4.7351,-4.7351,-4.7131,-4.6342,-4.5535,-4.4727,-4.3901,-4.3608,-4.3515,-4.3515,-4.3515,-4.3515,-4.3515,-4.3515,-4.3515,-4.3515,-4.3515,-4.3515,-4.3515,-4.3515,-4.3515,-4.3515,-4.3515,-4.3515,-4.3515,-4.3515,-4.3515,-4.3515,-4.3515,-4.3515,-4.3515,-4.3515,-4.3515,-4.3515,-4.3515,-4.3515,-4.3515,-4.3515,-4.3515,0.0,0.0,0.0,0.0,0.0,0.0,0.0,0.0,0.0,0.0,0.0,0.0,0.0,0.0,0.0,0.0,0.0,0.0,0.0,0.0,0.0,0.0,0.0,0.0,0.0,0.0,0.0,0.0,0.0,-4.8495,-4.8401,-4.84,-4.8363,-4.8306,-4.792,-4.7718,-4.7718,-4.7718,-4.7516,-4.715,-4.7113,-4.6892,-4.6526,-4.6966,-4.715,-4.7168,-4.7553,-4.7718,-4.7755,-4.8141,-4.8306,-4.8306,-4.8306,-4.8306,-4.8306,-4.8306,-4.8306,-4.8306,-4.8306,-4.8306,-4.8306,-4.8306,-4.8306,-4.8233,-4.7828,-4.7718,-4.7718,-4.7718,-4.7718,-4.781,-4.8214,-4.77,-4.7094,-4.7094,-4.6801,-4.6324,-4.5498,-4.5002,-4.447,-4.3644,-4.3515,-4.3515,-4.3515,-4.3515,-4.3515,-4.3515,-4.3515,-4.3515,-4.3515,-4.3515,-4.3515,-4.3515,-4.3515,-4.3515,-4.3515,-4.3515,-4.3515,-4.3515,-4.3515,-4.3515,-4.3515,-4.3515,-4.3515,-4.3515,-4.3515,-4.3515,-4.3515,-4.3515,-4.3515,-4.3515,-4.3515,-4.3515,0.0,0.0,0.0,0.0,0.0,0.0,0.0,0.0,0.0,0.0,0.0,0.0,0.0,0.0,0.0,0.0,0.0,0.0,0.0,0.0,0.0,0.0,0.0,0.0,0.0,0.0,0.0,0.0,0.0,-4.8329,-4.8108,-4.8108,-4.8034,-4.7921,-4.7279,-4.6911,-4.6892,-4.6892,-4.6562,-4.5902,-4.6415,-4.625,-4.548,-4.548,-4.5645,-4.5938,-4.6599,-4.6892,-4.6929,-4.7609,-4.7884,-4.7884,-4.7884,-4.7884,-4.7902,-4.8049,-4.8012,-4.7939,-4.8214,-4.8214,-4.8122,-4.8251,-4.8214,-4.7975,-4.7461,-4.7204,-4.7131,-4.7278,-4.7314,-4.7424,-4.7957,-4.7498,-4.6856,-4.6727,-4.6085,-4.5333,-4.4801,-4.4599,-4.4305,-4.3643,-4.3515,-4.3515,-4.3515,-4.3515,-4.3515,-4.3515,-4.3515,-4.3515,-4.3515,-4.3515,-4.3515,-4.3515,-4.3515,-4.3515,-4.3515,-4.3515,-4.3515,-4.3515,-4.3515,-4.3515,-4.3515,-4.3515,-4.3515,-4.3515,-4.3515,-4.3515,-4.3515,-4.3515,-4.3515,-4.3515,-4.3515,-4.3515,0.0,0.0,0.0,0.0,0.0,0.0,0.0,0.0,0.0,0.0,0.0,0.0,0.0,0.0,0.0,0.0,0.0,0.0,0.0,0.0,0.0,0.0,0.0,0.0,0.0,0.0,0.0,0.0,-4.7732,-4.7382,-4.6557,-4.6503,-4.6467,-4.6396,-4.6286,-4.6176,-4.6067,-4.6067,-4.6012,-4.5883,-4.5314,-4.4599,-4.3827,-4.3827,-4.458,-4.5902,-4.6012,-4.6067,-4.6067,-4.6177,-4.6214,-4.6214,-4.6214,-4.6214,-4.6305,-4.7003,-4.6838,-4.6416,-4.7829,-4.7828,-4.7369,-4.8086,-4.7828,-4.7369,-4.7957,-4.7645,-4.7241,-4.7938,-4.8141,-4.8012,-4.7406,-4.6673,-4.5883,-4.5186,-4.4415,-4.3975,-4.4563,-4.4158,-4.3643,-4.3533,-4.3515,-4.3515,-4.3515,-4.3515,-4.3515,-4.3515,-4.3515,-4.3515,-4.3515,-4.3515,-4.3515,-4.3515,-4.3515,-4.3515,-4.3515,-4.3515,-4.3515,-4.3515,-4.3515,-4.3515,-4.3515,-4.3515,-4.3515,-4.3515,-4.3515,-4.3515,-4.3515,-4.3515,-4.3515,-4.3515,-4.3515,-4.3515,0.0,0.0,0.0,0.0,0.0,0.0,0.0,0.0,0.0,0.0,0.0,0.0,0.0,0.0,0.0,0.0,0.0,0.0,0.0,0.0,0.0,0.0,0.0,0.0,0.0,0.0,0.0,0.0,-4.6982,-4.6748,-4.6242,-4.6187,-4.6135,-4.5993,-4.5551,-4.5312,-4.5276,-4.5276,-4.5329,-4.54,-4.4503,-4.3897,-4.3548,-4.3532,-4.39,-4.458,-4.5039,-4.5241,-4.5259,-4.5718,-4.5902,-4.5902,-4.5902,-4.5902,-4.5938,-4.6305,-4.6214,-4.5993,-4.6709,-4.6728,-4.6489,-4.6838,-4.6728,-4.6416,-4.6324,-4.603,-4.592,-4.6728,-4.6636,-4.6416,-4.6947,-4.6159,-4.5149,-4.4764,-4.4085,-4.3606,-4.3956,-4.3736,-4.3515,-4.3515,-4.3515,-4.3515,-4.3515,-4.3515,-4.3515,-4.3515,-4.3515,-4.3515,-4.3515,-4.3515,-4.3515,-4.3515,-4.3515,-4.3515,-4.3515,-4.3515,-4.3515,-4.3515,-4.3515,-4.3515,-4.3515,-4.3515,-4.3515,-4.3515,-4.3515,-4.3515,-4.3515,-4.3515,-4.3515,-4.3515,-4.3515,-4.3515,0.0,0.0,0.0,0.0,0.0,0.0,0.0,0.0,0.0,0.0,0.0,0.0,0.0,0.0,0.0,0.0,0.0,0.0,0.0,0.0,0.0,0.0,0.0,0.0,0.0,0.0,0.0,0.0,-4.6197,-4.6036,-4.5645,-4.5645,-4.5558,-4.5403,-4.4779,-4.4484,-4.4482,-4.45,-4.4535,-4.4604,-4.3927,-4.3582,-4.3565,-4.3531,-4.3532,-4.355,-4.414,-4.4397,-4.4452,-4.5039,-4.5278,-4.5278,-4.5278,-4.5278,-4.5314,-4.5516,-4.5479,-4.5387,-4.5791,-4.5827,-4.5698,-4.5919,-4.5845,-4.5606,-4.5184,-4.5092,-4.5202,-4.5791,-4.5662,-4.5552,-4.6305,-4.559,-4.4636,-4.4452,-4.3938,-4.3515,-4.3515,-4.3515,-4.3515,-4.3515,-4.3515,-4.3515,-4.3515,-4.3515,-4.3515,-4.3515,-4.3515,-4.3515,-4.3515,-4.3515,-4.3515,-4.3515,-4.3515,-4.3515,-4.3515,-4.3515,-4.3515,-4.3515,-4.3515,-4.3515,-4.3515,-4.3515,-4.3515,-4.3515,-4.3515,-4.3515,-4.3515,-4.3515,-4.3515,-4.3515,-4.3515,-4.3515,0.0,0.0,0.0,0.0,0.0,0.0,0.0,0.0,0.0,0.0,0.0,0.0,0.0,0.0,0.0,0.0,0.0,0.0,0.0,0.0,0.0,0.0,0.0,0.0,0.0,0.0,0.0,0.0,-4.5361,-4.5008,-4.4156,-4.4101,-4.4072,-4.401,-4.3894,-4.3793,-4.3654,-4.3654,-4.3638,-4.3587,-4.3583,-4.3565,-4.3515,-4.3565,-4.3582,-4.3582,-4.3569,-4.3552,-4.357,-4.3625,-4.3608,-4.3608,-4.3608,-4.3608,-4.3718,-4.4488,-4.4322,-4.3948,-4.5549,-4.5638,-4.5172,-4.5948,-4.5672,-4.519,-4.5893,-4.6115,-4.6115,-4.61,-4.6598,-4.6801,-4.5222,-4.4746,-4.4525,-4.3736,-4.3533,-4.3515,-4.3515,-4.3515,-4.3515,-4.3515,-4.3515,-4.3515,-4.3515,-4.3515,-4.3515,-4.3515,-4.3515,-4.3515,-4.3515,-4.3515,-4.3515,-4.3515,-4.3515,-4.3515,-4.3515,-4.3515,-4.3515,-4.3515,-4.3515,-4.3515,-4.3515,-4.3515,-4.3515,-4.3515,-4.3515,-4.3515,-4.3515,-4.3515,-4.3515,-4.3515,-4.3515,-4.3515,0.0,0.0,0.0,0.0,0.0,0.0,0.0,0.0,0.0,0.0,0.0,0.0,0.0,0.0,0.0,0.0,0.0,0.0,0.0,0.0,0.0,0.0,0.0,0.0,0.0,0.0,0.0,0.0,0.0,-4.4308,-4.3945,-4.3945,-4.3915,-4.3853,-4.382,-4.3786,-4.38,-4.383,-4.3846,-4.383,-4.3798,-4.3783,-4.3751,-4.3736,-4.3736,-4.3719,-4.3703,-4.3686,-4.3686,-4.36,-4.3617,-4.3686,-4.3686,-4.3686,-4.3723,-4.4018,-4.3961,-4.381,-4.4418,-4.4454,-4.4284,-4.4563,-4.4452,-4.4284,-4.4563,-4.4603,-4.4626,-4.5125,-4.5072,-4.4835,-4.4727,-4.4323,-4.3864,-4.357,-4.3515,-4.3515,-4.3515,-4.3515,-4.3515,-4.3515,-4.3515,-4.3515,-4.3515,-4.3515,-4.3515,-4.3515,-4.3515,-4.3515,-4.3515,-4.3515,-4.3515,-4.3515,-4.3515,-4.3515,-4.3515,-4.3515,-4.3515,-4.3515,-4.3515,-4.3515,-4.3515,-4.3515,-4.3515,-4.3515,-4.3515,-4.3515,-4.3515,-4.3515,-4.3515,-4.3515,-4.3515,-4.3515,0.0,0.0,0.0,0.0,0.0,0.0,0.0,0.0,0.0,0.0,0.0,0.0,0.0,0.0,0.0,0.0,0.0,0.0,0.0,0.0,0.0,0.0,0.0,0.0,0.0,0.0,0.0,0.0,0.0,0.0,-4.3945,-4.3929,-4.3897,-4.3853,-4.3818,-4.3835,-4.3867,-4.3929,-4.3961,-4.3929,-4.3913,-4.3899,-4.3867,-4.3835,-4.3818,-4.3818,-4.3818,-4.382,-4.3788,-4.3684,-4.3719,-4.3804,-4.3804,-4.3804,-4.3804,-4.3804,-4.382,-4.3818,-4.3818,-4.3851,-4.3867,-4.3867,-4.3867,-4.3867,-4.3867,-4.4003,-4.4212,-4.4437,-4.4292,-4.4094,-4.4337,-4.3988,-4.36,-4.36,-4.36,-4.3583,-4.3531,-4.3532,-4.3515,-4.3515,-4.3515,-4.3515,-4.3515,-4.3515,-4.3515,-4.3515,-4.3515,-4.3515,-4.3515,-4.3515,-4.3515,-4.3515,-4.3515,-4.3515,-4.3515,-4.3515,-4.3515,-4.3515,-4.3515,-4.3515,-4.3515,-4.3515,-4.3515,-4.3515,-4.3515,-4.3515,-4.3515,-4.3515,-4.3515,-4.3515,-4.3515,-4.3515,0.0,0.0,0.0,0.0,0.0,0.0,0.0,0.0,0.0,0.0,0.0,0.0,0.0,0.0,0.0,0.0,0.0,0.0,0.0,0.0,0.0,0.0,0.0,0.0,0.0,0.0,0.0,0.0,-4.4416,-4.4275,-4.4036,-4.3986,-4.3958,-4.3915,-4.3897,-4.3883,-4.3804,-4.3867,-4.3867,-4.3804,-4.3883,-4.3867,-4.3804,-4.3883,-4.3897,-4.3897,-4.3897,-4.3867,-4.3804,-4.3804,-4.3804,-4.3804,-4.3804,-4.3804,-4.3804,-4.3804,-4.3851,-4.3897,-4.3897,-4.3945,-4.4005,-4.4005,-4.4005,-4.4005,-4.4005,-4.4599,-4.5066,-4.4154,-4.4471,-4.4864,-4.4024,-4.3804,-4.3804,-4.3804,-4.3804,-4.3753,-4.3615,-4.3548,-4.3515,-4.3496,-4.3515,-4.3515,-4.3496,-4.3496,-4.3496,-4.3515,-4.3515,-4.3515,-4.3515,-4.3515,-4.3515,-4.3515,-4.3515,-4.3515,-4.3515,-4.3515,-4.3515,-4.3515,-4.3515,-4.3515,-4.3515,-4.3515,-4.3515,-4.3515,-4.3515,-4.3515,-4.3515,-4.3515,-4.3515,-4.3515,-4.3515,-4.3515,-2.6774,0.0,0.0,0.0,0.0,0.0,0.0,0.0,0.0,0.0,0.0,0.0,0.0,0.0,0.0,0.0,0.0,0.0,0.0,0.0,0.0,0.0,0.0,0.0,0.0,0.0,0.0,0.0,-4.4624,-4.4374,-4.4289,-4.4124,-4.3989,-4.3974,-4.3974,-4.3958,-4.3926,-4.3958,-4.3958,-4.3926,-4.3958,-4.3958,-4.3945,-4.3958,-4.3974,-4.3974,-4.3974,-4.3958,-4.3945,-4.3881,-4.3897,-4.3926,-4.3926,-4.3926,-4.3926,-4.3926,-4.3961,-4.3974,-4.3974,-4.3989,-4.4005,-4.4005,-4.4005,-4.4005,-4.4005,-4.4125,-4.4225,-4.3971,-4.4034,-4.4114,-4.3859,-4.3804,-4.3804,-4.3804,-4.3804,-4.3788,-4.3753,-4.3719,-4.3686,-4.36,-4.3651,-4.3686,-4.36,-4.3565,-4.3548,-4.3515,-4.3515,-4.3515,-4.3515,-4.3515,-4.3515,-4.3515,-4.3515,-4.3515,-4.3515,-4.3515,-4.3515,-4.3515,-4.3515,-4.3515,-4.3515,-4.3515,-4.3515,-4.3515,-4.3515,-4.3515,-4.3515,-4.3515,-4.3515,-4.3515,-4.3515,-4.3515,0.0,0.0,0.0,0.0,0.0,0.0,0.0,-3.3481,0.0,0.0,0.0,0.0,0.0,0.0,0.0,0.0,0.0,0.0,0.0,0.0,0.0,0.0,0.0,0.0,0.0,-4.5467,-4.5263,-4.5052,-4.4739,-4.4519,-4.4416,-4.4265,-4.4181,-4.4181,-4.4064,-4.4005,-4.4005,-4.4005,-4.4005,-4.4005,-4.4005,-4.4005,-4.4005,-4.4005,-4.4005,-4.4005,-4.4005,-4.4005,-4.4005,-4.3961,-4.3958,-4.4005,-4.4005,-4.4005,-4.4005,-4.4005,-4.4005,-4.4005,-4.4005,-4.4005,-4.4005,-4.4005,-4.4005,-4.4005,-4.4005,-4.3974,-4.3945,-4.3945,-4.3913,-4.3883,-4.3883,-4.3883,-4.3883,-4.3883,-4.3883,-4.3883,-4.3851,-4.3867,-4.3832,-4.3701,-4.3703,-4.3684,-4.3599,-4.3565,-4.3566,-4.3515,-4.3515,-4.3515,-4.3515,-4.3515,-4.3515,-4.3515,-4.3515,-4.3515,-4.3515,-4.3515,-4.3515,-4.3515,-4.3515,-4.3515,-4.3515,-4.3515,-4.3515,-4.3515,-4.3515,-4.3515,-4.3515,-4.3515,-4.3515,-4.3515,-4.3515,-4.3515,0.0,0.0,0.0,0.0,0.0,0.0,-3.4308,-3.3564,0.0,0.0,0.0,0.0,0.0,0.0,0.0,0.0,0.0,0.0,0.0,0.0,0.0,0.0,0.0,0.0,-4.546,-4.546,-4.5295,-4.4919,-4.4825,-4.4676,-4.4411,-4.4397,-4.4397,-4.4397,-4.4181,-4.4048,-4.4048,-4.4002,-4.4005,-4.4005,-4.4005,-4.4005,-4.4005,-4.4005,-4.4005,-4.4005,-4.4005,-4.4005,-4.4005,-4.4005,-4.4005,-4.4005,-4.4005,-4.4005,-4.4005,-4.4005,-4.4005,-4.4005,-4.4005,-4.4005,-4.4005,-4.4005,-4.4005,-4.4005,-4.4005,-4.4005,-4.4005,-4.4005,-4.4005,-4.4005,-4.4005,-4.4005,-4.4005,-4.4005,-4.4005,-4.3974,-4.3929,-4.3961,-4.3958,-4.3853,-4.3718,-4.3632,-4.3615,-4.3548,-4.3515,-4.3515,-4.3515,-4.3515,-4.3515,-4.3515,-4.3515,-4.3515,-4.3515,-4.3515,-4.3515,-4.3515,-4.3515,-4.3515,-4.3515,-4.3515,-4.3515,-4.3515,-4.3515,-4.3515,-4.3515,-4.3515,-4.3515,-4.3515,-4.3515,-4.3515,-4.3515,-4.3515,0.0,0.0,0.0,0.0,0.0,0.0,-2.9044,-3.0198,0.0,0.0,0.0,0.0,0.0,0.0,0.0,0.0,0.0,0.0,0.0,0.0,0.0,0.0,0.0,0.0,-4.4489,-4.4547,-4.4809,-4.5409,-4.5041,-4.4676,-4.4411,-4.4397,-4.4397,-4.4397,-4.436,-4.4318,-4.4318,-4.4106,-4.4005,-4.4005,-4.4005,-4.4005,-4.4005,-4.4005,-4.4005,-4.4005,-4.4005,-4.4005,-4.4005,-4.4005,-4.4005,-4.4005,-4.4005,-4.4005,-4.4005,-4.4005,-4.4005,-4.4005,-4.4005,-4.4005,-4.4005,-4.4005,-4.4005,-4.4005,-4.4005,-4.4005,-4.4005,-4.4005,-4.4005,-4.4005,-4.4005,-4.4005,-4.4005,-4.4005,-4.4005,-4.4005,-4.3974,-4.3989,-4.3989,-4.3976,-4.3897,-4.3816,-4.3769,-4.3651,-4.3565,-4.3515,-4.3515,-4.3515,-4.3515,-4.3515,-4.3515,-4.3515,-4.3515,-4.3515,-4.3515,-4.3515,-4.3515,-4.3515,-4.3515,-4.3515,-4.3515,-4.3515,-4.3515,-4.3515,-4.3515,-4.3515,-4.3515,-4.3515,-4.3515,-4.3515,-4.3515,-4.3515,0.0,0.0,0.0,-3.2942,0.0,0.0,0.0,-3.0737,-3.1288,0.0,0.0,0.0,0.0,0.0,0.0,0.0,0.0,0.0,0.0,0.0,0.0,0.0,0.0,0.0,-4.3662,-4.3701,-4.384,-4.4144,-4.3908,-4.3692,-4.3557,-4.38,-4.4008,-4.4144,-4.4307,-4.4465,-4.4599,-4.4471,-4.4402,-4.4388,-4.4265,-4.4192,-4.4192,-4.4064,-4.4005,-4.4005,-4.4005,-4.4005,-4.4005,-4.4005,-4.4079,-4.4196,-4.4048,-4.4005,-4.4005,-4.4005,-4.4005,-4.4005,-4.4005,-4.4005,-4.4005,-4.4005,-4.4005,-4.4005,-4.4005,-4.4005,-4.4005,-4.4005,-4.4005,-4.4005,-4.4005,-4.4005,-4.4005,-4.4005,-4.4005,-4.4005,-4.4005,-4.4005,-4.4005,-4.4005,-4.3945,-4.3899,-4.3851,-4.3769,-4.3703,-4.3652,-4.3652,-4.3652,-4.3652,-4.3583,-4.3548,-4.3548,-4.3513,-4.3515,-4.3515,-4.3515,-4.3515,-4.3515,-4.3515,-4.3515,-4.3515,-4.3515,-4.3515,-4.3515,-4.3515,-4.3515,-4.3515,-4.3515,-4.3515,-4.3515,-4.3515,-4.3515,0.0,0.0,0.0,0.0,0.0,-3.2314,0.0,0.0,0.0,-3.2897,0.0,0.0,0.0,0.0,0.0,0.0,0.0,0.0,0.0,0.0,0.0,0.0,0.0,0.0,0.0,-4.2604,-4.2652,-4.2776,-4.2412,-4.2344,-4.2668,-4.311,-4.3449,-4.3652,-4.4082,-4.4405,-4.4614,-4.4737,-4.4788,-4.4788,-4.4585,-4.4479,-4.4465,-4.425,-4.4151,-4.4151,-4.4151,-4.4151,-4.4151,-4.4151,-4.4294,-4.4438,-4.4177,-4.4106,-4.4151,-4.4151,-4.4121,-4.4079,-4.4079,-4.4033,-4.4005,-4.4005,-4.4005,-4.4005,-4.4005,-4.4005,-4.4005,-4.4005,-4.4005,-4.4005,-4.4005,-4.4005,-4.4005,-4.4005,-4.4005,-4.4005,-4.4005,-4.4005,-4.4005,-4.4005,-4.3961,-4.3913,-4.3897,-4.3835,-4.3804,-4.3804,-4.3804,-4.3804,-4.3804,-4.3719,-4.3651,-4.3651,-4.3583,-4.3549,-4.3549,-4.3549,-4.3549,-4.3549,-4.3513,-4.3513,-4.3513,-4.3515,-4.3515,-4.3515,-4.3515,-4.3515,-4.3515,-4.3515,-4.3515,-4.3515,-4.3515,-4.3515,0.0,0.0,0.0,0.0,-3.6341,0.0,0.0,0.0,-3.2064,-3.0088,0.0,0.0,0.0,0.0,0.0,0.0,0.0,0.0,0.0,0.0,0.0,0.0,0.0,0.0,0.0,-4.0804,-4.1423,-4.2936,-4.1407,-4.1065,-4.2611,-4.2763,-4.2801,-4.285,-4.3573,-4.3982,-4.4003,-4.4516,-4.4788,-4.4788,-4.4763,-4.4751,-4.4751,-4.4714,-4.4701,-4.4701,-4.4701,-4.4701,-4.4701,-4.4701,-4.4726,-4.4726,-4.4452,-4.4493,-4.4701,-4.4701,-4.4559,-4.436,-4.436,-4.4192,-4.4005,-4.4005,-4.4005,-4.4005,-4.4005,-4.4005,-4.4005,-4.4005,-4.4005,-4.4005,-4.4005,-4.4005,-4.4005,-4.4005,-4.4005,-4.4005,-4.4005,-4.4005,-4.4005,-4.4005,-4.3989,-4.3958,-4.3913,-4.3835,-4.3804,-4.3804,-4.3804,-4.3804,-4.3804,-4.3788,-4.3788,-4.3788,-4.3771,-4.3771,-4.3771,-4.3771,-4.3771,-4.3771,-4.3651,-4.3582,-4.3582,-4.3513,-4.3515,-4.3515,-4.3515,-4.3515,-4.3515,-4.3515,-4.3515,-4.3515,-4.3515,-4.3515,0.0,0.0,0.0,0.0,0.0,0.0,-3.2179,0.0,-3.1295,0.0,0.0,0.0,0.0,0.0,0.0,0.0,0.0,0.0,0.0,0.0,0.0,0.0,0.0,0.0,0.0,0.0,0.0,0.0,-3.9353,-3.9427,-4.0654,-4.1504,-4.203,-4.216,-4.3302,-4.3971,-4.4134,-4.4882,-4.5253,-4.5253,-4.5107,-4.503,-4.503,-4.4861,-4.4788,-4.4788,-4.4788,-4.4788,-4.4788,-4.4788,-4.4884,-4.503,-4.4908,-4.4837,-4.4788,-4.4788,-4.4726,-4.4624,-4.4624,-4.4559,-4.4443,-4.4275,-4.4121,-4.4005,-4.4005,-4.4005,-4.4005,-4.4005,-4.4005,-4.4005,-4.4005,-4.4005,-4.4005,-4.4005,-4.4005,-4.4005,-4.4005,-4.4121,-4.4196,-4.4017,-4.4121,-4.4162,-4.3989,-4.3945,-4.3913,-4.3913,-4.3913,-4.3913,-4.3913,-4.3883,-4.3851,-4.3851,-4.382,-4.3804,-4.3804,-4.3804,-4.3804,-4.3804,-4.3667,-4.3582,-4.3531,-4.3496,-4.3515,-4.3515,-4.3515,-4.3515,-4.3515,-4.3531,-4.3549,-4.3515,-4.3515,-4.3515,-3.9335,0.0,0.0,0.0,0.0,0.0,0.0,0.0,0.0,0.0,0.0,0.0,0.0,0.0,0.0,0.0,0.0,0.0,0.0,0.0,0.0,0.0,0.0,0.0,0.0,0.0,0.0,0.0,0.0,-3.7392,-3.9207,-4.0262,-4.102,-4.1423,-4.2678,-4.3416,-4.3605,-4.4701,-4.5248,-4.524,-4.5295,-4.5312,-4.5312,-4.5107,-4.5019,-4.5019,-4.5019,-4.5019,-4.5019,-4.5019,-4.5129,-4.5312,-4.5312,-4.5191,-4.5019,-4.5019,-4.4985,-4.4896,-4.4896,-4.4861,-4.4751,-4.4479,-4.4318,-4.4206,-4.4206,-4.4206,-4.4206,-4.4206,-4.4206,-4.4206,-4.4206,-4.4206,-4.4206,-4.4206,-4.4206,-4.4206,-4.4206,-4.4374,-4.4443,-4.4166,-4.4279,-4.4346,-4.4151,-4.4048,-4.4005,-4.4005,-4.4005,-4.4005,-4.4005,-4.3961,-4.3929,-4.3929,-4.3881,-4.3881,-4.3961,-4.3958,-4.3961,-4.3945,-4.3844,-4.373,-4.3583,-4.3583,-4.3583,-4.3583,-4.3583,-4.3583,-4.3583,-4.3634,-4.3634,-4.3583,-4.3531,-4.3532,0.0,0.0,0.0,-3.6769,0.0,0.0,0.0,0.0,-3.3628,0.0,0.0,0.0,0.0,0.0,0.0,0.0,0.0,0.0,0.0,0.0,0.0,0.0,0.0,0.0,0.0,0.0,0.0,0.0,0.0,0.0,-3.9092,-3.9335,-3.9738,-4.0516,-4.1404,-4.1865,-4.1885,-4.3528,-4.4335,-4.4355,-4.5182,-4.5586,-4.5586,-4.5577,-4.5577,-4.5577,-4.5577,-4.5577,-4.5577,-4.5577,-4.5577,-4.5586,-4.5586,-4.5577,-4.5577,-4.5577,-4.541,-4.5191,-4.5191,-4.5019,-4.4751,-4.4479,-4.4572,-4.4763,-4.4763,-4.4763,-4.4763,-4.4763,-4.4763,-4.4763,-4.4763,-4.4763,-4.4763,-4.4763,-4.4763,-4.4763,-4.4763,-4.4776,-4.4701,-4.4425,-4.4383,-4.4402,-4.4402,-4.4162,-4.4005,-4.4005,-4.4005,-4.4005,-4.4005,-4.4005,-4.4005,-4.4005,-4.3989,-4.4109,-4.436,-4.4388,-4.436,-4.4275,-4.4275,-4.4136,-4.3804,-4.3788,-4.3788,-4.3788,-4.3788,-4.3788,-4.3788,-4.3788,-4.3788,-4.3788,-4.3651,-4.3565,0.0,0.0,-4.2951,-3.9008,0.0,0.0,0.0,0.0,0.0,0.0,0.0,0.0,0.0,0.0,0.0,0.0,0.0,0.0,0.0,0.0,0.0,0.0,0.0,0.0,0.0,0.0,0.0,0.0,-3.391,0.0,0.0,-3.8661,-3.9419,-3.9708,-4.1066,-4.1788,-4.1788,-4.347,-4.4297,-4.4316,-4.519,-4.5594,-4.5594,-4.5594,-4.5594,-4.5594,-4.5594,-4.5594,-4.5594,-4.5594,-4.5594,-4.5594,-4.5594,-4.5594,-4.5594,-4.5594,-4.5531,-4.5457,-4.5457,-4.5292,-4.5052,-4.4954,-4.4872,-4.4788,-4.4788,-4.4788,-4.4788,-4.4788,-4.4788,-4.4788,-4.4788,-4.4788,-4.4788,-4.4788,-4.4788,-4.4788,-4.4788,-4.495,-4.4996,-4.4714,-4.4812,-4.4872,-4.4688,-4.4585,-4.4471,-4.4289,-4.426,-4.426,-4.426,-4.4416,-4.4538,-4.4538,-4.4538,-4.4578,-4.465,-4.4493,-4.4374,-4.4303,-4.4136,-4.3958,-4.3804,-4.3958,-4.4064,-4.4064,-4.4064,-4.4064,-4.4064,-4.3929,-4.3835,-4.3804,-4.3802,-4.3751,-4.3605,-4.3912,0.0,-4.0496,-3.9304,0.0,-3.4603,0.0,0.0,0.0,0.0,0.0,0.0,0.0,0.0,0.0,0.0,0.0,0.0,0.0,0.0,0.0,0.0,0.0,0.0,0.0,-3.0275,-3.2314,0.0,0.0,0.0,0.0,-3.8977,-3.9284,-4.0623,-4.1335,-4.1335,-4.3028,-4.3874,-4.3893,-4.5056,-4.5594,-4.5594,-4.5594,-4.5594,-4.5594,-4.5594,-4.5594,-4.5594,-4.5594,-4.5594,-4.5594,-4.5594,-4.5594,-4.5594,-4.5594,-4.5594,-4.5586,-4.5495,-4.541,-4.5322,-4.5232,-4.5159,-4.5085,-4.5085,-4.5085,-4.5085,-4.5085,-4.5085,-4.5085,-4.5085,-4.5085,-4.5085,-4.5085,-4.5085,-4.5085,-4.5085,-4.5222,-4.5253,-4.4977,-4.5085,-4.5159,-4.4985,-4.4861,-4.4739,-4.4572,-4.4533,-4.4533,-4.4533,-4.4688,-4.4788,-4.4788,-4.4788,-4.4788,-4.4788,-4.4726,-4.4624,-4.4498,-4.4322,-4.421,-4.4151,-4.4322,-4.4416,-4.4416,-4.4416,-4.4416,-4.4416,-4.4279,-4.4196,-4.4151,-4.4196,-4.4196]},{"header":{"parameterUnit":"m.s-1","parameterCategory":1,"la1":30.6,"la2":29.2853,"lo1":-89.7004,"lo2":-87.6739,"dy":0.0162,"dx":0.0183,"nx":112,"ny":82,"refTime":"2025-04-12T06:00:00:Z","depth":0,"parameterNumber":3,"parameterNumberName":"V-component_of_WINDS"},"data":[0.0,0.0,0.0,0.0,0.0,0.0,0.0,0.0,0.0,0.0,0.0,0.0,0.0,0.0,0.0,0.0,0.0,0.0,0.0,0.0,0.0,0.0,0.0,0.0,0.0,0.0,0.0,0.0,0.0,0.0,0.0,0.0,0.0,0.0,0.0,0.0,0.0,0.0,0.0,0.0,0.0,0.0,0.0,0.0,0.0,0.0,0.0,0.0,0.0,0.0,0.0,0.0,0.0,0.0,0.0,0.0,0.0,0.0,0.0,0.0,0.0,0.0,0.0,0.0,0.0,0.0,0.0,0.0,0.0,0.0,0.0,0.0,0.0,0.0,0.0,0.0,0.0,0.0,0.0,0.0,0.0,0.0,0.0,0.0,0.0,0.0,0.0,0.0,0.0,0.0,0.0,-1.4328,-1.5135,-1.5439,-1.5019,-1.4891,-1.4082,-1.2408,0.0,0.0,0.0,0.0,0.0,0.0,0.0,0.0,0.0,0.0,0.0,0.0,0.0,0.0,0.0,0.0,0.0,0.0,0.0,0.0,0.0,0.0,0.0,0.0,0.0,0.0,0.0,0.0,0.0,0.0,0.0,0.0,0.0,0.0,0.0,0.0,0.0,0.0,0.0,0.0,0.0,0.0,0.0,0.0,0.0,0.0,0.0,0.0,0.0,0.0,0.0,0.0,0.0,0.0,0.0,0.0,0.0,0.0,0.0,0.0,0.0,0.0,0.0,0.0,0.0,0.0,0.0,0.0,0.0,0.0,0.0,0.0,0.0,0.0,0.0,0.0,0.0,0.0,0.0,0.0,0.0,0.0,0.0,0.0,0.0,0.0,0.0,0.0,0.0,0.0,0.0,0.0,0.0,0.0,0.0,0.0,0.0,0.0,0.0,0.0,0.0,0.0,0.0,0.0,-1.4047,-1.5797,-1.6287,-1.6348,-1.5938,-1.5234,-1.4246,-1.2895,0.0,0.0,0.0,0.0,0.0,0.0,0.0,0.0,0.0,0.0,0.0,0.0,0.0,0.0,0.0,0.0,0.0,0.0,0.0,0.0,0.0,0.0,0.0,0.0,0.0,0.0,0.0,0.0,0.0,0.0,0.0,0.0,0.0,0.0,0.0,0.0,0.0,0.0,0.0,0.0,0.0,0.0,0.0,0.0,0.0,0.0,0.0,0.0,0.0,0.0,0.0,0.0,0.0,0.0,0.0,0.0,0.0,0.0,0.0,0.0,0.0,0.0,0.0,0.0,0.0,0.0,0.0,0.0,0.0,0.0,0.0,0.0,0.0,0.0,0.0,0.0,0.0,0.0,0.0,0.0,0.0,0.0,0.0,0.0,0.0,0.0,0.0,0.0,0.0,0.0,0.0,0.0,0.0,0.0,0.0,0.0,0.0,0.0,0.0,0.0,0.0,0.0,0.0,-1.3712,-1.466,-1.6043,-1.6492,-1.6553,-1.6134,-1.5517,-1.458,-1.3301,-1.1768,0.0,0.0,0.0,0.0,0.0,0.0,0.0,0.0,0.0,0.0,0.0,0.0,0.0,0.0,0.0,0.0,0.0,0.0,0.0,0.0,0.0,0.0,0.0,0.0,0.0,0.0,0.0,0.0,0.0,0.0,0.0,0.0,0.0,0.0,0.0,0.0,0.0,0.0,0.0,0.0,0.0,0.0,0.0,0.0,0.0,0.0,0.0,0.0,0.0,0.0,0.0,0.0,0.0,0.0,0.0,0.0,0.0,0.0,0.0,0.0,0.0,0.0,0.0,0.0,0.0,0.0,0.0,0.0,0.0,0.0,0.0,0.0,0.0,0.0,0.0,0.0,0.0,0.0,0.0,0.0,0.0,0.0,0.0,0.0,0.0,0.0,0.0,0.0,0.0,0.0,0.0,0.0,0.0,0.0,0.0,0.0,0.0,0.0,0.0,0.0,0.0,0.0,-1.5034,-1.5751,-1.6546,-1.6979,-1.6965,-1.63,-1.5723,-1.4873,-1.3584,-1.1787,0.0,0.0,0.0,0.0,0.0,0.0,0.0,0.0,0.0,0.0,0.0,0.0,0.0,0.0,0.0,0.0,0.0,0.0,0.0,0.0,0.0,0.0,0.0,0.0,0.0,0.0,0.0,0.0,0.0,0.0,0.0,0.0,0.0,0.0,0.0,0.0,0.0,0.0,0.0,0.0,0.0,0.0,0.0,0.0,0.0,0.0,0.0,0.0,0.0,0.0,0.0,0.0,0.0,0.0,0.0,0.0,0.0,0.0,0.0,0.0,0.0,0.0,0.0,0.0,0.0,0.0,0.0,0.0,0.0,0.0,0.0,0.0,0.0,0.0,0.0,0.0,0.0,0.0,0.0,0.0,0.0,0.0,0.0,0.0,0.0,0.0,0.0,0.0,0.0,0.0,0.0,0.0,0.0,0.0,0.0,0.0,0.0,0.0,0.0,0.0,0.0,0.0,-1.6763,-1.7809,-1.81,-1.8561,-1.824,-1.678,-1.5868,-1.4873,-1.3584,-1.1504,0.0,0.0,0.0,0.0,0.0,0.0,0.0,0.0,0.0,0.0,0.0,0.0,0.0,0.0,0.0,0.0,0.0,0.0,0.0,0.0,0.0,0.0,0.0,0.0,0.0,0.0,0.0,0.0,0.0,0.0,0.0,0.0,0.0,0.0,0.0,0.0,0.0,0.0,0.0,0.0,0.0,0.0,0.0,0.0,0.0,0.0,0.0,0.0,0.0,0.0,0.0,0.0,0.0,0.0,0.0,0.0,0.0,0.0,0.0,0.0,0.0,0.0,0.0,0.0,0.0,0.0,0.0,0.0,0.0,0.0,0.0,0.0,0.0,0.0,0.0,0.0,0.0,0.0,0.0,0.0,0.0,0.0,0.0,0.0,0.0,0.0,0.0,0.0,0.0,0.0,0.0,0.0,0.0,0.0,0.0,0.0,0.0,0.0,0.0,0.0,0.0,0.0,-1.6233,-1.6977,0.0,-1.8112,-1.7912,-1.6807,-1.6395,-1.543,-1.3623,0.0,0.0,0.0,0.0,0.0,0.0,0.0,0.0,0.0,0.0,0.0,0.0,0.0,0.0,0.0,0.0,0.0,0.0,0.0,0.0,0.0,0.0,0.0,0.0,0.0,0.0,0.0,0.0,0.0,0.0,0.0,0.0,0.0,0.0,0.0,0.0,0.0,0.0,0.0,0.0,0.0,0.0,0.0,0.0,0.0,0.0,0.0,0.0,0.0,0.0,0.0,0.0,0.0,0.0,0.0,0.0,0.0,0.0,0.0,0.0,0.0,0.0,0.0,0.0,0.0,0.0,0.0,0.0,0.0,0.0,0.0,0.0,0.0,0.0,0.0,0.0,0.0,0.0,0.0,0.0,0.0,0.0,0.0,0.0,0.0,0.0,0.0,0.0,0.0,0.0,0.0,0.0,0.0,0.0,0.0,0.0,0.0,0.0,0.0,0.0,0.0,0.0,-1.5356,-1.6217,-1.682,0.0,-1.8034,-1.7889,-1.6807,-1.6443,-1.5478,-1.3633,0.0,0.0,0.0,0.0,0.0,0.0,0.0,0.0,0.0,0.0,0.0,0.0,0.0,0.0,0.0,0.0,0.0,0.0,0.0,0.0,0.0,0.0,0.0,0.0,0.0,0.0,0.0,0.0,0.0,0.0,0.0,0.0,0.0,0.0,0.0,0.0,0.0,0.0,0.0,0.0,0.0,0.0,0.0,0.0,0.0,0.0,0.0,0.0,0.0,0.0,0.0,0.0,0.0,0.0,0.0,0.0,0.0,0.0,0.0,0.0,0.0,0.0,0.0,0.0,0.0,0.0,0.0,0.0,0.0,0.0,0.0,0.0,0.0,0.0,0.0,0.0,0.0,0.0,0.0,0.0,0.0,0.0,0.0,0.0,0.0,0.0,0.0,0.0,0.0,0.0,0.0,0.0,0.0,0.0,0.0,0.0,0.0,0.0,0.0,0.0,0.0,0.0,-1.5765,-1.7084,-1.7839,-1.7978,-1.8586,-1.8354,-1.6838,-1.5898,-1.4873,0.0,0.0,0.0,0.0,0.0,0.0,0.0,0.0,0.0,0.0,0.0,0.0,0.0,0.0,0.0,0.0,0.0,0.0,0.0,0.0,0.0,0.0,0.0,0.0,0.0,0.0,0.0,0.0,0.0,0.0,0.0,0.0,0.0,0.0,0.0,0.0,0.0,0.0,0.0,0.0,0.0,0.0,0.0,0.0,0.0,0.0,0.0,0.0,0.0,0.0,0.0,0.0,0.0,0.0,0.0,0.0,0.0,0.0,0.0,0.0,0.0,0.0,0.0,0.0,0.0,0.0,0.0,0.0,0.0,0.0,0.0,0.0,0.0,0.0,0.0,0.0,0.0,0.0,0.0,0.0,0.0,0.0,0.0,0.0,0.0,0.0,0.0,0.0,0.0,0.0,0.0,0.0,0.0,0.0,0.0,0.0,0.0,0.0,0.0,0.0,0.0,0.0,0.0,-1.5811,-1.6668,-1.7276,-1.792,-1.8178,-1.8008,-1.7269,-1.6377,-1.5224,-1.3603,0.0,0.0,0.0,0.0,0.0,0.0,0.0,0.0,0.0,0.0,0.0,0.0,0.0,0.0,0.0,0.0,0.0,0.0,0.0,0.0,0.0,0.0,0.0,0.0,0.0,0.0,0.0,0.0,0.0,0.0,0.0,0.0,0.0,0.0,0.0,0.0,0.0,0.0,0.0,0.0,0.0,0.0,0.0,0.0,0.0,0.0,0.0,0.0,0.0,0.0,0.0,0.0,0.0,0.0,0.0,0.0,0.0,0.0,0.0,0.0,0.0,0.0,0.0,0.0,0.0,0.0,0.0,0.0,0.0,0.0,0.0,0.0,0.0,0.0,0.0,0.0,0.0,0.0,0.0,0.0,0.0,0.0,0.0,0.0,0.0,0.0,0.0,0.0,0.0,0.0,0.0,0.0,0.0,0.0,0.0,0.0,0.0,0.0,0.0,0.0,0.0,0.0,-1.5882,-1.6785,-1.7408,-1.7959,-1.812,-1.8018,-1.7432,-1.6604,-1.5429,-1.3831,0.0,0.0,0.0,0.0,0.0,0.0,0.0,0.0,0.0,0.0,0.0,0.0,0.0,0.0,0.0,0.0,0.0,0.0,0.0,0.0,0.0,0.0,0.0,0.0,0.0,0.0,0.0,0.0,0.0,0.0,0.0,0.0,0.0,0.0,0.0,0.0,0.0,0.0,0.0,0.0,0.0,0.0,0.0,0.0,0.0,0.0,0.0,0.0,0.0,0.0,0.0,0.0,0.0,0.0,0.0,0.0,0.0,0.0,0.0,0.0,0.0,0.0,0.0,0.0,0.0,0.0,0.0,0.0,0.0,0.0,0.0,0.0,0.0,0.0,0.0,0.0,0.0,0.0,0.0,0.0,0.0,0.0,0.0,0.0,0.0,0.0,0.0,0.0,0.0,0.0,0.0,0.0,0.0,0.0,0.0,0.0,0.0,0.0,0.0,0.0,0.0,0.0,-1.5902,-1.7241,-1.8037,-1.8115,-1.8403,-1.8295,-1.7568,-1.6652,-1.5557,-1.425,0.0,0.0,0.0,0.0,0.0,0.0,0.0,0.0,0.0,0.0,0.0,0.0,0.0,0.0,0.0,0.0,0.0,0.0,0.0,0.0,0.0,0.0,0.0,0.0,0.0,0.0,0.0,0.0,0.0,0.0,0.0,0.0,0.0,0.0,0.0,0.0,0.0,0.0,0.0,0.0,0.0,0.0,0.0,0.0,0.0,0.0,0.0,0.0,0.0,0.0,0.0,0.0,0.0,0.0,0.0,0.0,0.0,0.0,0.0,0.0,-1.4023,0.0,0.0,0.0,0.0,0.0,0.0,0.0,0.0,0.0,0.0,0.0,0.0,0.0,0.0,0.0,0.0,0.0,0.0,0.0,0.0,0.0,0.0,0.0,0.0,0.0,0.0,0.0,0.0,0.0,0.0,0.0,0.0,0.0,0.0,0.0,0.0,0.0,0.0,0.0,0.0,0.0,-1.5831,-1.7213,-1.8262,-1.8945,-1.8789,-1.8529,-1.8354,-1.6953,-1.5684,-1.4707,-1.2925,0.0,0.0,0.0,0.0,0.0,0.0,0.0,0.0,0.0,0.0,0.0,0.0,0.0,0.0,0.0,0.0,0.0,0.0,0.0,0.0,0.0,0.0,0.0,0.0,0.0,0.0,0.0,0.0,0.0,0.0,0.0,0.0,0.0,0.0,0.0,0.0,0.0,0.0,0.0,0.0,0.0,0.0,0.0,0.0,0.0,0.0,0.0,0.0,0.0,0.0,0.0,0.0,0.0,0.0,0.0,0.0,0.0,0.0,0.0,0.0,-1.5157,0.0,0.0,0.0,0.0,0.0,0.0,0.0,0.0,0.0,0.0,0.0,0.0,0.0,0.0,0.0,0.0,0.0,0.0,0.0,0.0,0.0,0.0,0.0,0.0,0.0,0.0,0.0,0.0,0.0,0.0,0.0,0.0,0.0,0.0,0.0,0.0,0.0,0.0,0.0,0.0,-1.5899,-1.7592,-1.8799,-1.9238,-1.9082,-1.8867,-1.8617,-1.7441,-1.6359,-1.5478,-1.3789,0.0,0.0,0.0,0.0,0.0,0.0,0.0,0.0,0.0,0.0,0.0,0.0,0.0,0.0,0.0,0.0,0.0,0.0,0.0,0.0,0.0,0.0,0.0,0.0,0.0,0.0,0.0,0.0,0.0,0.0,0.0,0.0,0.0,0.0,0.0,0.0,0.0,0.0,0.0,0.0,0.0,0.0,0.0,0.0,0.0,0.0,0.0,0.0,0.0,0.0,0.0,0.0,0.0,-1.8721,-1.8948,-1.8584,-1.8978,-1.9173,-1.9104,-1.8052,-1.7428,-1.7077,-1.62,0.0,0.0,0.0,0.0,0.0,0.0,0.0,0.0,0.0,0.0,0.0,0.0,0.0,0.0,0.0,0.0,0.0,0.0,0.0,0.0,0.0,0.0,0.0,0.0,-1.668,-1.6219,0.0,0.0,0.0,0.0,0.0,0.0,0.0,0.0,0.0,0.0,0.0,0.0,-1.6193,-1.8081,-1.9346,-1.9492,-1.9443,-1.9219,-1.8754,-1.7978,-1.7119,-1.6271,-1.4707,-1.3432,0.0,0.0,0.0,0.0,0.0,0.0,0.0,0.0,0.0,0.0,0.0,0.0,0.0,0.0,0.0,0.0,0.0,0.0,0.0,0.0,0.0,0.0,0.0,0.0,0.0,0.0,0.0,0.0,0.0,0.0,0.0,0.0,-1.1034,-1.2239,0.0,0.0,0.0,0.0,0.0,0.0,0.0,0.0,0.0,0.0,0.0,0.0,0.0,-1.7324,-1.7744,-1.8965,-1.9394,-1.9053,-2.0684,-2.123,-2.0781,-2.126,-2.1455,-2.1455,-2.1279,0.0,-1.8887,-1.8027,0.0,0.0,0.0,0.0,0.0,0.0,0.0,0.0,0.0,0.0,0.0,0.0,0.0,0.0,0.0,0.0,0.0,0.0,0.0,0.0,0.0,0.0,-1.7617,-1.7725,-1.7793,-1.7637,0.0,-1.5635,-1.4453,-1.387,-1.2925,0.0,0.0,0.0,0.0,0.0,0.0,0.0,-1.7034,-1.8428,-1.957,-2.0351,-2.0059,-1.9658,-1.9238,-1.8418,-1.7559,-1.6668,-1.5713,-1.4747,-1.3899,-1.2632,0.0,0.0,0.0,0.0,0.0,0.0,0.0,0.0,0.0,0.0,0.0,0.0,0.0,0.0,0.0,0.0,0.0,0.0,0.0,0.0,0.0,0.0,0.0,0.0,0.0,0.0,0.0,0.0,0.0,-1.0971,-1.272,-1.3404,-1.3581,-1.3643,0.0,0.0,0.0,0.0,0.0,0.0,0.0,0.0,0.0,-1.8144,-1.8854,-1.9539,-2.0185,-2.1171,-2.1758,-2.1826,-2.2832,-2.3203,-2.3027,-2.3223,-2.331,-2.331,-2.331,-2.2871,-2.2031,-2.0195,-1.9053,-1.8369,0.0,0.0,0.0,0.0,-1.7559,-1.7646,-1.8633,-1.8809,0.0,-1.8262,0.0,0.0,0.0,0.0,0.0,0.0,0.0,0.0,0.0,0.0,-1.9512,-1.9728,-2.001,-2.0068,-1.9639,-1.8555,-1.7178,0.0,-1.4971,-1.4402,-1.3377,0.0,0.0,0.0,0.0,-1.6611,-1.7607,-1.8848,-1.9873,-2.0537,-2.0176,-1.9746,-1.9316,-1.8721,-1.7964,-1.7148,-1.6473,-1.5732,-1.4864,-1.3821,-1.2671,0.0,0.0,0.0,0.0,0.0,0.0,0.0,0.0,0.0,0.0,0.0,0.0,0.0,0.0,0.0,0.0,0.0,0.0,0.0,0.0,0.0,0.0,0.0,0.0,0.0,0.0,0.0,0.0,-1.2613,-1.4111,-1.4397,-1.5049,-1.5234,0.0,0.0,0.0,0.0,0.0,0.0,-1.8008,-1.8802,-1.9514,-2.0098,-2.0937,-2.1799,-2.2519,-2.3154,-2.3633,-2.3955,-2.4268,-2.4414,-2.4414,-2.4414,-2.4414,-2.4414,-2.4414,-2.4414,-2.4248,-2.1992,-2.0684,-2.0049,-1.9394,-1.8936,-1.874,-1.9375,-1.9482,-1.9446,-2.0742,-2.1016,-2.0664,-2.0254,-1.9893,-1.9355,-1.7935,0.0,0.0,0.0,0.0,-1.8623,-1.9124,-2.0019,-2.085,-2.1289,-2.165,-2.1797,-2.1434,-2.0889,-1.9717,0.0,-1.6894,-1.6356,-1.4775,0.0,0.0,0.0,0.0,-1.7734,-1.8271,-1.9258,-2.0078,-2.0556,-2.0273,-1.9863,-1.9336,-1.8994,-1.8437,-1.7598,-1.7139,-1.6521,-1.5751,-1.4894,-1.3831,-1.2564,0.0,0.0,0.0,0.0,0.0,0.0,0.0,0.0,0.0,0.0,0.0,0.0,0.0,0.0,0.0,0.0,0.0,0.0,0.0,0.0,0.0,0.0,0.0,0.0,0.0,0.0,0.0,0.0,0.0,-1.5342,-1.6475,0.0,0.0,0.0,0.0,-1.7852,-1.8256,-1.887,-1.9746,-2.0586,-2.1444,-2.2324,-2.3184,-2.3838,-2.4287,-2.4326,-2.4365,-2.4385,-2.4404,-2.4414,-2.4414,-2.4414,-2.4414,-2.4414,-2.4414,-2.4414,-2.4316,-2.2969,-2.2393,-2.2227,-2.0997,-2.0498,-2.0478,-2.0527,-2.0752,-2.1083,-2.1161,-2.1181,-2.1288,-2.21,-2.1514,-2.0449,-1.9902,-1.9153,0.0,0.0,-1.9482,-2.0019,-2.0839,-2.1112,-2.1278,-2.1748,-2.1865,-2.1875,-2.1855,-2.1816,-2.126,0.0,-1.8164,-1.7314,-1.7207,0.0,-1.6726,-1.7129,-1.7637,-1.8281,-1.9111,-1.9629,-2.0078,-2.0556,-2.0586,-2.0233,-1.9355,-1.9268,-1.8887,-1.8037,-1.7578,-1.7148,-1.6658,-1.579,-1.4746,-1.3467,-1.2554,0.0,0.0,0.0,0.0,0.0,0.0,0.0,0.0,0.0,0.0,0.0,0.0,0.0,0.0,0.0,0.0,0.0,0.0,0.0,0.0,0.0,0.0,0.0,0.0,0.0,0.0,0.0,0.0,-1.7389,-1.8389,0.0,-1.8228,-1.8662,-1.9189,-1.9619,-2.0566,-2.1346,-2.1921,-2.2769,-2.3418,-2.373,-2.4033,-2.4541,-2.5216,-2.5216,-2.5499,-2.6094,-2.6094,-2.6094,-2.6094,-2.6094,-2.6094,-2.6094,-2.6094,-2.5937,-2.5625,-2.4893,-2.4248,-2.3691,-2.3223,-2.3047,-2.3047,-2.3047,-2.2969,-2.2881,-2.2881,-2.2695,-2.2418,-2.25,-2.2012,-2.1427,-2.123,-2.0967,-2.0762,-2.0918,-2.126,-2.166,-2.1973,-2.2214,-2.2457,-2.2613,-2.2652,-2.2652,-2.2652,-2.248,-2.2109,-2.1484,-2.0547,-1.9512,-1.8389,-1.8516,-1.8555,-1.7881,-1.8613,-1.9346,-1.9648,-2.0068,-2.0391,-2.0586,-2.0605,-2.0253,-1.9365,-1.9287,-1.8926,-1.8066,-1.7617,-1.7187,-1.6716,-1.6152,-1.5225,-1.3909,-1.3324,-1.2119,0.0,0.0,0.0,0.0,0.0,0.0,0.0,0.0,0.0,0.0,0.0,0.0,0.0,0.0,0.0,0.0,0.0,0.0,0.0,0.0,0.0,0.0,0.0,0.0,0.0,0.0,-1.8281,-1.8948,-1.9961,-2.041,-1.999,-2.0586,-2.1191,-2.1662,-2.2588,-2.3281,-2.351,-2.4394,-2.4816,-2.4816,-2.5146,-2.5528,-2.6113,-2.6122,-2.6455,-2.7012,-2.7012,-2.7012,-2.7012,-2.7012,-2.7012,-2.7012,-2.7012,-2.6855,-2.6572,-2.6289,-2.582,-2.5234,-2.4648,-2.4414,-2.4414,-2.4414,-2.4238,-2.4004,-2.4004,-2.3721,-2.331,-2.3037,-2.2656,-2.2305,-2.2305,-2.2305,-2.2305,-2.2305,-2.251,-2.2682,-2.2682,-2.2886,-2.3091,-2.3091,-2.3091,-2.3091,-2.3091,-2.2877,-2.2682,-2.2682,-2.2041,-2.1094,-1.9894,-2.0205,-2.0293,-1.9443,-2.0039,-2.0527,-2.0342,-2.0615,-2.0732,-2.0615,-2.0605,-2.0253,-1.9365,-1.915,-1.8701,-1.7852,-1.7402,-1.6904,-1.6287,-1.6006,-1.5234,-1.3919,-1.3213,-1.2207,-1.0878,0.0,0.0,0.0,0.0,0.0,0.0,0.0,0.0,0.0,0.0,0.0,0.0,0.0,0.0,0.0,0.0,0.0,0.0,0.0,0.0,0.0,0.0,0.0,-1.7044,-1.8469,-1.9512,-1.9961,-2.1152,-2.1787,-2.1337,-2.2471,-2.3413,-2.3779,-2.4209,-2.4453,-2.4453,-2.5245,-2.5732,-2.5732,-2.6582,-2.7021,-2.7031,-2.7031,-2.7041,-2.7051,-2.7051,-2.7051,-2.7051,-2.7051,-2.7051,-2.7051,-2.7051,-2.7051,-2.7031,-2.7031,-2.7021,-2.6846,-2.5146,-2.4482,-2.4473,-2.4463,-2.4453,-2.4434,-2.4424,-2.415,-2.3809,-2.3809,-2.3525,-2.313,-2.312,-2.311,-2.311,-2.3101,-2.3091,-2.3091,-2.3091,-2.3091,-2.3091,-2.3091,-2.3091,-2.3091,-2.3091,-2.3091,-2.3091,-2.3091,-2.248,-2.1924,-2.1904,-2.1904,-2.1904,-2.1885,-2.1885,0.0,-2.1249,-2.119,-2.1064,-2.0654,-2.0605,-2.0253,-1.9365,-1.8861,-1.8256,-1.7432,-1.6973,-1.6317,-1.5469,-1.542,-1.4814,-1.3555,-1.2279,-1.1398,-1.0928,0.0,0.0,0.0,0.0,0.0,0.0,0.0,0.0,0.0,0.0,0.0,0.0,0.0,0.0,0.0,0.0,0.0,0.0,0.0,0.0,0.0,0.0,-1.6786,-1.7788,-1.9497,-2.1044,-2.2087,-2.2852,-2.334,-2.3481,-2.3867,-2.4121,-2.4238,-2.4894,-2.5323,-2.5323,-2.6191,-2.667,-2.667,-2.6894,-2.7168,-2.748,-2.749,-2.7637,-2.7939,-2.7939,-2.7939,-2.7939,-2.7939,-2.7939,-2.7939,-2.7939,-2.7773,-2.749,-2.749,-2.7305,-2.6934,-2.6152,-2.585,-2.581,-2.5488,-2.5166,-2.4844,-2.4531,-2.4346,-2.4248,-2.4248,-2.416,-2.4014,-2.3701,-2.3613,-2.3545,-2.3188,-2.3091,-2.3091,-2.3091,-2.3091,-2.3091,-2.3091,-2.3091,-2.3091,-2.3091,-2.3091,-2.3091,-2.3091,-2.2906,-2.2705,-2.2393,-2.2344,-2.2236,-2.1934,-2.1885,0.0,-2.1249,-2.119,-2.1064,-2.0654,-2.0605,-2.0253,-1.9365,-1.918,-1.8613,-1.7461,-1.6973,-1.6443,-1.5938,-1.5576,-1.4923,-1.3948,-1.3008,-1.2171,0.0,0.0,0.0,0.0,0.0,0.0,0.0,0.0,0.0,0.0,0.0,0.0,0.0,0.0,0.0,0.0,0.0,0.0,0.0,0.0,0.0,0.0,-1.7289,-1.8963,-1.9996,-2.1236,-2.2383,-2.3301,-2.3789,-2.4219,-2.4648,-2.4863,-2.5049,-2.5225,-2.5879,-2.622,-2.622,-2.6914,-2.7285,-2.7285,-2.7461,-2.7676,-2.793,-2.793,-2.8057,-2.8291,-2.8291,-2.8291,-2.8291,-2.8291,-2.8291,-2.8291,-2.8291,-2.8154,-2.793,-2.793,-2.7783,0.0,0.0,0.0,0.0,0.0,-2.5566,-2.5312,-2.5059,-2.4844,-2.4687,-2.4687,-2.456,-2.4375,-2.4121,-2.4053,-2.3965,-2.3535,-2.3408,-2.3369,-2.314,-2.3091,-2.3091,-2.3091,-2.3091,-2.3091,-2.3091,-2.3091,-2.3091,-2.3091,-2.3091,0.0,-2.2769,-2.273,-2.2652,-2.2451,-2.2412,-2.2256,-2.1785,-2.1621,-2.1338,-2.0898,-2.0713,-2.0331,-1.9609,-1.9219,0.0,0.0,0.0,-1.6172,-1.5576,-1.5107,0.0,0.0,0.0,0.0,0.0,0.0,0.0,0.0,-1.1281,-1.1179,0.0,0.0,0.0,0.0,0.0,0.0,0.0,0.0,0.0,0.0,0.0,0.0,0.0,0.0,0.0,0.0,-1.9085,-2.1493,-2.2782,-2.3207,-2.356,-2.3887,-2.4307,-2.4736,-2.5223,-2.5615,-2.6045,-2.6426,-2.6855,-2.709,-2.709,0.0,0.0,0.0,0.0,-2.8291,-2.8291,-2.8291,-2.8291,-2.8291,-2.8291,-2.8291,-2.8291,-2.8291,-2.8291,-2.8291,-2.8291,-2.8291,-2.8291,-2.8291,-2.8291,-2.8213,-2.7402,-2.6826,-2.6406,-2.5977,-2.5762,-2.5752,-2.5703,0.0,0.0,-2.5194,-2.4883,-2.4551,-2.4502,-2.4492,-2.4404,-2.3975,-2.3828,-2.3701,-2.331,-2.313,-2.3091,-2.3091,-2.3091,-2.3091,-2.3091,-2.3091,-2.3091,-2.3091,-2.3091,-2.3091,-2.3091,-2.3091,-2.3091,-2.3091,-2.3091,-2.2945,-2.2568,-2.2187,-2.1768,-2.1249,0.0,0.0,-1.9951,-1.9182,-1.852,-1.8047,-1.6836,-1.5831,-1.5039,-1.4601,-1.4377,-1.4328,-1.4328,-1.4299,-1.425,-1.425,-1.4475,-1.4911,-1.2886,-1.2772,0.0,0.0,0.0,0.0,0.0,0.0,0.0,0.0,0.0,0.0,0.0,0.0,0.0,0.0,0.0,-1.7655,-1.993,-2.1966,-2.3542,-2.4334,-2.4773,-2.4861,-2.5205,-2.5654,-2.6084,-2.6514,-2.6807,-2.6894,-2.7295,-2.7539,-2.7539,-2.7939,-2.8174,-2.8174,-2.8252,-2.8291,-2.8291,-2.8291,-2.8291,-2.8291,0.0,0.0,-2.8291,-2.8291,-2.8291,-2.8291,-2.8291,-2.8291,-2.8291,-2.8291,-2.8291,-2.8242,-2.7734,-2.7275,-2.6846,-2.6416,-2.626,-2.6211,-2.581,-2.5635,-2.5557,-2.5557,-2.5499,-2.541,-2.5049,-2.4941,0.0,-2.4414,-2.4053,-2.3769,-2.3682,-2.3364,-2.3091,-2.3091,-2.3091,-2.3091,-2.3091,-2.3091,-2.3091,-2.3091,-2.3091,-2.3091,-2.3091,-2.3091,-2.3091,-2.3091,-2.3091,-2.2945,-2.2568,-2.2441,-2.21,-2.1278,-2.1112,-2.0742,-1.998,-1.9766,-1.9189,-1.8076,-1.7129,-1.6502,-1.6326,-1.6248,-1.6024,-1.5723,-1.5713,-1.5518,-1.5166,-1.5166,-1.5391,-1.5821,-1.4705,-1.4527,0.0,0.0,0.0,0.0,0.0,0.0,0.0,0.0,0.0,0.0,0.0,-1.2319,0.0,0.0,-1.6807,-1.939,-2.1073,-2.272,-2.4602,-2.5353,-2.5644,-2.543,-2.5791,-2.623,-2.666,-2.709,-2.7344,-2.7344,-2.7734,-2.7978,-2.7978,-2.8174,-2.8291,-2.8291,-2.8496,-2.8603,-2.8603,-2.8828,-2.8935,-2.8935,-2.8935,-2.8935,-2.8926,-2.8711,-2.8603,-2.8594,-2.8389,-2.8291,-2.8291,-2.8291,-2.8291,-2.8271,-2.8057,-2.7715,-2.7285,-2.6855,-2.6572,-2.6357,-2.6143,-2.5918,-2.5693,-2.5693,-2.5693,-2.5645,-2.5469,-2.54,-2.5312,-2.4863,-2.4434,-2.4053,-2.3848,-2.3467,-2.3091,-2.3091,-2.3091,-2.3091,-2.3091,-2.3091,-2.3091,-2.3091,-2.3091,-2.3091,-2.3091,-2.3091,-2.3091,-2.3091,-2.3091,-2.3023,-2.2808,-2.2604,-2.2275,-2.1631,-2.1327,-2.0927,-2.0293,-2.0039,-1.9453,-1.8354,-1.7886,-1.7467,-1.708,-1.7061,-1.6855,-1.6406,-1.6396,-1.6289,-1.6044,-1.6044,-1.6299,-1.6741,-1.6289,-1.6084,0.0,0.0,0.0,0.0,0.0,0.0,0.0,0.0,-1.1603,-1.2538,-1.2973,-1.3708,-1.5346,-1.6618,-1.8178,-2.046,-2.2167,-2.3718,-2.5145,-2.5823,-2.6147,-2.5984,-2.6366,-2.6768,-2.7109,-2.7529,-2.7836,-2.7836,-2.8096,-2.8291,-2.8291,-2.8291,-2.833,-2.8408,-2.874,-2.8955,-2.9043,-2.9394,-2.9626,-2.9626,-2.9626,-2.9626,-2.9616,-2.9209,-2.9004,-2.8896,-2.8476,-2.8291,-2.8291,-2.8291,-2.8291,-2.8291,-2.8291,-2.8086,-2.7787,-2.7305,-2.6924,-2.6611,-2.6445,-2.6162,-2.5801,-2.5713,-2.5693,-2.5693,-2.5693,-2.5693,-2.5615,-2.5303,-2.4883,-2.4443,-2.4023,-2.3594,-2.3198,-2.311,-2.3091,-2.3091,-2.3091,-2.3091,-2.3091,-2.3091,-2.3091,-2.3091,-2.3091,-2.3091,-2.3091,-2.3091,-2.3091,-2.3091,-2.3091,-2.2799,-2.2441,-2.1934,-2.1572,-2.1143,-2.0644,-2.0166,-1.9619,-1.889,-1.8773,-1.8457,-1.7817,-1.7754,-1.7588,-1.7204,-1.7116,-1.7106,-1.7194,-1.7106,-1.7291,-1.7754,-1.7754,-1.748,-1.0452,-1.0445,0.0,-1.1149,-1.1109,-1.1356,0.0,0.0,-1.2918,-1.4035,-1.4509,-1.4948,-1.5657,-1.7774,-1.9376,-1.9418,-2.2568,-2.4801,-2.4188,-2.4823,-2.5768,-2.6906,-2.7324,-2.7591,-2.764,-2.7969,-2.8223,-2.8223,-2.8262,-2.8291,-2.8291,-2.8291,-2.8467,-2.8838,-2.8896,-2.9101,-2.9492,-2.9541,-2.9626,-2.9626,-2.9626,-2.9626,-2.9626,-2.9577,-2.9287,-2.8896,-2.8476,-2.8291,-2.8291,-2.8291,-2.8291,-2.8291,-2.8291,-2.8262,-2.8174,-2.7744,-2.7611,-2.7412,-2.665,-2.6357,-2.625,-2.5859,-2.5693,-2.5693,-2.5693,-2.5693,-2.5674,-2.5625,-2.5342,-2.4893,-2.4463,-2.4033,-2.3623,-2.3188,-2.3091,-2.3091,-2.3091,-2.3091,-2.3091,-2.3091,-2.3091,-2.3091,-2.3091,-2.3091,-2.3091,-2.3091,-2.3091,-2.3091,-2.3091,-2.3052,-2.2721,-2.1973,-2.1846,-2.1475,-2.0674,-2.0166,-1.9873,-1.9775,-1.9424,-1.917,-1.9082,-1.9072,-1.9053,-1.9004,-1.8588,-1.8578,-1.9004,-1.8578,-1.8617,-1.9072,-1.9072,-1.8633,-1.1598,0.0,0.0,0.0,-1.2365,-1.2779,-1.3694,-1.3841,-1.4015,-1.4856,-1.5264,-1.5778,-1.677,-1.7665,-1.8681,0.0,-2.1538,-2.2963,-2.4377,-2.4368,-2.5005,-2.697,-2.6774,-2.687,-2.7974,-2.8077,-2.8121,-2.8291,-2.8373,-2.8499,-2.8662,-2.8896,-2.9111,-2.9287,-2.9531,-2.9746,-2.9932,-3.0205,-3.0342,-3.0342,-3.0342,-3.0342,-3.0332,-3.0059,-2.956,-2.8906,-2.873,-2.8525,-2.8291,-2.8291,-2.8291,-2.8291,-2.8291,-2.8291,-2.8271,-2.8096,-2.7881,-2.7669,-2.7307,-2.6807,-2.6357,-2.6172,-2.5947,-2.5693,-2.5693,-2.5693,-2.5693,-2.5693,-2.541,-2.4971,-2.4531,-2.4102,-2.3682,-2.3198,-2.3091,-2.3091,-2.3091,-2.3091,-2.3091,-2.3091,-2.3091,-2.3091,-2.3091,-2.3091,-2.3091,-2.3091,-2.3091,-2.3091,-2.3091,-2.3091,-2.2769,-2.1982,-2.166,-2.125,-2.0654,-2.0439,-2.0293,-2.0293,-2.0165,-1.9922,-1.9668,-1.9648,-1.9541,-1.9287,-1.9111,-1.9102,-1.9287,-1.9102,-1.9111,-1.9287,-1.9287,-1.9092,-1.2245,0.0,0.0,-1.3012,-1.3507,-1.3939,-1.4362,-1.4609,-1.493,-1.5518,-1.5865,-1.6353,-1.7435,-1.7679,0.0,-2.0124,-2.0723,-2.1674,-2.3653,-2.3402,-2.3774,-2.5788,-2.5083,-2.5061,-2.6775,-2.7166,-2.745,-2.7844,-2.7931,-2.826,-2.8927,-2.9283,-2.9573,-2.9736,-2.9992,-3.0206,-3.0391,-3.0723,-3.0889,-3.0889,-3.0889,-3.0889,-3.0869,-3.041,-2.9795,-2.9092,-2.8975,-2.8682,-2.8291,-2.8291,-2.8291,-2.8291,-2.8291,-2.8291,-2.8291,-2.8291,-2.8096,-2.7875,-2.7757,-2.7307,-2.6699,-2.6465,-2.6172,-2.5849,-2.5723,-2.5693,-2.5693,-2.5693,-2.5508,-2.5156,-2.4707,-2.4287,-2.3857,-2.3418,-2.3179,-2.3091,-2.3091,-2.3091,-2.3091,-2.3091,-2.3091,-2.3091,-2.3091,-2.3091,-2.3091,-2.3091,-2.3091,-2.3091,-2.3091,-2.2994,-2.2691,-2.2129,-2.1562,-2.1064,-2.0781,-2.0674,-2.0605,-2.0605,-2.0605,-2.0458,-2.0107,-2.0088,-1.9951,-1.9648,-1.9521,-1.9521,-1.9639,-1.9521,-1.9521,-1.9639,-1.9639,-1.9639,0.0,0.0,-1.3313,-1.3901,-1.4269,-1.4643,-1.5224,-1.5364,-1.5538,-1.6126,-1.648,-1.6767,-1.717,-1.8281,-1.9017,-1.8614,-2.0658,-2.2013,-2.1347,-2.1488,-2.2033,-2.3021,-2.2078,-2.1898,0.0,-2.485,-2.5951,-2.6669,-2.677,-2.7465,-2.9028,-2.9122,-2.9418,-3.0166,-2.9919,-3.0142,-3.0869,-3.0889,-3.0889,-3.0889,-3.0889,-3.0889,-3.0869,-3.041,-2.9961,-2.9531,-2.9101,-2.8682,-2.8291,-2.8291,-2.8291,-2.8291,-2.8291,-2.8291,-2.8291,-2.8291,-2.8281,-2.8213,-2.7865,-2.7699,-2.7542,-2.666,-2.6377,-2.6289,-2.582,-2.5693,-2.5693,-2.5693,-2.5674,-2.5567,-2.5166,-2.4727,-2.4287,-2.3867,-2.3447,-2.3091,-2.3091,-2.3091,-2.3091,-2.3091,-2.3091,-2.3091,-2.3091,-2.3091,-2.3091,-2.3091,-2.3091,-2.3091,-2.3091,-2.274,-2.2519,-2.249,-2.1697,-2.119,-2.1181,-2.081,-2.0605,-2.0605,-2.0605,-2.0595,-2.0586,-2.0586,-2.0576,-2.0566,-2.0107,-2.0107,-2.0566,-2.0098,-2.0107,-2.0566,-2.0566,-2.0566,0.0,0.0,-1.3935,-1.4566,-1.489,-1.5204,-1.5591,-1.5685,-1.5738,-1.5939,-1.6213,-1.6453,-1.6603,-1.7316,-1.7925,-1.8124,-1.9198,-2.0336,-2.1046,-2.0722,-2.0943,-2.2349,-2.1534,0.0,0.0,0.0,0.0,-2.4714,-2.5839,-2.6825,-2.7596,-2.8896,-2.9736,-2.9996,-3.0112,-3.0306,-3.0577,-3.0762,-3.0889,-3.0889,-3.0889,-3.0889,-3.0889,-3.0732,-3.041,-2.9961,-2.9531,-2.9101,-2.8682,-2.8408,-2.8291,-2.8291,-2.8291,-2.8291,-2.8291,-2.8291,-2.8291,-2.8271,-2.8135,-2.79,-2.762,-2.6992,-2.6621,-2.6309,-2.582,-2.5693,-2.5693,-2.5693,-2.5693,-2.5635,-2.5185,-2.4961,-2.4668,-2.3955,-2.3682,-2.3496,-2.3159,-2.3091,-2.3091,-2.3091,-2.3091,-2.3091,-2.3091,-2.3091,-2.3091,-2.3091,-2.3091,-2.3091,-2.3091,-2.2974,-2.2822,-2.2539,-2.2256,-2.1973,-2.1689,-2.126,-2.1016,-2.1016,-2.0732,-2.0605,-2.0605,-2.0605,-2.0605,-2.0605,-2.042,-2.0458,-2.0605,-2.0458,-2.0458,-2.0605,-2.0605,-2.0605,0.0,-1.4035,-1.4543,-1.513,-1.5418,-1.5598,-1.5738,-1.5784,-1.5811,-1.5965,-1.6139,-1.6355,-1.6413,-1.6734,-1.7221,-1.7876,-1.8306,-1.905,-2.0394,-1.995,-1.9891,-2.0955,-2.0402,0.0,0.0,0.0,0.0,-2.3142,-2.4359,-2.5394,-2.622,-2.8034,-2.9126,-2.9194,-2.9795,-3.0098,-3.0216,-3.0577,-3.0762,-3.0889,-3.0889,-3.0889,-3.0889,-3.0889,-3.0635,-3.0185,-2.9912,-2.9463,-2.8896,-2.8633,-2.8428,-2.8291,-2.8291,-2.8291,-2.8291,-2.8291,-2.8291,-2.8291,-2.8291,-2.8115,-2.7793,-2.7207,-2.6836,-2.6504,-2.5869,-2.5693,-2.5693,-2.5693,-2.5693,-2.5625,-2.5381,-2.5195,-2.494,-2.418,-2.3896,-2.3672,-2.3188,-2.3091,-2.3091,-2.3091,-2.3091,-2.3091,-2.3091,-2.3091,-2.3091,-2.3091,-2.3091,-2.3091,-2.3091,-2.3091,-2.2994,-2.2721,-2.2607,-2.2402,-2.2129,-2.1719,-2.1465,-2.1465,-2.1055,-2.0801,-2.0801,-2.0693,-2.0605,-2.0605,-2.0605,-2.0605,-2.0605,-2.0605,-2.0605,-2.0605,-2.0605,-2.0605,-1.4309,-1.477,-1.5137,-1.5691,-1.5784,-1.5784,-1.5784,-1.5784,-1.5905,-1.6172,-1.6226,-1.6306,0.0,0.0,-1.6954,-1.7802,-1.7955,-1.833,-1.9296,-1.9125,-1.8945,0.0,0.0,0.0,0.0,0.0,0.0,-2.1955,0.0,-2.3326,-2.4911,-2.6482,-2.7547,-2.7915,-2.8888,-2.9558,-2.9863,-3.0216,-3.0509,-3.083,-3.083,-3.083,-3.083,-3.0889,-3.0644,-3.0225,-3.0205,-2.9717,-2.8945,-2.8926,-2.8672,-2.8291,-2.8291,-2.8291,-2.8291,-2.8291,-2.8291,-2.8291,-2.8291,-2.8291,-2.8154,-2.7295,-2.7012,-2.6855,-2.5947,-2.5693,-2.5693,-2.5693,-2.5693,-2.5693,-2.5693,-2.542,-2.499,-2.4551,-2.4131,-2.3701,-2.3227,-2.311,-2.3091,-2.3091,-2.3091,-2.3091,-2.3091,-2.3091,-2.3091,-2.3091,-2.3091,-2.3091,-2.3091,-2.3091,-2.3091,-2.3091,-2.2783,-2.2549,-2.2549,-2.2158,-2.1924,-2.1924,-2.1504,-2.1229,-2.1229,-2.084,-2.0635,-2.0635,-2.0615,-2.0605,-2.0605,-2.0605,-2.0605,-2.0605,-2.0605,-2.0605,-1.4669,-1.5224,-1.5645,-1.5792,-1.5784,-1.5784,-1.5784,-1.5784,-1.5792,-1.5645,-1.5618,-1.5578,0.0,0.0,0.0,-1.7235,-1.7749,0.0,-1.9245,-1.9299,0.0,0.0,0.0,-1.9259,-1.9546,-1.9579,0.0,0.0,-2.1716,-2.2609,-2.3233,-2.4727,-2.6147,-2.7194,-2.7735,-2.8522,-2.9558,-2.9863,-3.0049,-3.0167,-3.0167,-3.0167,-3.0167,-3.0401,-3.0451,-3.0316,-3.0217,-2.9893,-2.9375,-2.9053,-2.8672,-2.8291,-2.8291,-2.8291,-2.8291,-2.8291,-2.8291,-2.8291,-2.8291,-2.8291,-2.8154,-2.7295,-2.7012,-2.6855,-2.5947,-2.5693,-2.5693,-2.5693,-2.5693,-2.5693,-2.5693,-2.5606,-2.5459,-2.501,-2.457,-2.4141,-2.3711,-2.3369,-2.3091,-2.3091,-2.3091,-2.3091,-2.3091,-2.3091,-2.3091,-2.3091,-2.3091,-2.3091,-2.3091,-2.3091,-2.3091,-2.3091,-2.3003,-2.2935,-2.2935,-2.2598,-2.2353,-2.2353,-2.1953,-2.1719,-2.1719,-2.1299,-2.1064,-2.1064,-2.0732,-2.0605,-2.0605,-2.0605,-2.0605,-2.0605,-2.0605,-2.0605,-1.503,-1.5578,-1.6025,-1.6025,-1.6025,-1.5985,-1.5811,-1.5732,-1.5518,-1.5097,-1.5117,0.0,0.0,0.0,0.0,0.0,0.0,0.0,-1.9045,-1.9392,-1.9559,0.0,-1.9673,0.0,-1.9973,-1.9993,-2.0114,0.0,-2.114,-2.1636,-2.1744,-2.3271,-2.474,-2.6095,-2.6269,-2.6814,-2.7718,-2.7907,-2.8334,-2.9076,-2.9076,-2.9381,-2.9931,-3.0098,-3.0157,-3.0197,0.0,-2.9794,-2.9383,-2.9085,-2.8739,-2.8291,-2.8291,-2.8291,-2.8291,-2.8291,-2.8291,-2.8291,-2.8291,-2.8291,-2.8184,-2.7519,-2.7168,-2.6894,-2.6221,-2.584,-2.5693,-2.5693,-2.5693,-2.5693,-2.5693,-2.5693,-2.5577,-2.5223,-2.4883,-2.4531,-2.3926,-2.3594,-2.3369,-2.313,-2.3091,-2.3091,-2.3091,-2.3091,-2.3091,-2.3091,-2.3091,-2.3091,-2.3091,-2.3091,-2.3091,-2.3091,-2.3091,-2.3091,-2.3091,-2.2877,-2.274,-2.274,-2.2393,-2.2158,-2.2158,-2.1522,-2.119,-2.119,-2.0986,-2.0859,-2.0859,-2.0859,-2.0859,-2.0859,-2.0693,-2.0605,-1.5424,-1.5885,-1.6321,-1.6321,-1.6321,-1.6186,-1.5845,-1.5545,-1.517,-1.4583,0.0,0.0,-1.4122,0.0,-1.5498,-1.6214,0.0,-1.7849,-1.8791,-1.9392,-1.9773,-1.9846,-2.0114,-2.0307,-2.0347,-2.0347,-2.0454,-2.0715,-2.0735,-2.0735,-2.0735,-2.2068,-2.345,-2.4687,-2.4933,-2.5109,-2.546,-2.546,-2.6261,-2.7864,-2.7864,-2.8531,-2.9813,-2.9804,-2.9863,-2.9863,-2.9865,0.0,-2.9066,-2.9008,-2.8694,-2.8184,-2.8184,-2.8184,-2.8237,-2.8184,-2.8184,-2.8237,-2.8184,-2.8184,-2.8116,-2.7803,-2.7373,-2.6934,-2.6514,-2.6084,-2.5693,-2.5693,-2.5693,-2.5684,-2.5635,-2.5645,-2.5538,-2.5196,-2.5117,-2.4863,-2.4121,-2.3867,-2.3662,-2.3179,-2.3091,-2.3091,-2.3091,-2.3091,-2.3091,-2.3091,-2.3091,-2.3091,-2.3091,-2.3091,-2.3091,-2.3091,-2.3091,-2.3091,-2.3091,-2.3091,-2.3091,-2.3091,-2.275,-2.2598,-2.2598,-2.1785,-2.1366,-2.1366,-2.1307,-2.1278,-2.1278,-2.1278,-2.1249,-2.1181,-2.083,-2.0664,-1.602,-1.6199,-1.6321,-1.6321,-1.6321,-1.6132,-1.5591,-1.5251,0.0,0.0,0.0,-1.38,-1.37,-1.4199,0.0,-1.6099,0.0,0.0,0.0,0.0,-1.9619,0.0,0.0,0.0,0.0,0.0,0.0,0.0,0.0,-2.1036,-2.1036,-2.1328,-2.2034,-2.3387,-2.4432,-2.5056,-2.5117,-2.5117,-2.5782,-2.7194,-2.7194,-2.7873,-2.9163,-2.945,-2.9568,-2.9608,-2.9736,0.0,-2.8756,-2.8646,-2.8215,-2.7539,-2.7539,-2.7755,-2.796,-2.7647,-2.7755,-2.7906,-2.7647,-2.7539,-2.758,-2.7645,-2.7373,-2.6934,-2.6514,-2.6084,-2.5693,-2.5693,-2.5693,-2.5645,-2.544,-2.5391,-2.5362,-2.5285,-2.5006,-2.4812,-2.4883,-2.4287,-2.3662,-2.3179,-2.3091,-2.3091,-2.3091,-2.3091,-2.3091,-2.3091,-2.3091,-2.3091,-2.3091,-2.3091,-2.3091,-2.3091,-2.3091,-2.3091,-2.3091,-2.3091,-2.3091,-2.3091,-2.3023,-2.2984,-2.2984,-2.2516,-2.2295,-2.2295,-2.1953,-2.1777,-2.1777,-2.1777,-2.1592,-2.119,-2.1112,-2.0918,-1.6152,-1.6386,-1.65,-1.65,-1.65,-1.6266,-1.5371,0.0,0.0,0.0,0.0,-1.328,-1.2967,0.0,0.0,0.0,0.0,0.0,0.0,0.0,0.0,0.0,0.0,0.0,0.0,0.0,0.0,0.0,0.0,-2.1109,-2.1109,-2.1783,-2.209,-2.2034,-2.3325,-2.3698,-2.2959,-2.2959,-2.3636,-2.4978,-2.4978,-2.566,-2.6952,-2.7804,-2.8224,-2.8206,-2.8837,0.0,-2.8418,-2.8125,-2.7765,-2.7377,-2.7377,-2.7485,-2.7638,-2.7476,-2.7485,-2.7638,-2.7485,-2.7377,-2.7403,-2.7525,-2.7174,-2.6768,-2.6727,-2.626,-2.5684,-2.5538,-2.5489,-2.543,-2.5137,-2.5079,-2.5137,-2.5284,-2.5112,-2.4878,-2.4775,-2.4137,-2.3483,-2.3013,-2.2925,-2.2925,-2.2925,-2.3013,-2.3091,-2.3091,-2.3091,-2.3091,-2.3091,-2.3091,-2.3091,-2.3091,-2.3091,-2.3091,-2.3091,-2.3091,-2.3091,-2.3091,-2.3091,-2.3091,-2.3091,-2.2691,-2.251,-2.251,-2.2314,-2.2207,-2.2207,-2.2207,-2.2109,-2.1853,-2.167,-2.1465,-1.6266,-1.6533,-1.6707,-1.6707,-1.6707,-1.638,-1.515,-1.4636,0.0,0.0,0.0,0.0,-1.2472,0.0,0.0,0.0,0.0,0.0,0.0,0.0,0.0,0.0,0.0,0.0,0.0,0.0,0.0,0.0,0.0,0.0,-2.1109,-2.209,-2.2215,-2.1109,-2.209,-2.2153,-2.1109,-2.1109,-2.179,-2.3076,-2.3076,-2.3752,-2.5056,-2.6095,-2.6547,-2.6515,-2.7226,0.0,0.0,-2.6852,-2.6609,-2.6482,-2.6482,-2.6472,-2.6527,-2.6482,-2.6472,-2.6527,-2.6482,-2.6482,-2.6527,-2.6715,-2.6673,-2.6541,-2.6756,-2.6216,-2.5489,-2.5284,-2.5235,-2.5137,-2.4883,-2.4833,-2.4883,-2.5088,-2.5073,-2.4945,-2.4462,-2.3898,-2.3338,-2.2917,-2.2773,-2.2706,-2.2706,-2.2882,-2.3057,-2.3057,-2.3057,-2.3091,-2.3091,-2.3091,-2.3091,-2.3091,-2.3091,-2.3091,-2.3091,-2.3091,-2.3091,-2.3091,-2.3091,-2.3091,-2.3091,-2.2822,-2.2646,-2.2646,-2.2646,-2.2646,-2.2646,-2.2646,-2.2598,-2.251,-2.2178,-2.1924,-1.6513,-1.6687,-1.6707,-1.6707,-1.6707,-1.6333,-1.489,0.0,0.0,0.0,-1.2589,-1.2452,-1.2703,0.0,0.0,0.0,0.0,0.0,0.0,0.0,0.0,0.0,0.0,0.0,0.0,0.0,0.0,0.0,0.0,0.0,-2.1109,-2.1235,-2.1229,-2.1109,-2.1235,-2.1229,-2.1109,-2.1109,-2.179,-2.3076,-2.3076,-2.3752,-2.4994,-2.5117,-2.5072,-2.4812,-2.4797,0.0,0.0,-2.3868,-2.3656,-2.3424,-2.3424,-2.3575,-2.3727,-2.3472,-2.3575,-2.3718,-2.3472,-2.3424,-2.3535,-2.4513,-2.5463,-2.6224,-2.6275,-2.5645,-2.499,-2.4932,-2.4932,-2.4883,-2.4587,-2.4529,-2.4529,-2.4587,-2.4747,-2.481,-2.4402,-2.3975,-2.3539,-2.3066,-2.2697,-2.2441,-2.2441,-2.2662,-2.2847,-2.2847,-2.2969,-2.3091,-2.3091,-2.3091,-2.3091,-2.3091,-2.3091,-2.3091,-2.3091,-2.3091,-2.3091,-2.3091,-2.3091,-2.3091,-2.3091,-2.3052,-2.3033,-2.3033,-2.3033,-2.3033,-2.3033,-2.3033,-2.2838,-2.251,-2.2471,-2.2041,-1.6286,-1.6446,-1.6446,-1.6446,-1.6446,-1.6059,-1.4589,0.0,0.0,-1.2699,-1.2385,-1.2338,-1.2458,-1.2764,0.0,0.0,0.0,0.0,0.0,0.0,0.0,0.0,0.0,0.0,0.0,0.0,0.0,0.0,0.0,0.0,-2.1109,-2.1109,-2.1109,-2.1109,-2.1109,-2.1109,-2.1109,-2.1109,-2.1355,-2.1908,-2.1908,-2.2153,-2.2654,-2.3512,-2.3695,-2.3422,-2.3913,0.0,0.0,-2.3279,-2.3079,-2.2974,-2.2974,-2.3087,-2.3127,-2.303,-2.3087,-2.3127,-2.303,-2.2974,-2.3143,-2.4044,-2.4029,-2.3887,-2.54,-2.5396,-2.4883,-2.4686,-2.4686,-2.4587,-2.439,-2.439,-2.448,-2.448,-2.4686,-2.4779,-2.4363,-2.3843,-2.3317,-2.2905,-2.2501,-2.223,-2.223,-2.2397,-2.2574,-2.2574,-2.2618,-2.2696,-2.2696,-2.2696,-2.2696,-2.2696,-2.2925,-2.3091,-2.3091,-2.3091,-2.3091,-2.3091,-2.3091,-2.3091,-2.3091,-2.3091,-2.3091,-2.3091,-2.3091,-2.3091,-2.3091,-2.3091,-2.3013,-2.2847,-2.2847,-2.2662,-1.5985,-1.6206,-1.6321,-1.6321,-1.6206,-1.5778,0.0,0.0,-1.3641,-1.2532,-1.2305,-1.2305,-1.2305,-1.2583,-1.3052,0.0,0.0,0.0,0.0,0.0,0.0,0.0,0.0,0.0,0.0,0.0,0.0,0.0,0.0,0.0,0.0,-2.1109,-2.1109,-2.1109,-2.1109,-2.1109,-2.1109,-2.1109,-2.1109,-2.1109,-2.1109,-2.1109,-2.1109,-2.1999,-2.2215,-2.1893,-2.2528,0.0,0.0,-2.2063,-2.1964,-2.1964,-2.1964,-2.1964,-2.1964,-2.1964,-2.1964,-2.1964,-2.1964,-2.1847,-2.1928,-2.2723,-2.2199,-2.1634,-2.363,-2.4204,-2.4075,-2.3569,-2.3669,-2.3886,-2.3737,-2.4044,-2.439,-2.439,-2.4538,-2.4611,-2.433,-2.369,-2.3084,-2.2797,-2.2324,-2.1963,-2.1963,-2.2176,-2.2309,-2.2309,-2.2353,-2.2397,-2.2397,-2.2397,-2.2432,-2.253,-2.2794,-2.3013,-2.3013,-2.3057,-2.3091,-2.3091,-2.3091,-2.3091,-2.3091,-2.3091,-2.3091,-2.3091,-2.3091,-2.3091,-2.3091,-2.3091,-2.3091,-2.3091,-2.3091,-2.3033,-1.5678,-1.6046,-1.6321,-1.6321,-1.6052,-1.5531,0.0,-1.3854,-1.3353,-1.2485,-1.2305,-1.2305,-1.2305,-1.2583,-1.2985,0.0,0.0,0.0,0.0,0.0,0.0,0.0,0.0,0.0,0.0,0.0,0.0,0.0,0.0,0.0,0.0,-2.1109,-2.1109,-2.1109,-2.1109,-2.1109,-2.1109,-2.1109,-2.1109,-2.1109,-2.1109,-2.1109,-2.1096,-2.0815,-2.0514,0.0,0.0,0.0,0.0,-1.943,-1.9424,-1.9424,-1.9424,-1.9424,-1.9424,-1.9424,-1.9424,-1.9424,-1.9424,-1.9229,-1.9097,-1.9864,-1.9927,-1.9872,-2.0687,-2.1709,-2.2316,-2.1242,-2.1709,-2.2526,-2.2526,-2.3338,-2.4202,-2.4202,-2.4202,-2.4202,-2.4202,-2.3519,-2.2904,-2.2904,-2.2245,-2.1696,-2.1696,-2.1919,-2.2097,-2.2097,-2.2264,-2.2397,-2.2397,-2.2397,-2.2485,-2.2759,-2.2803,-2.2803,-2.2803,-2.2969,-2.3091,-2.3091,-2.3091,-2.3091,-2.3091,-2.3091,-2.3091,-2.3091,-2.3091,-2.3091,-2.3091,-2.3091,-2.3091,-2.3091,-2.3091,-2.2877,-1.4355,-1.4761,-1.503,-1.483,-1.4856,-1.4683,-1.3707,-1.3527,-1.3347,-1.2485,-1.2305,-1.2305,-1.2305,-1.2378,-1.2839,-1.4006,0.0,0.0,0.0,0.0,0.0,0.0,0.0,0.0,0.0,0.0,0.0,0.0,0.0,0.0,0.0,-2.1109,-2.1109,-2.1109,-2.1109,-2.1109,-2.1109,-2.1109,-2.1109,-2.1109,-2.1109,-2.1002,-2.0808,-2.0722,-2.0408,0.0,0.0,0.0,0.0,-1.9424,-1.9424,-1.9424,-1.9424,-1.9424,-1.9424,-1.9424,-1.9424,-1.9397,-1.9132,-1.8998,-1.9007,-1.9613,-1.9223,-1.8668,-1.9487,-2.0518,-2.1344,-2.0987,-2.114,-2.1395,-2.1395,-2.2215,-2.3038,-2.3038,-2.3646,-2.4202,-2.4202,-2.3519,-2.2904,-2.2904,-2.2245,-2.1696,-2.1696,-2.1776,-2.183,-2.183,-2.1865,-2.1909,-2.1909,-2.1909,-2.1954,-2.2043,-2.223,-2.2495,-2.2969,-2.3047,-2.3091,-2.3091,-2.3091,-2.3091,-2.3091,-2.3091,-2.3091,-2.3091,-2.3091,-2.3091,-2.3091,-2.3091,-2.3091,-2.3091,-2.3091,-2.2754,0.0,-1.3831,-1.418,-1.4044,-1.4057,-1.3973,-1.324,-1.322,-1.3113,-1.2438,-1.2305,-1.2305,-1.2305,-1.2392,-1.2812,-1.3854,0.0,0.0,0.0,0.0,0.0,0.0,0.0,0.0,0.0,0.0,0.0,0.0,0.0,0.0,-2.1109,-2.1109,-2.1109,-2.1109,-2.1109,-2.1109,-2.1109,-2.1109,-2.1056,-2.0949,-2.0949,-2.0795,-2.0508,-2.0394,-2.0147,0.0,0.0,0.0,0.0,-1.9424,-1.9424,-1.9424,-1.9424,-1.9424,-1.9424,-1.9424,-1.9299,-1.9172,-1.8985,-1.8778,-1.8642,-1.8956,-1.8486,-1.7936,-1.8412,-1.9079,-1.9746,-2.0158,-2.0261,-2.0261,-2.0261,-2.1089,-2.1912,-2.1912,-2.2417,-2.2935,-2.2787,-2.2214,-2.1687,-2.1587,-2.1386,-2.1177,-2.1177,-2.1463,-2.1696,-2.1696,-2.1696,-2.1696,-2.1696,-2.1696,-2.1741,-2.183,-2.2008,-2.2318,-2.2794,-2.2828,-2.2828,-2.2828,-2.2828,-2.2828,-2.2828,-2.2925,-2.2969,-2.2969,-2.3057,-2.3091,-2.3091,-2.3091,-2.3091,-2.3091,-2.2925,-2.2705,0.0,-1.3051,-1.3603,-1.3561,-1.3515,-1.3352,-1.2929,-1.2823,0.0,-1.2365,-1.2305,-1.2318,-1.2358,-1.2596,-1.2891,-1.3267,0.0,0.0,0.0,0.0,0.0,0.0,0.0,0.0,0.0,0.0,0.0,0.0,0.0,0.0,-2.1082,-2.1076,-2.1069,-2.1049,-2.1049,-2.1069,-2.1109,-2.1089,-2.0942,-2.0675,-2.0655,-2.0488,-2.0133,-1.992,-1.9786,0.0,0.0,0.0,0.0,-1.9424,-1.9424,-1.9424,-1.9424,-1.9417,-1.9332,-1.9332,-1.9152,-1.8891,-1.8871,-1.8448,-1.7989,-1.7969,-1.7816,-1.7582,-1.7582,-1.7582,-1.7786,-1.8819,-1.9072,-1.9072,-1.9072,-1.9952,-2.0783,-2.0783,-2.0834,-2.0798,-2.0514,-2.0091,-1.9717,-1.9494,-1.9823,-2.0204,-2.0303,-2.1042,-2.1642,-2.1687,-2.1696,-2.1696,-2.1696,-2.1696,-2.1785,-2.2052,-2.2052,-2.2141,-2.2353,-2.2397,-2.2397,-2.2397,-2.2397,-2.2397,-2.2441,-2.2671,-2.2803,-2.2803,-2.3013,-2.3091,-2.3091,-2.3091,-2.3091,-2.3081,-2.2744,-2.2711,-0.8837,0.0,-1.1689,-1.1101,-1.1695,-1.2334,0.0,-1.2405,0.0,0.0,0.0,0.0,0.0,0.0,0.0,0.0,0.0,0.0,0.0,0.0,0.0,0.0,0.0,0.0,0.0,0.0,0.0,0.0,0.0,-2.1009,-2.0788,-2.0775,-2.0675,-2.0448,-2.0434,-2.0655,-2.1109,-2.0889,-2.0742,-2.0675,-2.0448,-2.0187,-1.99,-1.9833,-1.9679,0.0,0.0,0.0,-1.9424,-1.9424,-1.9424,-1.9424,-1.9424,-1.9225,-1.9025,-1.9025,-1.8844,-1.8557,-1.8275,-1.8109,-1.7955,-1.7769,-1.7642,-1.7582,-1.7582,-1.7582,-1.7635,-1.7891,-1.7996,-1.7996,-1.7996,-1.8767,-1.9591,-1.9591,-2.0261,-2.0861,-2.0782,-2.0257,-1.9789,-1.9701,-1.9389,-1.9384,-2.0158,-2.0484,-2.0853,-2.1597,-2.1696,-2.1696,-2.1696,-2.1696,-2.1741,-2.1785,-2.1776,-2.183,-2.1865,-2.2176,-2.2397,-2.2397,-2.2397,-2.2485,-2.2706,-2.2759,-2.2882,-2.3013,-2.3101,-2.3091,-2.3091,-2.3091,-2.3091,-2.3091,-2.2994,-2.2828,-0.633,-0.8608,-1.0959,-1.0313,-1.1021,-1.1856,-1.1916,0.0,0.0,0.0,0.0,0.0,0.0,0.0,0.0,0.0,0.0,0.0,0.0,0.0,0.0,0.0,0.0,0.0,0.0,0.0,0.0,0.0,0.0,-2.0782,-2.0488,-2.0474,-2.0401,-2.0234,-2.0173,-2.0388,-2.0702,-2.0555,-2.0408,-2.0274,-2.0114,-1.9887,-1.9599,-1.9599,-1.9512,0.0,0.0,0.0,-1.9424,-1.9424,-1.9424,-1.9352,-1.9219,-1.9065,-1.8911,-1.8778,-1.8537,-1.8263,-1.8049,-1.7902,-1.7809,-1.7635,-1.7582,-1.7582,-1.7582,-1.7582,-1.7582,-1.7582,-1.7582,-1.7582,-1.7582,-1.8048,-1.8454,-1.8454,-1.8923,-1.9347,-1.925,-1.8771,-1.8358,-1.8218,-1.817,-1.8427,-1.943,-1.9977,-2.0619,-2.1553,-2.1696,-2.1696,-2.1696,-2.1696,-2.1553,-2.1087,-2.1042,-2.0853,-2.0402,-2.1033,-2.1624,-2.2043,-2.2087,-2.2132,-2.2264,-2.2407,-2.2574,-2.2784,-2.2784,-2.2784,-2.2784,-2.2784,-2.2784,-2.2784,-2.2784,-2.2712,-0.4713,-0.7654,-1.0683,-0.9982,-1.0749,-1.1664,0.0,0.0,0.0,0.0,0.0,0.0,0.0,0.0,0.0,0.0,0.0,0.0,0.0,0.0,0.0,0.0,0.0,0.0,0.0,0.0,0.0,0.0,0.0,-2.0481,-2.018,-2.0167,-2.0147,-2.01,-2.01,-2.01,-2.01,-2.0147,-2.004,-1.98,-1.976,-1.9606,-1.9424,-1.9424,-1.9424,-1.9424,0.0,0.0,-1.9424,-1.9424,-1.9339,-1.9279,-1.9025,-1.8871,-1.8758,-1.8517,-1.823,-1.7922,-1.7922,-1.7802,-1.7582,-1.7582,-1.7582,-1.7582,-1.7582,-1.7582,-1.7582,-1.7582,-1.7582,-1.7582,-1.7582,-1.7582,-1.7582,-1.7582,-1.7582,-1.7515,-1.732,-1.7032,-1.6687,-1.64,-1.6766,-1.7431,-1.8388,-1.9293,-2.0158,-2.1087,-2.1275,-2.1275,-2.1275,-2.1275,-2.0952,-2.0158,-2.0068,-1.9749,-1.888,-1.9704,-2.0619,-2.1454,-2.1642,-2.1741,-2.1785,-2.2008,-2.223,-2.2397,-2.2397,-2.2397,-2.2397,-2.2397,-2.2397,-2.2397,-2.2397,-2.253,-0.5073,-0.7496,-0.9762,-0.85,-0.9821,-1.1478,0.0,0.0,0.0,0.0,0.0,0.0,0.0,0.0,0.0,0.0,0.0,0.0,0.0,0.0,0.0,0.0,0.0,0.0,0.0,0.0,0.0,0.0,0.0,-2.0174,-1.9887,-1.9867,-1.9753,-1.9506,-1.9499,-1.9499,-1.9499,-1.974,-1.9846,-1.98,-1.9553,-1.947,-1.9424,-1.9424,-1.9424,-1.9424,0.0,-1.9424,-1.9424,-1.9424,-1.9219,-1.8985,-1.8945,-1.8562,-1.8122,-1.8075,-1.7923,-1.7655,-1.7655,-1.7622,-1.7582,-1.7582,-1.7582,-1.7582,-1.7582,-1.7582,-1.7582,-1.7582,-1.7582,-1.7582,-1.7582,-1.7582,-1.7582,-1.7582,-1.7582,-1.7569,-1.7522,-1.734,-1.7045,-1.6693,-1.6554,-1.6697,-1.7416,-1.7645,-1.811,-1.9117,-1.9255,-1.9255,-1.9255,-1.9255,-1.9201,-1.9063,-1.9018,-1.8972,-1.8788,-1.9704,-2.0339,-2.0529,-2.1275,-2.1785,-2.2008,-2.222,-2.2353,-2.2397,-2.2397,-2.2397,-2.2397,-2.2397,-2.2397,-2.2397,-2.2397,-2.2441,-0.4798,-0.6838,-0.8871,-0.8371,-1.0053,-1.1927,0.0,0.0,0.0,0.0,0.0,0.0,0.0,0.0,0.0,0.0,0.0,0.0,0.0,0.0,0.0,0.0,0.0,0.0,0.0,0.0,0.0,0.0,0.0,0.0,-1.9579,-1.9566,-1.9506,-1.943,-1.9424,-1.9424,-1.9424,-1.9499,-1.9566,-1.9566,-1.9432,-1.9424,-1.9424,-1.9424,-1.9424,-1.9424,0.0,-1.9279,-1.9125,-1.9125,-1.8958,-1.8677,-1.8455,-1.8229,-1.7969,-1.7856,-1.7702,-1.7582,-1.7582,-1.7582,-1.7582,-1.7582,-1.7582,-1.7582,-1.7582,-1.7582,-1.7582,-1.7582,-1.7582,-1.7582,-1.7582,-1.7582,-1.7582,-1.7582,-1.7582,-1.7582,-1.7582,-1.7407,-1.7159,-1.7025,-1.663,-1.6566,-1.7428,-1.7395,-1.7645,-1.8657,-1.8788,-1.8788,-1.8788,-1.8788,-1.8611,-1.8056,-1.7971,-1.7785,-1.7217,-1.8102,-1.9347,-2.0952,-2.1454,-2.1553,-2.1132,-2.1212,-2.1024,-2.0475,-2.043,-2.043,-2.0475,-2.0979,-2.1257,-2.1302,-2.1767,-2.2087,-0.4737,-0.6368,-0.8161,-0.8552,0.0,0.0,0.0,0.0,0.0,0.0,0.0,0.0,0.0,0.0,0.0,0.0,0.0,0.0,0.0,0.0,0.0,0.0,0.0,0.0,0.0,0.0,0.0,0.0,0.0,0.0,-1.9437,-1.9424,-1.9424,-1.9424,-1.9424,-1.9424,-1.9424,-1.9424,-1.9424,-1.9424,-1.9424,-1.9424,-1.9424,-1.9424,-1.9424,-1.9424,-1.9292,-1.9132,-1.8918,-1.8851,-1.8651,-1.8364,-1.8082,-1.7949,-1.7856,-1.7669,-1.7582,-1.7582,-1.7582,-1.7582,-1.7582,-1.7582,-1.7582,-1.7582,-1.7582,-1.7582,-1.7582,-1.7582,-1.7582,-1.7582,-1.7582,-1.7582,-1.7582,-1.7582,-1.7582,-1.7582,-1.7582,-1.746,-1.7286,-1.7213,-1.6777,-1.664,-1.7348,-1.7165,-1.7232,-1.7963,-1.8095,-1.8095,-1.8095,-1.8095,-1.7824,-1.7044,-1.6951,-1.6723,-1.6204,-1.6864,-1.838,-2.0862,-2.0997,-2.0718,-1.9977,-1.9931,-1.9613,-1.8834,-1.8788,-1.8788,-1.8788,-1.9795,-2.0294,-2.0294,-2.1275,-2.183,-0.543,-0.6553,-0.7835,-0.8665,0.0,0.0,0.0,0.0,0.0,0.0,0.0,0.0,0.0,0.0,0.0,0.0,0.0,0.0,0.0,0.0,0.0,0.0,0.0,0.0,0.0,0.0,0.0,0.0,0.0,0.0,-1.9424,-1.9424,-1.9424,-1.9424,-1.9424,-1.9424,-1.9424,-1.9424,-1.9424,-1.9424,-1.9424,-1.9424,-1.9424,-1.9424,-1.9424,-1.9352,-1.9078,-1.8945,-1.8905,-1.8631,-1.8343,-1.8022,-1.8002,-1.7869,-1.7615,-1.7589,-1.7582,-1.7582,-1.7582,-1.7582,-1.7582,-1.7582,-1.7582,-1.7582,-1.7582,-1.7582,-1.7582,-1.7582,-1.7582,-1.7582,-1.7582,-1.7582,-1.7582,-1.7582,-1.7582,-1.7582,-1.7582,-1.7562,-1.7521,-1.7253,-1.6894,-1.6643,-1.6417,-1.6121,-1.592,-1.6015,-1.6015,-1.6015,-1.6015,-1.6015,-1.5967,-1.592,-1.5927,-1.6251,-1.7138,-1.7286,-1.7785,-1.8926,-1.9026,-1.8972,-1.8926,-1.8926,-1.888,-1.8788,-1.8788,-1.8788,-1.8788,-1.9795,-2.0294,-2.0294,-2.1275,-2.1687,-0.5218,-0.6599,-0.7997,-0.8163,0.0,0.0,0.0,0.0,0.0,0.0,0.0,0.0,0.0,0.0,0.0,0.0,0.0,0.0,0.0,0.0,0.0,0.0,0.0,0.0,0.0,0.0,0.0,0.0,0.0,0.0,-1.9424,-1.9424,-1.9424,-1.9424,-1.9185,-1.9092,-1.9092,-1.8911,-1.8824,-1.8824,-1.9192,-1.9272,-1.9092,-1.9092,-1.8991,-1.8818,-1.8704,-1.8551,-1.8315,-1.8209,-1.8036,-1.7756,-1.7756,-1.7689,-1.7582,-1.7582,-1.7582,-1.7582,-1.7582,-1.7582,-1.7582,-1.7582,-1.7582,-1.7582,-1.7582,-1.7582,-1.7582,-1.7582,-1.7582,-1.7582,-1.7582,-1.7582,-1.7582,-1.7582,-1.7582,-1.7582,-1.7582,-1.7582,-1.7495,-1.7259,-1.6907,-1.6613,-1.6375,-1.6025,-1.5784,-1.5784,-1.5784,-1.5784,-1.5784,-1.5784,-1.5784,-1.5784,-1.5784,-1.5967,-1.6346,-1.6393,-1.6527,-1.6897,-1.8095,-1.8519,-1.7878,-1.7878,-1.7544,-1.6936,-1.6943,-1.6943,-1.6943,-1.7963,-1.8427,-1.8473,-1.9438,-1.9894,-0.5253,-0.6522,-0.7915,0.0,0.0,0.0,0.0,0.0,0.0,0.0,0.0,0.0,0.0,0.0,0.0,0.0,0.0,0.0,0.0,0.0,0.0,0.0,0.0,0.0,0.0,0.0,0.0,0.0,0.0,0.0,0.0,-1.9149,-1.9149,-1.9149,-1.8891,-1.8784,-1.8784,-1.8591,-1.849,-1.8497,-1.8898,-1.8985,-1.8784,-1.8784,-1.8677,-1.8484,-1.839,-1.8237,-1.7982,-1.7889,-1.7776,-1.7582,-1.7582,-1.7582,-1.7582,-1.7582,-1.7582,-1.7582,-1.7582,-1.7582,-1.7582,-1.7582,-1.7582,-1.7582,-1.7582,-1.7582,-1.7582,-1.7582,-1.7582,-1.7582,-1.7582,-1.7582,-1.7582,-1.7582,-1.7582,-1.7582,-1.7582,-1.7508,-1.744,-1.7239,-1.6834,-1.6506,-1.6355,-1.6025,-1.5784,-1.5784,-1.5784,-1.5784,-1.5784,-1.5784,-1.5784,-1.5784,-1.5784,-1.5784,-1.5784,-1.5784,-1.5784,-1.5784,-1.7077,-1.7544,-1.6857,-1.6817,-1.6487,-1.5825,-1.5784,-1.5784,-1.5784,-1.6817,-1.7279,-1.7326,-1.8334,-1.8788,-0.5666,-0.6277,0.0,0.0,0.0,0.0,0.0,0.0,0.0,0.0,0.0,0.0,0.0,0.0,0.0,0.0,0.0,0.0,0.0,0.0,0.0,0.0,0.0,0.0,0.0,0.0,0.0,0.0,0.0,0.0,0.0,-1.849,-1.849,-1.849,-1.849,-1.849,-1.849,-1.8484,-1.8484,-1.8484,-1.8484,-1.8484,-1.849,-1.849,-1.8484,-1.8464,-1.8115,-1.7989,-1.7962,-1.7709,-1.7582,-1.7582,-1.7582,-1.7582,-1.7582,-1.7582,-1.7582,-1.7582,-1.7582,-1.7582,-1.7582,-1.7582,-1.7582,-1.7582,-1.7582,-1.7582,-1.7582,-1.7582,-1.7582,-1.7582,-1.7582,-1.7582,-1.7582,-1.7582,-1.7582,-1.7582,-1.7582,-1.7407,-1.7199,-1.7192,-1.6723,-1.6321,-1.6321,-1.6025,-1.5784,-1.5784,-1.5784,-1.5784,-1.5784,-1.5784,-1.5784,-1.5784,-1.5784,-1.5784,-1.5784,-1.5784,-1.5784,-1.5784,-1.5784,-1.5784,-1.5784,-1.5784,-1.5784,-1.5784,-1.5784,-1.5784,-1.5784,-1.681,-1.7286,-1.7326,-1.8288,-1.8788,-0.5853,0.0,0.0,0.0,0.0,0.0,0.0,0.0,0.0,0.0,0.0,0.0,0.0,0.0,0.0,0.0,0.0,0.0,0.0,0.0,0.0,0.0,0.0,0.0,0.0,0.0,0.0,0.0,0.0,0.0,0.0,-1.849,-1.849,-1.849,-1.829,-1.8129,-1.8129,-1.7963,-1.7849,-1.7849,-1.7849,-1.7969,-1.8129,-1.8129,-1.8056,-1.7849,-1.7756,-1.7722,-1.7716,-1.7622,-1.7582,-1.7582,-1.7582,-1.7582,-1.7582,-1.7582,-1.7582,-1.7582,-1.7582,-1.7582,-1.7582,-1.7582,-1.7582,-1.7582,-1.7582,-1.7582,-1.7582,-1.7582,-1.7582,-1.7582,-1.7582,-1.7582,-1.7582,-1.7582,-1.7582,-1.7522,-1.7373,-1.7266,-1.7079,-1.6663,-1.6442,-1.6206,-1.5999,-1.5885,-1.5784,-1.5784,-1.5784,-1.5784,-1.5784,-1.5784,-1.5784,-1.5784,-1.5784,-1.5784,-1.5784,-1.5784,-1.5784,-1.5784,-1.5784,-1.5784,-1.5784,-1.5784,-1.5784,-1.5784,-1.5784,-1.5784,-1.5784,-1.6109,-1.6251,-1.6251,-1.6574,-1.6709,-0.6861,0.0,0.0,0.0,0.0,0.0,0.0,0.0,0.0,0.0,0.0,0.0,0.0,0.0,0.0,0.0,0.0,0.0,0.0,0.0,0.0,0.0,0.0,0.0,0.0,0.0,0.0,0.0,0.0,0.0,0.0,-1.813,-1.813,-1.813,-1.7956,-1.7862,-1.7862,-1.7675,-1.7582,-1.7582,-1.7582,-1.7682,-1.7862,-1.7862,-1.7762,-1.7582,-1.7582,-1.7582,-1.7582,-1.7582,-1.7582,-1.7582,-1.7582,-1.7582,-1.7582,-1.7582,-1.7582,-1.7582,-1.7582,-1.7582,-1.7582,-1.7582,-1.7582,-1.7582,-1.7582,-1.7582,-1.7582,-1.7582,-1.7582,-1.7582,-1.7582,-1.7582,-1.7582,-1.7582,-1.7582,-1.7554,-1.7266,-1.7112,-1.6884,-1.6415,-1.6179,-1.6039,-1.5811,-1.5784,-1.5784,-1.5784,-1.5784,-1.5784,-1.5784,-1.5784,-1.5784,-1.5784,-1.5784,-1.5784,-1.5784,-1.5784,-1.5784,-1.5784,-1.5784,-1.5784,-1.5784,-1.5784,-1.5784,-1.5784,-1.5784,-1.5784,-1.5784,-1.5784,-1.5784,-1.5784,-1.5784,-1.5784,0.0,0.0,0.0,0.0,0.0,0.0,0.0,0.0,0.0,0.0,0.0,0.0,0.0,0.0,0.0,0.0,0.0,0.0,0.0,0.0,0.0,0.0,0.0,0.0,0.0,0.0,0.0,0.0,0.0,0.0,0.0,-1.7582,-1.7582,-1.7582,-1.7582,-1.7582,-1.7582,-1.7582,-1.7582,-1.7582,-1.7555,-1.7542,-1.7542,-1.7569,-1.7582,-1.7582,-1.7582,-1.7582,-1.7582,-1.7582,-1.7582,-1.7582,-1.7582,-1.7582,-1.7582,-1.7582,-1.7582,-1.7582,-1.7582,-1.7582,-1.7582,-1.7582,-1.7582,-1.7582,-1.7582,-1.7582,-1.7582,-1.7582,-1.7582,-1.7582,-1.7582,-1.7562,-1.7542,-1.7542,-1.7542,-1.7514,-1.7219,-1.6874,-1.658,-1.6293,-1.6012,-1.5784,-1.5784,-1.5784,-1.5784,-1.5784,-1.5784,-1.5784,-1.5784,-1.5784,-1.5784,-1.5784,-1.5784,-1.5784,-1.5784,-1.5784,-1.5784,-1.5784,-1.5784,-1.5784,-1.5784,-1.5784,-1.5784,-1.5784,-1.5784,-1.5784,-1.5784,-1.5784,-1.5784,-1.5784,-1.5784,-1.5784,0.0,0.0,0.0,0.0,0.0,0.0,0.0,0.0,0.0,0.0,0.0,0.0,0.0,0.0,0.0,0.0,0.0,0.0,0.0,0.0,0.0,0.0,0.0,0.0,0.0,0.0,0.0,0.0,0.0,0.0,-1.7582,-1.7582,-1.7582,-1.7582,-1.7582,-1.7582,-1.7582,-1.7582,-1.7582,0.0,-1.7407,-1.7293,-1.73,-1.7475,-1.7582,-1.7582,-1.7582,-1.7582,-1.7582,-1.7582,-1.7582,-1.7582,-1.7582,-1.7582,-1.7582,-1.7582,-1.7582,-1.7582,-1.7582,-1.7582,-1.7582,-1.7582,-1.7582,-1.7582,-1.7582,-1.7582,-1.7582,-1.7582,-1.7582,-1.7582,-1.7582,-1.7467,-1.7293,-1.7293,-1.7293,-1.7213,-1.6867,-1.6573,-1.6279,-1.5979,-1.5872,-1.5784,-1.5784,-1.5784,-1.5784,-1.5784,-1.5784,-1.5784,-1.5784,-1.5784,-1.5784,-1.5784,-1.5784,-1.5784,-1.5784,-1.5784,-1.5784,-1.5784,-1.5784,-1.5784,-1.5784,-1.5784,-1.5784,-1.5784,-1.5784,-1.5784,-1.5784,-1.5784,-1.5784,-1.5784,-1.5784,-1.5784,0.0,0.0,0.0,0.0,0.0,0.0,0.0,0.0,0.0,0.0,0.0,0.0,0.0,0.0,0.0,0.0,0.0,0.0,0.0,0.0,0.0,0.0,0.0,0.0,0.0,0.0,0.0,0.0,0.0,-1.7113,-1.7378,-1.7437,-1.7483,-1.7582,-1.7501,-1.7427,-1.7427,-1.7427,-1.7353,-1.7161,-1.7206,-1.7125,-1.6991,-1.7094,-1.7161,-1.7168,-1.7367,-1.7427,-1.744,-1.7522,-1.7582,-1.7582,-1.7582,-1.7582,-1.7582,-1.7582,-1.7582,-1.7582,-1.7582,-1.7582,-1.7582,-1.7582,-1.7582,-1.7555,-1.7467,-1.7427,-1.7427,-1.7427,-1.7427,-1.746,-1.7549,-1.742,-1.7199,-1.7199,-1.7092,-1.686,-1.656,-1.638,-1.6186,-1.5885,-1.5784,-1.5784,-1.5784,-1.5784,-1.5784,-1.5784,-1.5784,-1.5784,-1.5784,-1.5784,-1.5784,-1.5784,-1.5784,-1.5784,-1.5784,-1.5784,-1.5784,-1.5784,-1.5784,-1.5784,-1.5784,-1.5784,-1.5784,-1.5784,-1.5784,-1.5784,-1.5784,-1.5784,-1.5784,-1.5784,-1.5784,-1.5784,0.0,0.0,0.0,0.0,0.0,0.0,0.0,0.0,0.0,0.0,0.0,0.0,0.0,0.0,0.0,0.0,0.0,0.0,0.0,0.0,0.0,0.0,0.0,0.0,0.0,0.0,0.0,0.0,0.0,-1.67,-1.6977,-1.6977,-1.7128,-1.7383,-1.715,-1.7074,-1.7125,-1.7125,-1.6947,-1.6707,-1.6951,-1.6891,-1.6553,-1.6553,-1.6613,-1.672,-1.7018,-1.7125,-1.7139,-1.7328,-1.7428,-1.7428,-1.7428,-1.7428,-1.7435,-1.7488,-1.7475,-1.7448,-1.7549,-1.7549,-1.7515,-1.7562,-1.7549,-1.7521,-1.7333,-1.7239,-1.7213,-1.7266,-1.728,-1.732,-1.7514,-1.7347,-1.7112,-1.7065,-1.6774,-1.65,-1.6362,-1.6233,-1.6126,-1.5831,-1.5784,-1.5784,-1.5784,-1.5784,-1.5784,-1.5784,-1.5784,-1.5784,-1.5784,-1.5784,-1.5784,-1.5784,-1.5784,-1.5784,-1.5784,-1.5784,-1.5784,-1.5784,-1.5784,-1.5784,-1.5784,-1.5784,-1.5784,-1.5784,-1.5784,-1.5784,-1.5784,-1.5784,-1.5784,-1.5784,-1.5784,-1.5784,0.0,0.0,0.0,0.0,0.0,0.0,0.0,0.0,0.0,0.0,0.0,0.0,0.0,0.0,0.0,0.0,0.0,0.0,0.0,0.0,0.0,0.0,0.0,0.0,0.0,0.0,0.0,0.0,-1.6029,-1.6027,-1.6145,-1.6183,-1.6284,-1.6487,-1.6447,-1.6522,-1.6767,-1.6767,-1.6747,-1.67,-1.6493,-1.6233,-1.5898,-1.5898,-1.6226,-1.6707,-1.6747,-1.6767,-1.6767,-1.6807,-1.682,-1.682,-1.682,-1.682,-1.6854,-1.7166,-1.7048,-1.6894,-1.7408,-1.7467,-1.73,-1.7502,-1.7467,-1.73,-1.7514,-1.74,-1.7253,-1.7507,-1.7522,-1.7475,-1.7313,-1.6987,-1.67,-1.6502,-1.6166,-1.6005,-1.6274,-1.6072,-1.5831,-1.5791,-1.5784,-1.5784,-1.5784,-1.5784,-1.5784,-1.5784,-1.5784,-1.5784,-1.5784,-1.5784,-1.5784,-1.5784,-1.5784,-1.5784,-1.5784,-1.5784,-1.5784,-1.5784,-1.5784,-1.5784,-1.5784,-1.5784,-1.5784,-1.5784,-1.5784,-1.5784,-1.5784,-1.5784,-1.5784,-1.5784,-1.5784,-1.5784,0.0,0.0,0.0,0.0,0.0,0.0,0.0,0.0,0.0,0.0,0.0,0.0,0.0,0.0,0.0,0.0,0.0,0.0,0.0,0.0,0.0,0.0,0.0,0.0,0.0,0.0,0.0,0.0,-1.5436,-1.5585,-1.5922,-1.596,-1.6111,-1.6513,-1.6355,-1.6269,-1.6256,-1.6256,-1.6163,-1.6021,-1.5923,-1.5761,-1.5635,-1.5737,-1.5924,-1.6226,-1.6393,-1.6466,-1.6473,-1.664,-1.6707,-1.6707,-1.6707,-1.6707,-1.672,-1.6854,-1.682,-1.674,-1.7001,-1.7007,-1.6921,-1.7048,-1.7007,-1.6894,-1.686,-1.6811,-1.677,-1.7007,-1.6974,-1.6894,-1.7146,-1.6857,-1.6433,-1.6348,-1.6046,-1.5818,-1.5999,-1.5919,-1.5784,-1.5784,-1.5784,-1.5784,-1.5784,-1.5784,-1.5784,-1.5784,-1.5784,-1.5784,-1.5784,-1.5784,-1.5784,-1.5784,-1.5784,-1.5784,-1.5784,-1.5784,-1.5784,-1.5784,-1.5784,-1.5784,-1.5784,-1.5784,-1.5784,-1.5784,-1.5784,-1.5784,-1.5784,-1.5784,-1.5784,-1.5784,-1.5784,-1.5784,0.0,0.0,0.0,0.0,0.0,0.0,0.0,0.0,0.0,0.0,0.0,0.0,0.0,0.0,0.0,0.0,0.0,0.0,0.0,0.0,0.0,0.0,0.0,0.0,0.0,0.0,0.0,0.0,-1.501,-1.5125,-1.5494,-1.5494,-1.5687,-1.619,-1.6077,-1.5917,-1.5807,-1.5813,-1.5716,-1.5577,-1.5501,-1.554,-1.5588,-1.5683,-1.5737,-1.5743,-1.6066,-1.6159,-1.6179,-1.6393,-1.648,-1.648,-1.648,-1.648,-1.6493,-1.6567,-1.6497,-1.6407,-1.6554,-1.651,-1.6407,-1.6487,-1.646,-1.6374,-1.6279,-1.619,-1.6229,-1.6497,-1.6507,-1.6467,-1.6854,-1.665,-1.6301,-1.6179,-1.5992,-1.5784,-1.5784,-1.5784,-1.5784,-1.5784,-1.5784,-1.5784,-1.5784,-1.5784,-1.5784,-1.5784,-1.5784,-1.5784,-1.5784,-1.5784,-1.5784,-1.5784,-1.5784,-1.5784,-1.5784,-1.5784,-1.5784,-1.5784,-1.5784,-1.5784,-1.5784,-1.5784,-1.5784,-1.5784,-1.5784,-1.5784,-1.5784,-1.5784,-1.5784,-1.5784,-1.5784,-1.5784,0.0,0.0,0.0,0.0,0.0,0.0,0.0,0.0,0.0,0.0,0.0,0.0,0.0,0.0,0.0,0.0,0.0,0.0,0.0,0.0,0.0,0.0,0.0,0.0,0.0,0.0,0.0,0.0,-1.4739,-1.4624,-1.4401,-1.4382,-1.4533,-1.4779,-1.506,-1.5293,-1.5512,-1.5512,-1.5614,-1.5757,-1.5594,-1.5588,-1.5784,-1.5588,-1.554,-1.554,-1.575,-1.5852,-1.5804,-1.5824,-1.5872,-1.5872,-1.5872,-1.5872,-1.5912,-1.6192,-1.6022,-1.5617,-1.613,-1.5993,-1.5609,-1.5934,-1.5838,-1.5615,-1.5914,-1.5991,-1.5991,-1.6268,-1.6501,-1.6631,-1.6404,-1.6342,-1.6206,-1.5919,-1.5791,-1.5784,-1.5784,-1.5784,-1.5784,-1.5784,-1.5784,-1.5784,-1.5784,-1.5784,-1.5784,-1.5784,-1.5784,-1.5784,-1.5784,-1.5784,-1.5784,-1.5784,-1.5784,-1.5784,-1.5784,-1.5784,-1.5784,-1.5784,-1.5784,-1.5784,-1.5784,-1.5784,-1.5784,-1.5784,-1.5784,-1.5784,-1.5784,-1.5784,-1.5784,-1.5784,-1.5784,-1.5784,0.0,0.0,0.0,0.0,0.0,0.0,0.0,0.0,0.0,0.0,0.0,0.0,0.0,0.0,0.0,0.0,0.0,0.0,0.0,0.0,0.0,0.0,0.0,0.0,0.0,0.0,0.0,0.0,0.0,-1.4503,-1.4544,-1.4544,-1.4694,-1.4939,-1.5035,-1.5077,-1.4975,-1.4825,-1.4777,-1.4825,-1.4921,-1.5022,-1.5118,-1.522,-1.522,-1.5267,-1.5315,-1.5363,-1.5363,-1.5547,-1.5499,-1.5363,-1.5363,-1.5363,-1.5376,-1.5479,-1.5406,-1.5245,-1.5457,-1.5415,-1.5248,-1.5399,-1.536,-1.5248,-1.5399,-1.5521,-1.5693,-1.598,-1.6072,-1.6153,-1.6279,-1.6132,-1.5965,-1.5804,-1.5784,-1.5784,-1.5784,-1.5784,-1.5784,-1.5784,-1.5784,-1.5784,-1.5784,-1.5784,-1.5784,-1.5784,-1.5784,-1.5784,-1.5784,-1.5784,-1.5784,-1.5784,-1.5784,-1.5784,-1.5784,-1.5784,-1.5784,-1.5784,-1.5784,-1.5784,-1.5784,-1.5784,-1.5784,-1.5784,-1.5784,-1.5784,-1.5784,-1.5784,-1.5784,-1.5784,-1.5784,-1.5784,0.0,0.0,0.0,0.0,0.0,0.0,0.0,0.0,0.0,0.0,0.0,0.0,0.0,0.0,0.0,0.0,0.0,0.0,0.0,0.0,0.0,0.0,0.0,0.0,0.0,0.0,0.0,0.0,0.0,0.0,-1.4544,-1.4592,-1.4688,-1.4939,-1.4981,-1.4933,-1.4838,-1.4592,-1.4496,-1.4592,-1.464,-1.4742,-1.4838,-1.4933,-1.4981,-1.4981,-1.4981,-1.5035,-1.5131,-1.5309,-1.5267,-1.5083,-1.5083,-1.5083,-1.5083,-1.5083,-1.5035,-1.4981,-1.4981,-1.4885,-1.4838,-1.4838,-1.4838,-1.4838,-1.4838,-1.5044,-1.5277,-1.5464,-1.5522,-1.5615,-1.5864,-1.5739,-1.5547,-1.5547,-1.5547,-1.5594,-1.5683,-1.5737,-1.5784,-1.5784,-1.5784,-1.5784,-1.5784,-1.5784,-1.5784,-1.5784,-1.5784,-1.5784,-1.5784,-1.5784,-1.5784,-1.5784,-1.5784,-1.5784,-1.5784,-1.5784,-1.5784,-1.5784,-1.5784,-1.5784,-1.5784,-1.5784,-1.5784,-1.5784,-1.5784,-1.5784,-1.5784,-1.5784,-1.5784,-1.5784,-1.5784,-1.5784,0.0,0.0,0.0,0.0,0.0,0.0,0.0,0.0,0.0,0.0,0.0,0.0,0.0,0.0,0.0,0.0,0.0,0.0,0.0,0.0,0.0,0.0,0.0,0.0,0.0,0.0,0.0,0.0,-1.2684,-1.3167,-1.4202,-1.4292,-1.4442,-1.4694,-1.4688,-1.479,-1.5083,-1.4838,-1.4838,-1.5083,-1.479,-1.4838,-1.5083,-1.479,-1.4688,-1.4688,-1.4688,-1.4838,-1.5083,-1.5083,-1.5083,-1.5083,-1.5083,-1.5083,-1.5083,-1.5083,-1.4885,-1.4688,-1.4688,-1.4544,-1.4298,-1.4298,-1.4298,-1.4298,-1.4298,-1.4491,-1.4697,-1.472,-1.488,-1.512,-1.5105,-1.5083,-1.5083,-1.5083,-1.5083,-1.5172,-1.5445,-1.5635,-1.5784,-1.5778,-1.5784,-1.5784,-1.5778,-1.5778,-1.5778,-1.5784,-1.5784,-1.5784,-1.5784,-1.5784,-1.5784,-1.5784,-1.5784,-1.5784,-1.5784,-1.5784,-1.5784,-1.5784,-1.5784,-1.5784,-1.5784,-1.5784,-1.5784,-1.5784,-1.5784,-1.5784,-1.5784,-1.5784,-1.5784,-1.5784,-1.5784,-1.5784,-0.4721,0.0,0.0,0.0,0.0,0.0,0.0,0.0,0.0,0.0,0.0,0.0,0.0,0.0,0.0,0.0,0.0,0.0,0.0,0.0,0.0,0.0,0.0,0.0,0.0,0.0,0.0,0.0,-1.1853,-1.2829,-1.3119,-1.3859,-1.4346,-1.4394,-1.4394,-1.4442,-1.4538,-1.4442,-1.4442,-1.4538,-1.4442,-1.4442,-1.4544,-1.4442,-1.4394,-1.4394,-1.4394,-1.4442,-1.4544,-1.4736,-1.4688,-1.4538,-1.4538,-1.4538,-1.4538,-1.4538,-1.4496,-1.4394,-1.4394,-1.4346,-1.4298,-1.4298,-1.4298,-1.4298,-1.4298,-1.4497,-1.469,-1.4712,-1.4894,-1.5082,-1.5102,-1.5083,-1.5083,-1.5083,-1.5083,-1.5131,-1.5172,-1.5267,-1.5363,-1.5547,-1.5404,-1.5363,-1.5547,-1.5588,-1.5635,-1.5784,-1.5784,-1.5784,-1.5784,-1.5784,-1.5784,-1.5784,-1.5784,-1.5784,-1.5784,-1.5784,-1.5784,-1.5784,-1.5784,-1.5784,-1.5784,-1.5784,-1.5784,-1.5784,-1.5784,-1.5784,-1.5784,-1.5784,-1.5784,-1.5784,-1.5784,-1.5784,0.0,0.0,0.0,0.0,0.0,0.0,0.0,-0.5941,0.0,0.0,0.0,0.0,0.0,0.0,0.0,0.0,0.0,0.0,0.0,0.0,0.0,0.0,0.0,0.0,0.0,-0.8581,-0.9312,-1.0194,-1.1414,-1.2242,-1.2684,-1.327,-1.3613,-1.3613,-1.4052,-1.4298,-1.4298,-1.4298,-1.4298,-1.4298,-1.4298,-1.4298,-1.4298,-1.4298,-1.4298,-1.4298,-1.4298,-1.4298,-1.4298,-1.4496,-1.4442,-1.4298,-1.4298,-1.4298,-1.4298,-1.4298,-1.4298,-1.4298,-1.4298,-1.4298,-1.4298,-1.4298,-1.4298,-1.4298,-1.4298,-1.4394,-1.4544,-1.4544,-1.464,-1.479,-1.479,-1.479,-1.479,-1.479,-1.479,-1.479,-1.4885,-1.4838,-1.4879,-1.5261,-1.5315,-1.5309,-1.5493,-1.5588,-1.5642,-1.5784,-1.5784,-1.5784,-1.5784,-1.5784,-1.5784,-1.5784,-1.5784,-1.5784,-1.5784,-1.5784,-1.5784,-1.5784,-1.5784,-1.5784,-1.5784,-1.5784,-1.5784,-1.5784,-1.5784,-1.5784,-1.5784,-1.5784,-1.5784,-1.5784,-1.5784,-1.5784,0.0,0.0,0.0,0.0,0.0,0.0,-0.6088,-0.5918,0.0,0.0,0.0,0.0,0.0,0.0,0.0,0.0,0.0,0.0,0.0,0.0,0.0,0.0,0.0,0.0,-0.7965,-0.7965,-0.8753,-1.0681,-1.1072,-1.1658,-1.263,-1.2678,-1.2678,-1.2678,-1.3613,-1.41,-1.41,-1.4244,-1.4298,-1.4298,-1.4298,-1.4298,-1.4298,-1.4298,-1.4298,-1.4298,-1.4298,-1.4298,-1.4298,-1.4298,-1.4298,-1.4298,-1.4298,-1.4298,-1.4298,-1.4298,-1.4298,-1.4298,-1.4298,-1.4298,-1.4298,-1.4298,-1.4298,-1.4298,-1.4298,-1.4298,-1.4298,-1.4298,-1.4298,-1.4298,-1.4298,-1.4298,-1.4298,-1.4298,-1.4298,-1.4394,-1.4592,-1.4496,-1.4442,-1.4939,-1.5213,-1.5397,-1.5445,-1.5635,-1.5784,-1.5784,-1.5784,-1.5784,-1.5784,-1.5784,-1.5784,-1.5784,-1.5784,-1.5784,-1.5784,-1.5784,-1.5784,-1.5784,-1.5784,-1.5784,-1.5784,-1.5784,-1.5784,-1.5784,-1.5784,-1.5784,-1.5784,-1.5784,-1.5784,-1.5784,-1.5784,-1.5784,0.0,0.0,0.0,0.0,0.0,0.0,-0.5121,-0.5325,0.0,0.0,0.0,0.0,0.0,0.0,0.0,0.0,0.0,0.0,0.0,0.0,0.0,0.0,0.0,0.0,-0.7845,-0.7855,-0.8052,-0.857,-1.0243,-1.1658,-1.263,-1.2678,-1.2678,-1.2678,-1.2877,-1.3022,-1.3022,-1.3854,-1.4298,-1.4298,-1.4298,-1.4298,-1.4298,-1.4298,-1.4298,-1.4298,-1.4298,-1.4298,-1.4298,-1.4298,-1.4298,-1.4298,-1.4298,-1.4298,-1.4298,-1.4298,-1.4298,-1.4298,-1.4298,-1.4298,-1.4298,-1.4298,-1.4298,-1.4298,-1.4298,-1.4298,-1.4298,-1.4298,-1.4298,-1.4298,-1.4298,-1.4298,-1.4298,-1.4298,-1.4298,-1.4298,-1.4394,-1.4346,-1.4346,-1.4448,-1.4688,-1.4927,-1.5124,-1.5404,-1.5588,-1.5784,-1.5784,-1.5784,-1.5784,-1.5784,-1.5784,-1.5784,-1.5784,-1.5784,-1.5784,-1.5784,-1.5784,-1.5784,-1.5784,-1.5784,-1.5784,-1.5784,-1.5784,-1.5784,-1.5784,-1.5784,-1.5784,-1.5784,-1.5784,-1.5784,-1.5784,-1.5784,0.0,0.0,0.0,-0.5846,0.0,0.0,0.0,-0.542,-0.5552,0.0,0.0,0.0,0.0,0.0,0.0,0.0,0.0,0.0,0.0,0.0,0.0,0.0,0.0,0.0,-0.7699,-0.7706,-0.7928,-0.8531,-0.9583,-1.0439,-1.091,-1.1532,-1.1586,-1.1057,-1.2131,-1.2436,-1.195,-1.249,-1.2732,-1.278,-1.327,-1.3511,-1.3511,-1.4052,-1.4298,-1.4298,-1.4298,-1.4298,-1.4298,-1.4298,-1.4004,-1.3565,-1.41,-1.4298,-1.4298,-1.4298,-1.4298,-1.4298,-1.4298,-1.4298,-1.4298,-1.4298,-1.4298,-1.4298,-1.4298,-1.4298,-1.4298,-1.4298,-1.4298,-1.4298,-1.4298,-1.4298,-1.4298,-1.4298,-1.4298,-1.4298,-1.4298,-1.4298,-1.4298,-1.4298,-1.4544,-1.4742,-1.4885,-1.5124,-1.5315,-1.5458,-1.5458,-1.5458,-1.5458,-1.5594,-1.5635,-1.5635,-1.573,-1.5784,-1.5784,-1.5784,-1.5784,-1.5784,-1.5784,-1.5784,-1.5784,-1.5784,-1.5784,-1.5784,-1.5784,-1.5784,-1.5784,-1.5784,-1.5784,-1.5784,-1.5784,-1.5784,0.0,0.0,0.0,0.0,0.0,-0.5698,0.0,0.0,0.0,-0.5764,0.0,0.0,0.0,0.0,0.0,0.0,0.0,0.0,0.0,0.0,0.0,0.0,0.0,0.0,0.0,-0.7512,-0.7905,-0.88,-0.9015,-0.9145,-0.9215,-1.0101,-1.0281,-0.9378,-1.1144,-1.1691,-1.0865,-1.1102,-1.1219,-1.1219,-1.1999,-1.2387,-1.2436,-1.3318,-1.3709,-1.3709,-1.3709,-1.3709,-1.3709,-1.3709,-1.3173,-1.2533,-1.3559,-1.3854,-1.3709,-1.3709,-1.3806,-1.4004,-1.4004,-1.4148,-1.4298,-1.4298,-1.4298,-1.4298,-1.4298,-1.4298,-1.4298,-1.4298,-1.4298,-1.4298,-1.4298,-1.4298,-1.4298,-1.4298,-1.4298,-1.4298,-1.4298,-1.4298,-1.4298,-1.4298,-1.4496,-1.464,-1.4688,-1.4933,-1.5083,-1.5083,-1.5083,-1.5083,-1.5083,-1.5267,-1.5404,-1.5404,-1.5594,-1.5689,-1.5689,-1.5689,-1.5689,-1.5689,-1.573,-1.573,-1.573,-1.5784,-1.5784,-1.5784,-1.5784,-1.5784,-1.5784,-1.5784,-1.5784,-1.5784,-1.5784,-1.5784,0.0,0.0,0.0,0.0,-0.6367,0.0,0.0,0.0,-0.5654,-0.5272,0.0,0.0,0.0,0.0,0.0,0.0,0.0,0.0,0.0,0.0,0.0,0.0,0.0,0.0,0.0,-0.7149,-0.7351,-0.7764,-0.8377,-0.8869,-0.9203,-0.9334,-0.9342,-0.9206,-0.956,-0.97,-0.9604,-1.0687,-1.1219,-1.1219,-1.1317,-1.1365,-1.1365,-1.1512,-1.156,-1.156,-1.156,-1.156,-1.156,-1.156,-1.1463,-1.1463,-1.2484,-1.2339,-1.156,-1.156,-1.2096,-1.2877,-1.2877,-1.3511,-1.4298,-1.4298,-1.4298,-1.4298,-1.4298,-1.4298,-1.4298,-1.4298,-1.4298,-1.4298,-1.4298,-1.4298,-1.4298,-1.4298,-1.4298,-1.4298,-1.4298,-1.4298,-1.4298,-1.4298,-1.4346,-1.4442,-1.464,-1.4933,-1.5083,-1.5083,-1.5083,-1.5083,-1.5083,-1.5131,-1.5131,-1.5131,-1.5178,-1.5178,-1.5178,-1.5178,-1.5178,-1.5178,-1.5404,-1.554,-1.554,-1.573,-1.5784,-1.5784,-1.5784,-1.5784,-1.5784,-1.5784,-1.5784,-1.5784,-1.5784,-1.5784,0.0,0.0,0.0,0.0,0.0,0.0,-0.5674,0.0,-0.5518,0.0,0.0,0.0,0.0,0.0,0.0,0.0,0.0,0.0,0.0,0.0,0.0,0.0,0.0,0.0,0.0,0.0,0.0,0.0,-0.7382,-0.7619,-0.7856,-0.8586,-0.8742,-0.8195,-0.8958,-0.9096,-0.8479,-0.9029,-0.9361,-0.9361,-0.9948,-1.0293,-1.0293,-1.0925,-1.1219,-1.1219,-1.1219,-1.1219,-1.1219,-1.1219,-1.0828,-1.0293,-1.073,-1.1023,-1.1219,-1.1219,-1.1463,-1.1853,-1.1853,-1.2096,-1.2587,-1.3167,-1.3806,-1.4298,-1.4298,-1.4298,-1.4298,-1.4298,-1.4298,-1.4298,-1.4298,-1.4298,-1.4298,-1.4298,-1.4298,-1.4298,-1.4298,-1.3806,-1.3565,-1.4196,-1.3806,-1.3607,-1.4346,-1.4544,-1.464,-1.464,-1.464,-1.464,-1.464,-1.479,-1.4885,-1.4885,-1.5035,-1.5083,-1.5083,-1.5083,-1.5083,-1.5083,-1.5356,-1.554,-1.5683,-1.5778,-1.5784,-1.5784,-1.5784,-1.5784,-1.5784,-1.5683,-1.5689,-1.5784,-1.5784,-1.5784,-0.6936,0.0,0.0,0.0,0.0,0.0,0.0,0.0,0.0,0.0,0.0,0.0,0.0,0.0,0.0,0.0,0.0,0.0,0.0,0.0,0.0,0.0,0.0,0.0,0.0,0.0,0.0,0.0,0.0,-0.6593,-0.6869,-0.7826,-0.802,-0.7351,-0.8296,-0.8488,-0.7689,-0.7882,-0.7928,-0.7977,-0.8753,-0.9167,-0.9167,-0.9948,-1.0342,-1.0342,-1.0342,-1.0342,-1.0342,-1.0342,-0.985,-0.9167,-0.9167,-0.9657,-1.0342,-1.0342,-1.0489,-1.0779,-1.0779,-1.0925,-1.1365,-1.2387,-1.3022,-1.3463,-1.3463,-1.3463,-1.3463,-1.3463,-1.3463,-1.3463,-1.3463,-1.3463,-1.3463,-1.3463,-1.3463,-1.3463,-1.3463,-1.2829,-1.2587,-1.3661,-1.3221,-1.2926,-1.3709,-1.41,-1.4298,-1.4298,-1.4298,-1.4298,-1.4298,-1.4496,-1.4592,-1.4592,-1.4736,-1.4736,-1.4496,-1.4442,-1.4496,-1.4544,-1.4723,-1.5057,-1.5594,-1.5594,-1.5594,-1.5594,-1.5594,-1.5594,-1.5594,-1.5452,-1.5452,-1.5594,-1.5683,-1.5737,0.0,0.0,0.0,-0.6525,0.0,0.0,0.0,0.0,-0.5892,0.0,0.0,0.0,0.0,0.0,0.0,0.0,0.0,0.0,0.0,0.0,0.0,0.0,0.0,0.0,0.0,0.0,0.0,0.0,0.0,0.0,-0.6849,-0.6936,-0.7007,-0.7098,-0.7347,-0.7429,-0.7433,-0.7675,-0.7818,-0.7821,-0.7967,-0.8038,-0.8038,-0.8088,-0.8088,-0.8088,-0.8088,-0.8088,-0.8088,-0.8088,-0.8088,-0.8038,-0.8038,-0.8088,-0.8088,-0.8088,-0.8775,-0.9657,-0.9657,-1.0342,-1.1365,-1.2387,-1.2047,-1.1317,-1.1317,-1.1317,-1.1317,-1.1317,-1.1317,-1.1317,-1.1317,-1.1317,-1.1317,-1.1317,-1.1317,-1.1317,-1.1317,-1.1268,-1.156,-1.2581,-1.2727,-1.2732,-1.2732,-1.3607,-1.4298,-1.4298,-1.4298,-1.4298,-1.4298,-1.4298,-1.4298,-1.4298,-1.4346,-1.3908,-1.2877,-1.278,-1.2877,-1.3167,-1.3167,-1.3757,-1.5083,-1.5131,-1.5131,-1.5131,-1.5131,-1.5131,-1.5131,-1.5131,-1.5131,-1.5131,-1.5404,-1.5588,0.0,0.0,-0.7573,-0.6878,0.0,0.0,0.0,0.0,0.0,0.0,0.0,0.0,0.0,0.0,0.0,0.0,0.0,0.0,0.0,0.0,0.0,0.0,0.0,0.0,0.0,0.0,0.0,0.0,-0.5979,0.0,0.0,-0.6817,-0.6906,-0.6957,-0.7241,-0.7415,-0.7415,-0.7665,-0.7811,-0.7814,-0.7917,-0.7988,-0.7988,-0.7988,-0.7988,-0.7988,-0.7988,-0.7988,-0.7988,-0.7988,-0.7988,-0.7988,-0.7988,-0.7988,-0.7988,-0.7988,-0.8233,-0.8528,-0.8528,-0.9266,-1.0194,-1.0534,-1.0877,-1.1219,-1.1219,-1.1219,-1.1219,-1.1219,-1.1219,-1.1219,-1.1219,-1.1219,-1.1219,-1.1219,-1.1219,-1.1219,-1.1219,-1.0636,-1.044,-1.1512,-1.1121,-1.0877,-1.1609,-1.1999,-1.249,-1.3119,-1.3216,-1.3216,-1.3216,-1.2684,-1.2247,-1.2247,-1.2247,-1.2101,-1.1755,-1.2339,-1.2829,-1.3071,-1.3757,-1.4442,-1.5083,-1.4442,-1.4052,-1.4052,-1.4052,-1.4052,-1.4052,-1.4592,-1.4933,-1.5083,-1.5029,-1.5118,-0.7689,-0.7743,0.0,-0.7095,-0.6886,0.0,-0.6101,0.0,0.0,0.0,0.0,0.0,0.0,0.0,0.0,0.0,0.0,0.0,0.0,0.0,0.0,0.0,0.0,0.0,0.0,0.0,-0.5338,-0.5698,0.0,0.0,0.0,0.0,-0.6829,-0.6883,-0.7163,-0.7288,-0.7288,-0.7587,-0.7736,-0.774,-0.7894,-0.7988,-0.7988,-0.7988,-0.7988,-0.7988,-0.7988,-0.7988,-0.7988,-0.7988,-0.7988,-0.7988,-0.7988,-0.7988,-0.7988,-0.7988,-0.7988,-0.8038,-0.8432,-0.8775,-0.9118,-0.946,-0.9805,-1.0047,-1.0047,-1.0047,-1.0047,-1.0047,-1.0047,-1.0047,-1.0047,-1.0047,-1.0047,-1.0047,-1.0047,-1.0047,-1.0047,-0.9509,-0.9361,-1.0435,-1.0047,-0.9805,-1.0489,-1.0925,-1.1414,-1.2047,-1.2193,-1.2193,-1.2193,-1.1609,-1.1219,-1.1219,-1.1219,-1.1219,-1.1219,-1.1463,-1.1853,-1.2393,-1.3076,-1.3516,-1.3709,-1.3076,-1.2684,-1.2684,-1.2684,-1.2684,-1.2684,-1.3221,-1.3565,-1.3709,-1.3565,-1.3565]}]]